GFSSGP_con_mucape_000.txt.gz
CAPE
0 0 0 0 0 0 12 75 88 27 58 33 43 44 14 1 0 8 4 0 0 0 22 483 693 285 19 0 0 0 0 3 2 0 15 29 9 6 6 8 1 10 16 8 5 5 4 4 9
0 0 0 0 0 0 18 35 49 62 18 23 54 58 35 11 0 0 0 0 0 0 3 316 820 359 18 1 0 0 0 4 0 2 21 26 16 10 6 13 1 0 5 0 0 1 2 4 3
0 0 0 0 0 0 33 76 67 19 58 16 53 57 37 8 0 0 0 0 0 13 0 269 908 223 19 8 0 0 0 3 3 29 33 24 21 5 1 1 0 0 0 0 0 0 3 6 17
0 0 0 0 0 0 4 1 11 47 26 50 46 58 25 0 0 0 0 0 0 0 49 730 951 317 54 27 3 0 0 6 8 1 34 35 26 13 0 0 0 2 0 0 0 0 0 7 3
0 0 0 0 0 1 16 0 8 11 0 24 49 40 14 8 0 0 0 0 0 0 25 366 1069 203 28 5 7 0 0 10 6 13 14 7 21 15 3 0 0 0 0 0 0 0 0 3 0
0 0 0 0 0 0 0 17 4 0 0 18 52 38 14 6 0 0 0 0 0 0 13 172 385 77 29 15 7 9 12 17 14 12 0 0 3 13 7 4 22 7 7 0 0 0 0 3 0
0 0 0 0 0 0 0 1 0 0 0 0 25 26 6 0 0 0 0 0 0 0 0 0 0 1 10 26 22 27 22 27 31 12 0 0 0 18 17 27 27 25 0 0 0 0 0 0 1
0 0 0 0 0 0 1 0 0 0 0 0 2 5 7 0 0 0 0 0 0 0 0 0 0 0 0 0 25 22 32 24 30 25 10 1 8 15 19 24 17 1 0 0 0 0 0 0 0
0 0 0 0 0 0 0 0 0 0 0 0 0 4 4 0 0 0 0 0 0 0 0 0 0 0 0 0 0 12 25 15 19 10 0 0 0 0 0 0 5 0 0 0 0 0 0 0 0
0 0 0 0 0 0 0 0 0 0 0 0 0 0 0 0 0 0 0 0 0 0 0 0 0 0 0 0 0 0 0 0 0 0 0 0 0 0 1 0 0 0 0 0 0 0 0 0 0
0 0 0 0 0 0 0 0 0 0 0 0 0 0 0 0 0 0 0 0 0 0 0 0 0 0 0 0 0 0 0 0 0 0 0 0 0 0 0 0 0 0 0 0 0 0 0 0 0
0 0 0 0 0 0 0 0 0 0 0 0 0 0 0 0 0 0 0 0 0 0 0 0 0 0 0 0 0 0 0 0 0 0 0 0 0 0 0 0 0 0 0 0 0 0 0 0 0
0 0 0 0 0 0 0 0 0 0 0 0 0 0 0 0 0 0 0 0 0 0 0 0 0 0 0 0 0 0 0 0 0 0 0 0 0 0 0 0 0 0 0 0 0 0 0 0 0
0 0 0 0 0 0 0 0 0 0 0 0 0 0 0 0 0 0 0 0 0 0 0 0 0 0 0 0 0 0 0 0 0 0 0 0 0 0 0 0 0 0 0 0 0 0 0 0 0
0 0 0 0 0 0 0 0 0 0 0 0 0 0 0 0 0 0 0 0 0 0 0 0 0 0 0 0 0 0 0 0 0 0 0 0 0 0 0 0 0 0 0 0 0 0 0 0 0
0 0 0 0 0 0 0 0 0 0 0 0 0 0 0 0 0 0 0 0 0 0 0 0 0 0 0 0 0 0 0 0 0 0 0 0 0 0 0 0 0 0 0 0 0 0 0 0 0
0 0 0 0 0 0 0 0 0 0 0 0 0 0 0 0 0 0 0 0 0 0 0 0 0 0 0 0 0 0 0 0 0 0 0 0 0 0 0 0 0 0 0 0 0 0 0 0 0
0 0 0 0 0 0 0 0 0 0 0 0 0 0 0 0 0 0 0 0 0 0 0 0 0 0 0 0 0 0 0 0 0 0 0 0 0 0 0 0 0 0 0 0 0 0 0 0 0
0 0 0 0 0 0 0 0 0 0 0 0 0 0 0 0 0 0 0 0 0 0 0 0 0 0 0 0 0 0 0 0 0 0 0 0 0 0 0 0 0 0 0 0 0 0 0 0 0
0 0 0 0 0 0 0 0 0 0 0 0 0 0 0 0 0 0 0 0 0 0 0 0 0 0 0 0 0 0 0 0 0 4 0 7 3 0 0 0 0 0 0 0 0 0 0 0 0
0 0 0 0 0 0 0 0 0 0 0 0 0 0 0 0 0 0 0 0 0 0 0 0 0 0 0 0 0 0 0 0 0 0 0 6 3 2 0 0 0 0 0 0 0 0 0 0 0
0 0 0 0 0 0 0 0 0 0 0 0 0 0 0 0 0 0 0 0 0 0 0 0 0 0 0 0 0 0 0 0 0 0 0 0 4 5 0 0 0 0 1 2 2 2 0 2 0
0 0 0 0 0 0 0 0 0 0 0 0 0 0 0 0 0 0 0 0 0 0 0 0 0 0 0 0 0 0 0 0 0 0 0 0 0 0 0 0 0 0 10 7 7 8 9 3 2
0 0 0 0 0 0 0 0 0 0 0 0 0 0 0 0 0 0 0 0 0 0 0 0 0 0 0 0 0 0 0 0 0 0 0 0 0 0 0 0 0 0 0 23 38 82 79 76 60
0 0 0 0 0 0 0 0 0 0 0 0 0 0 0 0 0 0 0 0 0 0 0 0 0 0 0 0 0 0 0 0 0 0 0 0 0 0 0 1 1 0 13 47 106 152 158 178 159
0 0 0 0 0 0 0 0 0 0 0 0 0 0 0 0 0 0 0 0 0 0 0 0 0 0 0 0 0 0 0 0 0 0 0 0 0 0 0 1 18 58 59 83 153 220 240 288 300
0 0 0 0 0 0 0 0 0 0 0 0 0 0 0 0 0 0 0 0 0 0 0 0 0 0 0 0 0 0 0 0 0 0 0 0 0 0 0 0 0 0 40 104 148 159 211 248 293
0 0 0 0 0 0 0 0 0 0 0 0 0 0 0 0 0 0 0 0 0 0 0 0 0 0 0 0 0 0 0 0 0 0 0 0 0 0 0 0 0 0 0 0 26 116 183 214 251
0 0 0 0 0 0 0 0 0 0 0 0 0 0 0 0 0 0 0 0 0 0 0 0 0 0 0 0 0 0 0 0 0 0 0 0 0 0 0 0 0 0 0 0 0 0 7 96 198
0 0 0 0 0 0 0 0 0 0 0 0 0 0 0 0 0 0 0 0 0 0 0 0 0 0 0 0 0 0 0 0 0 0 0 0 0 0 0 0 0 0 0 0 0 0 0 0 7

GFSSGP_con_mucape_003.txt.gz
CAPE
0 0 0 0 0 0 0 7 40 40 29 38 21 10 16 8 4 0 0 17 52 83 278 480 1028 516 21 1 0 0 0 0 3 5 29 29 28 19 15 19 15 30 12 7 9 11 6 6 33
0 0 0 0 0 0 0 26 29 20 31 42 4 22 32 24 5 5 5 0 106 135 327 596 1137 640 15 0 0 0 0 3 0 12 37 32 29 23 25 12 1 1 5 2 0 2 3 2 2
0 0 0 0 0 0 2 40 17 21 38 21 2 19 37 36 11 1 0 0 48 171 296 628 1136 766 44 2 0 0 0 16 7 28 29 39 24 20 13 1 0 0 1 0 0 1 8 5 4
0 0 0 0 0 0 0 12 4 31 26 23 9 18 39 32 14 16 0 0 78 56 294 925 1188 664 327 56 0 0 0 4 7 33 35 33 40 18 1 0 0 0 0 0 0 0 0 3 3
0 0 0 0 0 0 0 0 24 15 8 7 22 35 37 31 31 10 0 0 0 96 342 817 1206 751 280 2 6 0 1 11 6 24 23 17 20 4 9 0 0 0 0 0 0 0 0 7 0
0 0 0 0 0 0 0 0 0 0 0 0 4 26 35 23 13 4 0 0 0 144 389 686 916 582 235 35 13 7 0 20 7 15 12 2 2 3 11 0 4 0 0 0 0 0 0 4 1
0 0 0 0 0 0 0 0 46 0 0 0 0 3 26 18 9 0 0 0 0 212 350 490 226 41 203 70 25 22 37 18 28 14 4 0 0 1 4 1 14 5 10 0 0 0 0 1 3
0 0 0 0 0 0 0 6 15 8 0 0 0 1 10 12 0 1 0 0 0 124 148 108 15 0 0 0 16 27 28 22 26 26 9 0 0 11 14 17 28 19 0 0 0 0 0 0 1
0 0 0 0 0 0 0 0 0 0 0 0 0 0 0 11 7 2 0 0 0 0 8 0 0 0 0 0 0 7 17 14 15 11 5 0 0 0 0 0 18 16 0 0 0 0 0 0 3
0 0 0 0 0 0 0 0 0 0 0 0 0 0 0 0 0 0 0 0 0 0 0 0 0 0 0 0 0 0 0 0 0 0 0 0 0 0 0 0 7 1 0 0 0 0 0 0 0
0 0 0 0 0 0 0 0 0 0 0 0 0 0 2 0 0 0 0 0 0 0 0 0 0 0 0 0 0 0 0 0 0 0 0 0 0 0 0 0 0 0 0 0 0 0 0 0 0
0 0 0 0 0 0 0 0 0 0 0 0 0 0 0 0 0 0 0 0 0 0 0 0 0 0 0 0 0 0 0 0 0 0 0 0 0 0 0 0 0 0 0 0 0 0 0 0 0
0 0 0 0 0 0 0 0 0 0 0 0 0 0 0 0 0 0 0 0 0 0 0 0 0 0 0 0 0 0 0 0 0 0 0 0 0 0 0 0 0 0 0 0 0 0 0 0 0
0 0 0 0 0 0 0 0 0 0 0 0 0 0 0 0 0 0 0 0 0 0 0 0 0 0 0 0 0 0 0 0 0 0 0 0 0 0 0 0 0 0 0 0 0 0 0 0 0
0 0 0 0 0 0 0 0 0 0 0 0 0 0 0 0 0 0 0 0 0 0 0 0 0 0 0 0 0 0 0 0 0 0 0 0 0 0 0 0 0 0 0 0 0 0 0 0 0
0 0 0 0 0 0 0 0 0 0 0 0 0 0 0 0 0 0 0 0 0 0 0 0 0 0 0 0 0 0 0 0 0 0 0 0 0 0 0 0 0 0 0 0 0 0 0 0 0
0 0 0 0 0 0 0 0 0 0 0 0 0 0 0 0 0 0 0 0 0 0 0 0 0 0 0 0 0 0 0 0 0 0 0 0 0 0 0 0 0 0 0 0 0 0 0 0 0
0 0 0 0 0 0 0 0 0 0 0 0 0 0 0 0 0 0 0 0 0 0 0 0 0 0 0 0 0 0 0 0 0 0 0 0 0 0 0 0 0 0 0 0 0 0 0 0 0
0 0 0 0 0 0 0 0 0 0 0 0 0 0 0 0 0 0 0 0 0 0 0 0 0 0 0 0 0 0 0 0 0 0 0 10 17 16 12 4 0 0 0 0 0 0 0 0 0
0 0 0 0 0 0 0 0 0 0 0 0 0 0 0 0 0 0 0 0 0 0 0 0 0 0 0 0 0 0 0 0 0 0 0 11 16 21 19 16 9 7 6 0 0 0 0 0 0
0 0 0 0 0 0 0 0 0 0 0 0 0 0 0 0 0 0 0 0 0 0 0 0 0 0 0 0 0 0 0 0 0 0 0 0 15 20 20 23 22 18 8 0 0 0 3 0 0
0 0 0 0 0 0 0 0 0 0 0 0 0 0 0 0 0 0 0 0 0 0 0 0 0 0 0 0 0 0 0 0 0 0 0 0 0 0 0 9 12 11 8 0 0 6 15 29 28
0 0 0 0 0 0 0 0 0 0 0 0 0 0 0 0 0 0 0 0 0 0 0 0 0 0 0 0 0 0 0 0 0 0 0 0 0 0 0 0 6 12 18 17 19 21 96 124 93
0 0 0 0 0 0 0 0 0 0 0 0 0 0 0 0 0 0 0 0 0 0 0 0 0 0 0 0 0 0 0 0 0 0 0 0 0 0 0 0 9 32 34 48 56 69 90 86 85
0 0 0 0 0 0 0 0 0 0 0 0 0 0 0 0 0 0 0 0 0 0 0 0 0 0 0 0 0 0 0 0 0 0 0 0 0 0 0 0 2 17 42 59 93 98 124 183 214
0 0 0 0 0 0 0 0 0 0 0 0 0 0 0 0 0 0 0 0 0 0 0 0 0 0 0 0 0 0 0 0 0 0 0 0 0 0 0 0 0 0 1 46 120 184 208 207 193
0 0 0 0 0 0 0 0 0 0 0 0 0 0 0 0 0 0 0 0 0 0 0 0 0 0 0 0 0 0 0 0 0 0 0 0 0 0 0 0 0 0 0 0 0 0 33 84 124
0 0 0 0 0 0 0 0 0 0 0 0 0 0 0 0 0 0 0 0 0 0 0 0 0 0 0 0 0 0 0 0 0 0 0 0 0 0 0 0 0 0 0 0 0 0 0 0 0
0 0 0 0 0 0 0 0 0 0 0 0 0 0 0 0 0 0 0 0 0 0 0 0 0 0 0 0 0 0 0 0 0 0 0 0 0 0 0 0 0 0 0 0 0 0 0 0 0
0 0 0 0 0 0 0 0 0 0 0 0 0 0 0 0 0 0 0 0 0 0 0 0 0 0 0 0 0 0 0 0 0 0 0 0 0 0 0 0 0 0 0 0 0 0 0 0 0

GFSSGP_con_mucape_006.txt.gz
CAPE
0 0 0 0 0 0 0 0 0 23 5 9 15 6 0 0 0 0 0 43 55 83 258 529 948 802 387 23 8 2 0 0 0 10 13 37 31 17 10 6 20 32 24 5 4 1 12 14 49
0 0 0 0 0 0 0 0 13 10 16 21 7 0 3 6 9 20 17 91 142 194 343 396 1259 651 206 24 2 0 0 0 0 6 41 42 33 27 23 12 0 9 6 4 3 4 4 1 14
0 0 0 0 0 0 0 6 17 8 22 21 17 0 1 13 14 15 12 162 163 272 401 629 1332 780 174 0 6 0 0 0 3 23 45 53 34 27 11 0 0 0 1 0 7 2 1 1 1
0 0 0 0 0 0 0 0 21 13 19 19 9 0 7 19 17 34 18 137 173 227 522 993 1287 830 424 4 0 0 0 0 12 33 60 40 38 31 3 0 0 0 0 0 0 0 0 1 2
0 0 0 0 0 0 0 0 0 2 0 0 0 0 4 22 29 18 8 60 146 174 464 941 1349 930 314 9 0 0 0 4 2 22 30 35 35 11 4 0 0 0 0 0 0 0 0 0 1
0 0 0 0 0 0 0 0 0 11 0 0 0 0 1 23 26 6 0 37 101 133 400 790 1138 976 586 89 11 0 0 3 5 23 21 10 9 0 0 1 0 0 3 1 0 0 0 0 3
0 0 0 0 0 0 0 0 0 0 1 0 0 0 0 7 8 1 4 0 87 284 553 746 780 613 459 202 128 4 0 16 27 18 8 0 0 0 0 0 17 16 14 1 0 0 0 0 6
0 0 0 0 0 0 0 0 0 0 9 1 0 0 0 0 0 2 4 0 63 235 424 616 550 189 23 7 126 0 0 16 25 25 17 0 0 0 9 17 19 15 21 3 0 0 0 0 2
0 0 0 0 0 0 0 0 0 0 0 0 0 0 0 0 0 0 0 0 0 176 224 380 309 11 0 0 0 0 0 1 10 15 7 0 0 0 0 0 5 22 0 0 0 0 0 0 0
0 0 0 0 0 0 0 0 0 0 0 0 0 0 0 0 0 0 0 0 0 63 135 124 34 0 0 0 0 0 0 0 0 0 0 0 0 0 0 0 0 0 0 0 0 0 0 0 0
0 0 0 0 0 0 0 0 0 0 0 0 0 0 0 0 0 0 0 0 0 0 1 7 0 0 0 0 0 0 0 0 0 0 0 0 0 0 0 0 0 0 0 0 0 0 0 0 0
0 0 0 0 0 0 0 0 0 0 0 0 0 0 0 0 0 0 0 0 0 0 0 0 0 0 0 0 0 0 0 0 0 0 0 0 0 0 0 0 0 0 0 0 0 0 0 0 0
0 0 0 0 0 0 0 0 0 0 0 0 0 0 0 0 0 0 0 0 0 0 0 0 0 0 0 0 0 0 0 0 0 0 0 0 0 0 0 0 0 0 0 0 0 0 0 0 0
0 0 0 0 0 0 0 0 0 0 0 0 0 0 0 0 0 0 0 0 0 0 0 0 0 0 0 0 0 0 0 0 0 0 0 0 0 0 0 0 0 0 0 0 0 0 0 0 0
0 0 0 0 0 0 0 0 0 0 0 0 0 0 0 0 0 0 0 0 0 0 0 0 0 0 0 0 0 0 0 0 0 0 0 0 0 0 0 0 0 0 0 0 0 0 0 0 0
0 0 0 0 0 0 0 0 0 0 0 0 0 0 0 0 0 0 0 0 0 0 0 0 0 0 0 0 0 0 0 0 0 0 0 0 0 0 0 0 0 0 0 0 0 0 0 0 0
4 0 0 0 0 0 0 0 0 0 0 0 0 0 0 0 0 0 0 0 0 0 0 0 0 0 0 0 0 0 0 0 0 0 0 0 0 0 0 0 0 0 0 0 0 0 0 0 0
0 0 0 0 0 0 0 0 0 0 0 0 0 0 0 0 0 0 0 0 0 0 0 0 0 0 0 0 0 0 0 0 0 0 0 0 0 0 0 0 0 3 2 0 0 0 0 0 0
3 0 0 0 0 0 0 0 0 0 0 0 0 0 0 0 0 0 0 0 0 0 0 0 0 0 0 0 0 0 0 0 0 0 0 0 0 0 5 6 5 11 11 12 4 4 0 0 0
3 0 0 0 0 0 0 0 0 0 0 0 0 0 0 0 0 0 0 0 0 0 0 0 0 0 0 0 0 0 0 0 0 1 5 3 0 0 0 0 0 0 4 4 0 0 0 1 3
1 0 0 0 0 0 0 0 0 0 0 0 0 0 0 0 0 0 0 0 0 0 0 0 0 0 0 0 0 0 0 0 0 0 0 0 0 0 0 0 0 0 1 0 1 1 3 13 5
0 0 0 0 0 0 0 0 0 0 0 0 0 0 0 0 0 0 0 0 0 0 0 0 0 0 0 0 0 0 0 0 0 0 0 0 0 0 0 0 0 0 2 5 10 21 21 25 8
0 0 0 0 0 0 0 0 0 0 0 0 0 0 0 0 0 0 0 0 0 0 0 0 0 0 0 0 0 0 0 0 0 0 0 0 0 0 0 0 0 2 6 19 28 36 50 56 36
0 0 0 0 0 0 0 0 0 0 0 0 0 0 0 0 0 0 0 0 0 0 0 0 0 0 0 0 0 0 0 0 0 0 0 0 0 0 0 0 0 0 1 17 38 61 75 102 109
0 0 0 0 0 0 0 0 0 0 0 0 0 0 0 0 0 0 0 0 0 0 0 0 0 0 0 0 0 0 0 0 0 0 0 0 0 0 0 0 0 0 0 0 0 16 95 143 139
0 0 0 0 0 0 0 0 0 0 0 0 0 0 0 0 0 0 0 0 0 0 0 0 0 0 0 0 0 0 0 0 0 0 0 0 0 0 0 0 0 0 0 0 0 0 0 1 14
0 0 0 0 0 0 0 0 0 0 0 0 0 0 0 0 0 0 0 0 0 0 0 0 0 0 0 0 0 0 0 0 0 0 0 0 0 0 0 0 0 0 0 0 0 0 0 0 0
0 0 0 0 0 0 0 0 0 0 0 0 0 0 0 0 0 0 0 0 0 0 0 0 0 0 0 0 0 0 0 0 0 0 0 0 0 0 0 0 0 0 0 0 0 0 0 0 0
0 0 0 0 0 0 0 0 0 0 0 0 0 0 0 0 0 0 0 0 0 0 0 0 0 0 0 0 0 0 0 0 0 0 0 0 0 0 0 0 0 0 0 0 0 0 0 0 0
0 0 0 0 0 0 0 0 0 0 0 0 0 0 0 0 0 0 0 0 0 0 0 0 0 0 0 0 0 0 0 0 0 0 0 0 0 0 0 0 0 0 0 0 0 0 0 0 0

GFSSGP_con_mucape_009.txt.gz
CAPE
12 0 0 0 0 0 0 0 0 34 30 24 10 11 2 0 0 0 0 12 32 59 133 409 934 776 545 298 57 10 0 0 0 5 7 40 30 33 20 18 22 27 19 3 2 2 23 15 43
0 0 0 0 0 0 0 0 0 10 26 20 26 9 3 0 0 1 0 27 75 119 281 364 987 888 685 308 23 6 0 0 0 1 15 39 25 21 25 10 1 4 2 3 6 3 5 4 34
0 0 0 0 0 0 0 0 0 0 15 35 15 4 0 0 0 6 10 47 98 201 293 381 1080 979 480 256 17 0 0 0 1 0 29 57 41 29 25 10 2 0 4 1 9 6 1 0 1
0 0 0 0 0 0 0 0 0 8 26 22 0 1 0 0 0 17 19 110 149 232 295 444 1312 827 475 209 52 0 0 0 0 12 17 70 28 22 16 2 0 0 0 0 1 0 2 0 0
0 0 0 0 0 0 0 0 0 1 13 2 0 0 0 0 5 21 35 119 129 190 285 660 1272 933 507 195 30 0 0 0 0 36 32 31 42 22 5 0 0 0 0 0 0 0 0 0 1
0 0 0 0 0 0 0 0 0 1 0 0 0 0 0 3 20 25 26 100 112 111 305 769 1123 1106 840 364 51 0 0 0 0 3 17 16 27 13 1 8 3 2 3 1 0 0 0 2 3
0 0 0 0 0 0 0 0 0 0 1 0 0 0 0 0 1 10 29 39 97 83 269 683 923 833 788 506 341 181 0 0 10 21 18 19 22 6 2 1 1 12 10 15 8 1 0 0 2
0 0 0 0 0 0 0 0 0 0 0 0 0 0 0 0 0 0 5 4 41 80 279 572 813 753 476 164 356 206 27 12 29 24 15 7 0 0 9 24 0 6 16 17 15 1 0 0 0
0 0 0 0 0 0 0 0 0 0 0 0 0 0 0 0 0 0 0 0 2 111 301 448 610 544 398 73 40 146 30 5 0 5 2 1 0 0 0 0 0 0 12 24 21 6 1 0 0
0 0 0 0 0 0 0 0 0 0 0 0 0 0 0 0 0 0 0 0 0 53 229 396 417 355 216 17 0 0 0 0 0 0 0 0 0 0 0 0 0 0 0 13 7 5 6 5 0
0 0 0 0 0 0 0 0 0 0 0 0 0 0 0 0 0 0 0 0 0 0 90 156 245 226 57 0 0 0 0 0 0 0 0 0 0 0 0 0 0 0 0 0 0 0 0 0 0
0 0 0 0 0 0 0 0 0 0 0 0 0 0 0 0 0 0 0 0 0 0 0 69 100 30 0 0 0 0 0 0 0 0 0 0 0 0 0 0 0 0 0 0 0 0 0 0 0
0 0 0 0 0 0 0 0 0 0 0 0 0 0 0 0 0 0 0 0 0 0 0 0 0 1 0 0 0 0 0 0 0 0 0 0 0 0 0 0 0 0 0 0 0 0 0 0 0
0 0 0 0 0 0 0 0 0 0 0 0 0 0 0 0 0 0 0 0 0 0 0 0 0 0 0 0 0 0 0 0 0 0 0 0 0 0 0 0 0 0 0 0 0 0 0 0 0
0 0 0 0 0 0 0 0 0 0 0 0 0 0 0 0 0 0 0 0 0 0 0 0 0 0 0 0 0 0 0 0 0 0 0 0 0 0 0 0 0 0 0 0 0 0 0 0 0
1 4 0 0 0 0 0 0 0 0 0 0 0 0 0 0 0 0 0 0 0 0 0 0 0 0 0 0 0 0 0 0 0 0 0 0 0 0 0 0 0 0 0 0 0 0 0 0 0
6 0 0 0 0 0 0 0 0 0 0 0 0 0 0 0 0 0 0 0 0 0 0 0 0 0 0 0 0 0 0 0 0 0 0 0 0 0 0 0 0 0 0 0 2 2 0 0 0
0 0 0 0 0 0 0 0 0 0 0 0 0 0 0 0 0 0 0 0 0 0 0 0 0 0 0 0 0 0 0 0 0 0 0 0 0 0 0 0 0 0 0 0 0 0 0 0 0
1 0 0 0 0 0 0 0 0 0 0 0 0 0 0 0 0 0 0 0 0 0 0 0 0 0 0 0 0 0 0 0 0 0 0 0 0 0 0 1 4 4 3 1 2 3 2 1 2
15 0 0 0 0 0 0 0 0 0 0 0 0 0 0 0 0 0 0 0 0 0 0 0 0 0 0 0 0 0 0 0 0 0 0 0 0 0 0 5 5 5 5 1 0 6 11 15 16
10 0 0 0 0 0 0 0 0 0 0 0 0 0 0 0 0 0 0 0 0 0 0 0 0 0 0 0 0 0 0 0 0 0 0 0 0 0 0 0 0 0 0 0 0 5 14 23 22
14 5 1 0 0 0 0 0 0 0 0 0 0 0 0 0 0 0 0 0 0 0 0 0 0 0 0 0 0 0 0 0 0 0 0 0 0 0 0 0 0 0 0 1 2 3 13 25 24
0 10 0 0 0 0 0 0 0 0 0 0 0 0 0 0 0 0 0 0 0 0 0 0 0 0 0 0 0 0 0 0 0 0 0 0 0 0 0 0 0 0 0 0 0 0 29 51 67
2 0 0 0 0 0 0 0 0 0 0 0 0 0 0 0 0 0 0 0 0 0 0 0 0 0 0 0 0 0 0 0 0 0 0 0 0 0 0 0 0 0 0 0 0 0 0 0 26
0 0 0 0 0 0 0 0 0 0 0 0 0 0 0 0 0 0 0 0 0 0 0 0 0 0 0 0 0 0 0 0 0 0 0 0 0 0 0 0 0 0 0 0 0 0 0 0 0
0 0 0 0 0 0 0 0 0 0 0 0 0 0 0 0 0 0 0 0 0 0 0 0 0 0 0 0 0 0 0 0 0 0 0 0 0 0 0 0 0 0 0 0 0 0 0 0 0
0 0 0 0 0 0 0 0 0 0 0 0 0 0 0 0 0 0 0 0 0 0 0 0 0 0 0 0 0 0 0 0 0 0 0 0 0 0 0 0 0 0 0 0 0 0 0 0 0
0 0 0 0 0 0 0 0 0 0 0 0 0 0 0 0 0 0 0 0 0 0 0 0 0 0 0 0 0 0 0 0 0 0 0 0 0 0 0 0 0 0 0 0 0 0 0 0 0
0 0 0 0 0 0 0 0 0 0 0 0 0 0 0 0 0 0 0 0 0 0 0 0 0 0 0 0 0 0 0 0 0 0 0 0 0 0 0 0 0 0 0 0 0 0 0 0 0
0 0 0 0 0 0 0 0 0 0 0 0 0 0 0 0 0 0 0 0 0 0 0 0 0 0 0 0 0 0 0 0 0 0 0 0 0 0 0 0 0 0 0 0 0 0 0 0 0

GFSSGP_con_mucape_012.txt.gz
CAPE
2 0 0 0 0 0 0 0 0 8 31 31 23 7 8 0 0 0 0 0 0 26 37 387 1046 747 632 355 233 23 1 0 0 0 0 16 25 32 14 20 24 24 9 2 5 0 7 4 32
0 0 0 0 0 0 0 0 0 0 15 10 14 16 10 3 0 0 0 3 19 43 70 316 965 770 583 484 250 36 4 0 0 0 1 54 35 10 6 6 1 6 4 3 1 4 3 3 16
0 0 0 0 0 0 0 0 0 0 0 13 17 1 4 0 1 0 4 8 51 96 181 286 961 896 750 464 224 64 0 0 0 0 0 52 20 21 31 6 1 0 0 1 0 11 10 1 3
0 0 0 0 0 0 0 0 0 0 0 13 10 1 1 0 3 5 4 18 70 136 228 296 947 991 690 449 213 64 0 1 0 0 13 54 38 22 30 7 0 2 0 0 0 10 6 7 0
0 0 0 0 0 0 0 0 0 0 0 8 0 0 0 0 7 13 33 69 92 147 202 257 744 997 639 496 286 81 0 0 0 17 22 36 53 34 11 0 0 0 0 1 1 0 5 3 1
0 0 0 0 0 0 0 0 0 0 0 11 0 0 0 0 3 10 45 99 107 139 189 276 939 1074 881 522 304 122 0 0 0 6 15 16 18 38 2 0 0 0 4 6 8 6 1 1 9
0 0 0 0 0 0 0 0 0 0 7 15 0 0 0 0 0 0 26 82 108 104 185 359 816 826 834 682 506 289 20 5 0 2 14 9 13 6 3 2 9 3 12 22 32 25 19 6 3
0 0 0 0 0 0 0 0 0 0 3 0 0 0 0 0 0 0 4 31 77 106 142 341 653 706 583 446 513 426 303 88 48 43 26 9 4 0 5 12 18 0 11 33 30 35 27 17 5
0 0 0 0 0 0 0 0 0 0 0 0 0 0 0 0 0 1 3 2 36 65 116 243 458 665 566 422 195 359 264 78 30 12 8 4 0 0 0 0 0 4 8 15 32 43 32 35 19
0 0 0 0 0 0 0 0 0 0 0 0 0 5 0 0 0 1 1 1 0 26 111 198 329 485 546 414 194 58 14 0 0 0 0 0 0 0 0 0 0 0 17 17 12 20 36 29 1
0 0 0 0 0 0 0 0 0 0 0 0 0 0 0 0 0 0 0 0 0 0 43 164 242 312 341 287 154 3 0 0 0 0 0 0 0 0 0 0 0 0 0 0 0 0 0 0 0
0 0 0 0 0 0 0 0 0 0 0 0 0 0 0 0 0 0 0 0 0 0 0 36 135 251 212 152 43 0 0 0 0 0 0 0 0 0 0 0 0 0 0 0 0 0 0 0 0
0 0 0 0 0 0 0 0 0 0 0 0 0 0 0 0 0 0 0 0 0 0 0 0 11 90 116 68 3 0 0 0 0 0 0 0 0 0 0 0 0 0 0 0 0 0 0 0 0
0 0 0 0 0 0 0 0 0 0 0 0 0 0 0 0 0 0 0 0 0 0 0 0 0 0 14 6 0 0 0 0 0 0 0 0 0 0 0 0 0 0 0 0 0 0 0 0 0
6 0 0 0 0 0 0 0 0 0 0 0 0 0 0 0 0 0 0 0 0 0 0 0 0 0 0 0 0 0 0 0 0 0 0 0 0 0 0 0 0 0 0 0 0 0 0 0 0
13 5 0 0 0 0 0 0 0 0 0 0 0 0 0 0 0 0 0 0 0 0 0 0 0 0 0 0 0 0 0 0 0 0 0 0 0 0 0 0 0 0 0 0 0 0 0 0 0
11 0 0 0 0 0 0 0 0 0 0 0 0 0 0 0 0 0 0 0 0 0 0 0 0 0 0 0 0 0 0 0 0 0 0 0 0 0 0 0 0 0 0 0 2 2 8 6 4
0 0 0 0 0 0 0 0 0 0 0 0 0 0 0 0 0 0 0 0 0 0 0 0 0 0 0 0 0 0 0 0 0 0 0 0 0 0 0 0 0 5 9 5 5 7 15 11 10
3 0 0 0 0 0 0 0 0 0 0 0 0 0 0 0 0 0 0 0 0 0 0 0 0 0 0 0 0 0 0 0 0 0 0 0 0 0 0 7 9 1 0 0 0 5 4 0 0
6 11 0 0 0 0 0 0 0 0 0 0 0 0 0 0 0 0 0 0 0 0 0 0 0 0 0 0 0 0 0 0 0 0 0 0 0 0 0 0 0 0 0 0 0 0 0 5 0
0 0 0 0 0 0 0 0 0 0 0 0 0 0 0 0 0 0 0 0 0 0 0 0 0 0 0 0 0 0 0 0 0 0 0 0 0 0 0 0 0 0 0 0 0 1 5 0 0
0 0 10 5 0 0 0 0 0 0 0 0 0 0 0 0 0 0 0 0 0 0 0 0 0 0 0 0 0 0 0 0 0 0 0 0 0 0 0 0 0 0 0 0 0 0 0 5 20
0 11 17 19 2 0 0 0 0 0 0 0 0 0 0 0 0 0 0 0 0 0 0 0 0 0 0 0 0 0 0 0 0 0 0 0 0 0 0 0 0 0 0 0 0 0 0 0 0
0 15 16 6 0 0 0 0 0 0 0 0 0 0 0 0 0 0 0 0 0 0 0 0 0 0 0 0 0 0 0 0 0 0 0 0 0 0 0 0 0 0 0 0 0 0 0 0 0
1 0 0 0 0 0 0 0 0 0 0 0 0 0 0 0 0 0 0 0 0 0 0 0 0 0 0 0 0 0 0 0 0 0 0 0 0 0 0 0 0 0 0 0 0 0 0 0 0
1 0 0 0 0 0 0 0 0 0 0 0 0 0 0 0 0 0 0 0 0 0 0 0 0 0 0 0 0 0 0 0 0 0 0 0 0 0 0 0 0 0 0 0 0 0 0 0 0
10 0 0 0 0 0 0 0 0 0 0 0 0 0 0 0 0 0 0 0 0 0 0 0 0 0 0 0 0 0 0 0 0 0 0 0 0 0 0 0 0 0 0 0 0 0 0 0 0
0 0 0 0 0 0 0 0 0 0 0 0 0 0 0 0 0 0 0 0 0 0 0 0 0 0 0 0 0 0 0 0 0 0 0 0 0 0 0 0 0 0 0 0 0 0 0 0 0
0 0 0 0 0 0 0 0 0 0 0 0 0 0 0 0 0 0 0 0 0 0 0 0 0 0 0 0 0 0 0 0 0 0 0 0 0 0 0 0 0 0 0 0 0 0 0 0 0
0 0 0 0 0 0 0 0 0 0 0 0 0 0 0 0 0 0 0 0 0 0 0 0 0 0 0 0 0 0 0 0 0 0 0 0 0 0 0 0 0 0 0 0 0 0 0 0 0

GFSSGP_con_mucape_015.txt.gz
CAPE
0 0 0 0 0 0 0 0 0 0 8 18 15 0 0 0 0 0 0 0 0 22 23 452 1204 953 649 343 231 77 17 0 0 0 0 3 14 17 12 15 10 13 12 1 0 0 4 10 5
0 0 0 0 0 0 0 0 0 0 0 6 2 0 0 0 0 0 0 0 1 30 63 370 1261 892 665 440 304 133 24 0 0 0 3 13 30 11 2 0 0 7 2 3 0 0 3 13 6
0 0 0 0 0 0 0 0 0 0 0 5 5 3 0 0 0 0 0 1 39 50 91 317 1050 975 739 577 366 158 22 0 0 0 13 51 35 18 6 3 0 0 0 0 0 1 4 9 2
0 0 0 0 0 0 0 0 0 0 0 0 10 21 12 2 3 4 2 9 72 99 153 331 988 961 981 492 309 165 34 0 0 0 6 36 57 21 8 0 0 0 0 0 0 0 14 10 8
0 0 0 0 0 0 0 0 0 0 0 0 1 7 7 7 0 1 29 27 86 150 227 273 670 866 941 486 290 173 40 0 0 5 22 23 87 32 4 0 0 0 0 0 2 2 1 11 12
0 0 0 0 0 0 0 0 0 0 0 0 0 0 0 2 2 0 29 74 90 169 221 246 571 1125 953 629 383 238 60 0 0 1 23 29 23 14 11 1 0 0 2 10 11 12 4 2 4
0 0 0 0 0 0 0 0 0 0 0 0 0 0 0 0 0 0 29 65 104 147 213 264 369 882 872 788 588 455 195 24 14 11 12 5 8 2 1 0 6 18 19 10 22 38 33 30 17
0 0 0 0 0 0 0 0 0 0 0 2 0 7 0 0 0 0 0 36 81 108 193 283 386 838 782 614 515 481 373 242 145 69 30 15 6 0 7 15 17 22 21 20 36 38 43 37 39
0 0 0 0 0 0 0 0 0 0 0 4 1 5 3 1 0 0 0 0 26 66 119 238 386 698 676 532 372 399 314 220 73 20 10 5 2 0 0 0 0 0 11 14 18 32 44 50 42
0 0 0 0 0 0 0 0 0 0 0 0 0 1 3 10 4 0 0 0 0 21 96 183 298 495 580 430 371 314 225 135 5 0 0 0 0 0 0 0 0 0 0 0 0 1 4 18 7
0 0 0 0 0 0 0 0 0 0 0 0 0 0 1 2 0 0 0 0 0 0 23 134 185 316 410 454 340 264 123 37 0 0 0 0 0 0 0 0 0 0 0 0 0 0 0 0 0
0 0 0 0 0 0 0 0 0 0 0 0 0 0 0 0 0 0 0 0 0 0 0 26 167 226 265 279 254 176 95 0 0 0 0 0 0 0 0 0 0 0 0 0 0 0 0 0 0
0 0 0 0 0 0 0 0 0 0 0 0 0 0 0 0 0 0 0 0 0 0 0 0 20 159 190 248 199 124 25 0 0 0 0 0 0 0 0 0 0 0 0 0 0 0 0 0 0
0 0 0 0 0 0 0 0 0 0 0 0 0 0 0 0 0 0 0 0 0 0 0 0 0 12 77 94 104 59 2 0 0 0 0 0 0 0 0 0 0 0 0 0 0 0 0 0 0
0 0 0 0 0 0 0 0 0 0 0 0 0 0 0 0 0 0 0 0 0 0 0 0 0 0 0 27 22 19 0 0 0 0 0 0 0 0 0 0 0 0 0 0 0 0 0 0 0
14 18 0 0 0 0 0 0 0 0 0 0 0 0 0 0 0 0 0 0 0 0 0 0 0 0 0 0 0 0 0 0 0 0 0 0 0 0 0 0 0 0 0 0 0 0 0 0 2
15 0 0 0 0 0 0 0 0 0 0 0 0 0 0 0 0 0 0 0 0 0 0 0 0 0 0 0 0 0 0 0 0 0 0 0 0 0 0 0 0 0 0 4 0 0 0 0 0
0 0 0 0 0 0 0 0 0 0 0 0 0 0 0 0 0 0 0 0 0 0 0 0 0 0 0 0 0 0 0 0 0 0 0 0 0 0 0 0 0 0 0 0 0 0 0 0 0
0 0 0 0 0 0 0 0 0 0 0 0 0 0 0 0 0 0 0 0 0 0 0 0 0 0 0 0 0 0 0 0 0 0 0 0 0 0 0 0 0 0 0 0 0 0 0 5 13
0 0 0 0 0 0 0 0 0 0 0 0 0 0 0 0 0 0 0 0 0 0 0 0 0 0 0 0 0 0 0 0 0 0 0 0 0 0 0 0 0 0 0 0 0 0 0 2 4
0 0 0 0 0 0 0 0 0 0 0 0 0 0 0 0 0 0 0 0 0 0 0 0 0 0 0 0 0 0 0 0 0 0 0 0 0 0 0 0 0 0 0 0 0 0 0 0 0
0 0 0 0 0 0 0 0 0 0 0 0 0 0 0 0 0 0 0 0 0 0 0 0 0 0 0 0 0 0 0 0 0 0 0 0 0 0 0 0 0 0 0 0 0 0 0 0 0
0 0 6 11 10 1 0 0 0 0 0 0 0 0 0 0 0 0 0 0 0 0 0 0 0 0 0 0 0 0 0 0 0 0 0 0 0 0 0 0 0 0 0 0 0 0 0 0 0
1 4 6 2 19 0 0 0 0 0 0 0 0 0 0 0 0 0 0 0 0 0 0 0 0 0 0 0 0 0 0 0 0 0 0 0 0 0 0 0 0 0 0 0 0 0 0 0 0
20 0 0 0 0 0 0 0 0 0 0 0 0 0 0 0 0 0 0 0 0 0 0 0 0 0 0 0 0 0 0 0 0 0 0 0 0 0 0 0 0 0 0 0 0 0 0 0 0
15 0 4 0 0 0 0 0 0 0 0 0 0 0 0 0 0 0 0 0 0 0 0 0 0 0 0 0 0 0 0 0 0 0 0 0 0 0 0 0 0 0 0 0 0 0 0 0 0
24 0 0 0 0 0 0 0 0 0 0 0 0 0 0 0 0 0 0 0 0 0 0 0 0 0 0 0 0 0 0 0 0 0 0 0 0 0 0 0 0 0 0 0 0 0 0 0 0
5 0 3 0 0 0 0 0 0 0 0 0 0 0 0 0 0 0 0 0 0 0 0 0 0 0 0 0 0 0 0 0 0 0 0 0 0 0 0 0 0 0 0 0 0 0 0 0 0
2 0 0 0 0 0 0 0 0 0 0 0 0 0 0 0 0 0 0 0 0 0 0 0 0 0 0 0 0 0 0 0 0 0 0 0 0 0 0 0 0 0 0 0 0 0 0 0 0
12 0 0 0 0 0 0 0 0 0 0 0 0 0 0 0 0 0 0 0 0 0 0 0 0 0 0 0 0 0 0 0 0 0 0 0 0 0 0 0 0 0 0 0 0 0 0 0 0

GFSSGP_con_mucape_018.txt.gz
CAPE
1 0 0 0 0 0 0 0 0 0 0 0 0 0 0 0 0 0 0 38 0 31 4 490 1322 1000 628 332 222 159 66 7 0 0 0 5 18 16 4 13 5 9 2 0 0 0 5 9 7
0 0 0 0 0 0 0 0 0 0 0 0 0 0 0 0 0 0 0 18 19 35 22 350 1365 1025 843 435 308 167 56 6 0 0 0 12 33 15 18 0 0 1 0 0 0 0 0 1 14
0 0 0 0 0 0 0 0 0 0 0 0 0 0 0 0 0 0 1 27 47 57 63 179 1395 1024 865 580 354 189 85 23 0 0 0 12 62 13 3 1 0 0 0 0 0 0 0 4 11
0 0 0 0 0 0 0 0 0 0 0 0 0 0 0 7 2 0 8 40 60 72 96 397 1270 1007 973 783 449 219 100 34 0 0 0 15 97 32 13 0 0 0 0 0 0 0 6 11 12
0 0 0 0 0 0 0 0 0 0 0 0 0 0 0 0 1 0 37 60 66 90 113 172 823 1051 987 742 342 237 116 15 0 0 11 25 33 133 17 0 0 0 0 0 0 3 2 0 4
0 0 0 0 0 0 0 0 0 0 0 0 0 0 0 0 1 6 88 86 80 130 149 104 506 1041 1210 743 392 263 136 40 3 0 14 28 72 15 6 4 0 0 4 8 14 14 15 10 4
0 0 0 0 0 0 0 0 0 0 0 0 0 0 0 0 1 21 116 103 124 146 165 125 132 386 948 928 748 459 231 116 11 0 13 16 4 0 0 0 5 16 32 18 20 28 39 40 37
0 0 0 0 0 0 0 0 0 0 0 0 0 5 0 0 0 6 72 106 139 177 201 171 181 318 694 623 619 580 462 316 224 187 76 16 0 0 0 1 8 0 13 14 2 7 32 44 41
0 0 0 0 0 0 0 0 0 0 0 0 0 1 0 0 0 1 8 37 96 143 249 299 264 372 561 521 441 424 358 291 201 76 13 0 2 6 1 0 0 0 0 0 0 0 0 11 16
0 0 0 0 0 0 0 0 0 0 0 0 0 0 6 4 1 0 1 12 44 106 203 313 405 410 575 489 494 451 287 238 132 26 2 0 0 2 0 0 0 0 0 0 0 0 0 0 2
0 0 0 0 0 0 0 0 0 0 0 0 0 0 4 6 0 0 0 0 0 16 91 194 366 458 524 581 529 427 353 247 143 55 4 0 0 0 0 0 0 0 0 0 0 0 0 0 0
0 0 0 0 0 0 0 0 0 0 0 0 0 0 0 0 0 0 0 0 0 0 1 45 197 378 473 553 563 456 373 288 200 74 3 0 0 0 0 0 0 0 0 0 0 0 0 0 1
0 1 0 0 0 0 0 0 0 0 0 0 0 0 0 0 0 0 0 0 0 2 9 11 44 192 350 496 498 490 374 276 163 112 11 0 0 0 0 0 0 0 0 0 1 1 1 0 1
2 0 0 0 0 0 0 0 0 0 0 0 0 0 0 0 0 0 0 0 0 0 0 1 2 22 165 347 440 436 369 255 165 70 16 0 0 0 0 0 0 0 0 0 0 0 0 0 0
40 16 1 0 0 0 0 0 0 0 0 0 0 0 0 0 0 0 0 0 0 0 0 0 0 0 46 181 273 343 315 156 122 36 0 0 0 0 0 0 0 0 1 0 0 0 0 3 4
47 50 58 0 3 0 0 0 0 0 0 0 0 0 0 0 0 0 0 0 0 0 0 0 0 0 0 87 134 149 97 64 39 2 0 0 0 0 0 0 1 1 0 0 0 0 9 12 14
27 46 24 4 0 0 0 0 0 0 0 0 0 0 0 0 0 0 0 0 0 0 0 0 0 0 0 12 18 6 0 0 0 0 0 0 0 0 0 0 0 0 0 0 3 4 5 7 10
1 41 2 11 0 0 0 0 0 0 0 0 0 0 0 0 0 0 0 0 0 0 0 0 0 0 0 0 1 0 0 1 2 1 1 0 0 0 0 0 0 0 0 0 0 0 0 1 6
0 0 0 11 0 0 0 0 0 0 0 0 0 0 0 0 0 0 0 0 0 0 0 0 0 2 5 40 47 0 0 0 0 0 0 0 0 0 0 0 0 0 0 0 0 0 0 0 0
0 0 0 10 0 0 0 0 0 0 0 0 0 0 0 0 0 0 0 0 0 0 0 0 0 0 3 18 0 0 0 0 0 0 0 0 0 0 0 0 0 0 0 0 0 0 0 0 0
0 0 0 2 0 0 0 0 0 0 0 0 0 0 0 0 0 0 0 0 0 0 0 0 0 0 0 0 0 0 0 0 0 0 0 0 0 0 0 0 0 0 0 0 0 0 0 0 0
4 0 0 0 31 30 0 0 0 0 0 0 0 0 0 0 0 0 0 0 0 0 0 0 0 0 0 0 0 0 0 0 0 0 0 0 0 0 0 0 0 0 0 0 0 0 0 0 0
4 16 2 32 22 0 3 0 0 0 0 0 0 0 0 0 0 0 0 0 0 0 0 0 0 0 0 0 0 0 0 0 0 0 0 0 0 0 0 0 0 0 0 0 0 0 0 0 0
14 6 0 4 13 0 1 0 0 0 0 0 0 0 0 0 0 0 0 0 0 0 0 0 0 0 0 0 0 0 0 0 0 0 0 0 0 0 0 0 0 0 0 0 0 0 0 0 0
14 53 38 0 0 0 0 0 0 0 0 0 0 0 0 0 0 0 0 0 0 0 0 0 0 0 0 0 0 0 0 0 0 0 0 0 0 0 0 0 0 0 0 0 0 0 0 0 0
1 18 16 0 0 0 0 0 0 0 0 0 0 0 0 0 0 0 0 0 0 0 0 0 0 0 0 0 0 0 0 0 0 0 0 0 0 0 0 0 0 0 0 0 0 0 0 0 0
0 14 0 0 0 0 0 0 0 0 0 0 0 0 0 0 0 0 0 0 0 0 0 0 0 0 0 0 0 0 0 0 0 0 0 0 0 0 0 0 0 0 0 0 0 0 0 0 0
2 1 0 0 0 0 0 0 0 0 0 0 0 0 0 0 0 0 0 0 0 0 0 0 0 0 0 0 0 0 0 0 0 0 0 0 0 0 0 0 0 0 0 0 0 0 0 0 0
0 7 0 0 0 0 0 0 0 0 0 0 0 0 0 0 0 0 0 0 0 0 0 0 0 0 0 0 0 0 0 0 0 0 0 0 0 0 0 0 0 0 0 0 0 0 0 0 0
0 0 1 0 0 0 0 0 0 0 0 0 0 0 0 0 0 0 0 0 0 0 0 0 0 0 0 0 0 0 0 0 0 0 0 0 0 0 0 0 0 0 0 0 0 0 0 0 0

GFSSGP_con_mucape_021.txt.gz
CAPE
6 0 0 0 0 0 0 0 11 9 8 0 0 0 0 0 0 0 0 14 0 0 29 642 1382 1356 675 262 165 143 42 0 0 0 0 1 12 12 1 19 13 23 6 0 0 0 0 3 19
0 0 0 0 0 0 0 0 0 0 0 0 0 0 0 0 0 0 28 13 0 0 26 125 1518 1101 704 377 326 171 89 17 0 0 0 5 18 15 16 0 0 4 5 0 0 0 0 0 4
0 0 0 0 0 0 0 0 3 0 0 0 3 0 0 0 0 0 3 19 4 0 17 852 1526 1150 981 608 346 158 92 14 0 0 0 10 37 51 8 6 0 0 0 0 0 0 0 0 0
0 0 0 0 0 0 0 0 0 0 0 0 0 0 0 0 0 16 23 20 19 17 40 859 1549 1166 988 717 440 174 99 61 0 0 0 15 20 116 16 0 0 0 0 0 0 0 0 0 8
0 0 0 0 0 0 0 0 0 0 0 0 0 0 0 0 0 3 45 28 37 43 66 403 1336 1069 941 935 461 215 111 23 0 0 3 28 51 173 17 5 0 0 0 0 1 1 0 0 0
0 0 0 0 0 0 0 0 0 0 0 0 0 0 0 0 21 33 59 33 40 66 79 126 765 1156 996 984 410 260 134 38 6 0 4 34 78 72 21 12 0 0 0 3 6 18 18 14 6
0 1 0 0 1 3 0 0 0 0 0 0 0 0 4 0 0 41 79 46 62 100 105 96 100 383 826 956 721 423 196 73 26 1 0 10 1 0 0 0 0 0 2 16 0 1 16 18 15
2 4 2 0 0 0 0 0 0 0 0 0 0 0 21 0 0 29 73 58 80 130 142 120 145 179 518 482 650 517 468 298 154 147 102 10 0 0 0 0 0 0 0 0 0 0 0 0 3
0 6 5 0 0 0 0 0 0 0 0 0 0 0 0 0 0 12 38 50 68 99 198 200 195 260 473 458 560 419 332 248 168 90 16 0 0 0 1 0 0 0 0 0 0 0 0 0 0
0 2 0 0 1 0 1 0 0 0 0 0 0 0 0 0 0 3 1 15 67 80 148 268 286 296 452 357 457 389 302 203 144 65 20 13 0 0 0 0 0 0 0 0 0 0 0 0 0
29 7 1 0 2 0 0 0 0 0 0 0 0 0 0 0 2 7 6 0 1 36 108 164 308 356 414 501 406 391 277 196 115 43 7 0 0 0 0 0 0 0 0 0 0 0 0 0 0
45 22 1 9 3 0 0 0 0 0 0 0 0 0 0 0 2 9 4 0 0 0 6 69 130 317 370 471 467 399 310 250 172 76 14 0 0 0 0 0 0 0 0 0 0 0 0 0 0
40 24 15 4 6 0 0 0 0 0 0 0 0 0 0 0 0 0 0 0 0 0 13 20 51 158 292 406 447 446 351 287 199 168 90 11 0 0 0 0 0 0 0 0 0 0 0 3 6
27 24 14 23 8 0 0 0 0 0 0 0 0 0 0 0 0 0 0 0 0 0 9 20 27 39 123 293 419 420 402 304 248 182 151 60 10 2 2 1 3 3 4 4 6 6 10 13 10
78 42 23 31 27 0 1 0 0 0 0 0 0 0 0 0 0 0 0 0 0 0 0 0 0 1 52 188 338 426 421 304 265 215 133 51 12 3 3 3 5 11 14 12 9 11 30 25 38
49 155 33 20 18 0 1 0 0 0 0 0 0 0 0 0 0 0 0 0 0 0 0 0 0 0 0 136 277 354 353 273 233 159 77 26 6 3 4 9 9 15 31 39 57 5 12 8 7
104 55 31 28 14 0 6 0 0 0 0 0 0 0 0 0 0 0 0 0 0 0 0 0 0 0 3 152 223 196 121 86 47 18 12 7 6 4 5 5 2 0 0 0 0 0 0 0 0
13 44 38 34 7 4 1 0 0 0 0 0 0 0 0 0 0 0 0 0 0 0 0 0 4 14 46 82 76 84 80 14 0 0 0 0 0 0 0 0 0 0 0 0 0 0 0 0 0
59 70 31 38 0 19 7 0 0 0 0 0 0 0 0 0 0 0 0 0 0 0 0 0 7 33 74 119 99 0 0 0 0 0 0 0 0 0 0 0 0 0 0 0 0 0 0 0 0
27 62 53 19 15 3 0 0 0 0 0 0 0 0 0 0 0 0 0 0 0 0 0 0 0 16 17 0 0 0 0 0 0 0 0 0 0 0 0 0 0 0 0 0 0 0 0 0 0
40 79 19 13 29 0 0 0 0 0 0 0 0 0 0 0 0 0 0 0 0 0 0 0 0 0 0 0 0 0 0 0 0 0 0 0 0 0 0 0 0 0 0 0 0 0 0 0 0
177 33 22 2 18 13 14 0 0 0 0 0 0 0 0 0 0 0 0 0 0 0 0 0 0 0 0 0 0 0 0 0 0 0 0 0 0 0 0 0 0 0 0 0 0 0 0 0 0
51 46 12 24 31 20 11 9 0 0 0 0 0 0 0 0 0 0 0 0 0 0 0 0 0 0 0 0 0 0 0 0 0 0 0 0 0 0 0 0 0 0 0 0 0 0 0 0 0
43 22 45 0 23 11 0 9 0 0 0 0 0 0 0 0 0 0 0 0 0 0 0 0 0 0 0 0 0 0 0 0 0 0 0 0 0 0 0 0 0 0 0 0 0 0 0 0 0
28 50 48 0 0 0 0 13 5 0 0 0 0 0 0 0 0 0 0 0 0 0 0 0 0 0 0 0 0 0 0 0 0 0 0 0 0 0 0 0 0 0 0 0 0 0 0 0 0
21 1 0 0 0 0 0 0 0 0 0 0 0 0 0 0 0 0 0 0 0 0 0 0 0 0 0 0 0 0 0 0 0 0 0 0 0 0 0 0 0 0 0 0 0 0 0 0 0
22 63 5 4 0 35 0 0 0 0 0 0 0 0 0 0 0 0 0 0 0 0 0 0 0 0 0 0 0 0 0 0 0 0 0 0 0 0 0 0 0 0 0 0 0 0 0 0 0
4 18 2 0 0 0 0 0 0 0 0 0 0 0 0 0 0 0 0 0 0 0 0 0 0 0 0 0 0 0 0 0 0 0 0 0 0 0 0 0 0 0 0 0 0 0 0 0 0
1 31 15 2 0 36 9 1 0 0 0 0 0 0 0 0 0 0 0 0 0 0 0 0 0 0 0 0 0 0 0 0 0 0 0 0 0 0 0 0 0 0 0 0 0 0 0 0 0
6 9 25 35 0 0 0 0 0 0 0 0 0 0 0 0 0 0 0 0 0 0 0 0 0 0 0 0 0 0 0 0 0 0 0 0 0 0 0 0 0 0 0 0 0 0 0 0 0

GFSSGP_con_mucape_024.txt.gz
CAPE
41 0 0 0 0 0 0 0 0 3 13 13 1 1 0 0 0 0 4 0 0 160 681 1337 1640 1331 788 485 168 98 30 0 0 0 0 1 4 5 1 3 11 24 8 1 0 1 6 18 21
1 0 0 0 0 0 0 0 4 0 0 0 0 14 1 0 0 0 38 0 0 29 552 765 1616 1386 827 507 276 154 56 6 0 0 0 9 21 17 9 0 0 0 0 0 0 0 0 0 0
18 0 0 0 0 0 0 0 0 0 0 0 0 2 9 0 0 0 21 0 0 1 101 664 1712 1504 1042 699 359 169 84 0 0 0 0 14 21 40 3 5 0 0 0 0 0 0 0 0 0
0 0 0 0 0 0 0 0 0 0 0 0 0 5 10 0 0 0 18 0 15 0 996 1399 1578 1553 1460 1149 323 148 93 45 0 0 0 11 14 110 20 6 0 0 0 0 0 0 0 0 0
0 0 0 0 0 0 0 0 0 0 0 0 0 7 0 0 0 14 28 21 19 74 714 1226 1598 1497 1296 1076 467 196 92 28 0 0 0 30 42 94 28 9 0 0 0 0 0 0 0 0 0
0 0 0 0 0 0 0 0 0 0 0 0 0 0 0 0 0 14 34 22 40 47 296 790 1314 1346 1268 1133 564 281 110 28 4 0 0 12 36 30 62 17 0 0 0 0 0 0 2 13 5
0 0 0 0 0 0 3 0 0 0 0 0 0 0 0 0 0 47 48 24 54 69 100 186 690 897 843 1094 706 558 224 84 36 1 0 5 3 0 0 0 0 0 0 0 0 0 0 1 9
0 0 0 0 0 0 0 0 0 0 0 0 0 0 0 0 0 45 63 58 76 99 92 98 87 285 293 674 672 561 425 228 103 65 30 3 0 0 6 5 20 0 0 0 0 0 0 0 0
16 0 0 0 0 0 0 0 0 0 0 0 0 0 0 0 0 3 40 67 72 101 109 97 97 152 345 481 449 498 379 253 130 59 29 4 0 0 0 0 0 0 0 0 0 0 0 0 0
5 0 0 0 0 0 0 0 0 0 0 0 0 0 0 0 0 0 6 54 65 72 121 166 150 180 342 356 471 293 166 136 84 52 23 0 0 0 0 0 0 0 0 0 0 0 0 0 0
8 0 0 0 0 1 0 0 0 0 0 0 0 0 0 0 0 0 0 0 36 52 75 152 198 199 298 302 324 369 268 201 170 132 45 5 0 0 0 0 0 0 0 0 0 0 0 0 0
28 3 0 0 0 9 1 0 0 0 0 0 0 0 0 0 0 0 0 3 1 24 41 112 141 233 236 362 317 296 247 169 114 58 22 0 0 0 0 0 0 0 0 0 0 0 0 0 0
28 22 3 1 0 1 2 0 0 0 0 0 0 0 0 0 0 0 0 0 0 0 0 7 71 93 245 270 384 308 274 202 153 110 73 12 0 0 0 0 0 0 0 0 0 0 2 6 9
52 62 23 10 1 0 1 0 0 0 0 0 0 0 0 0 0 0 0 0 0 0 0 3 5 23 101 250 297 358 308 250 196 161 126 86 32 5 0 0 2 18 8 10 10 23 8 7 15
10 32 67 8 3 6 4 0 0 0 0 0 0 0 0 0 0 0 0 0 0 0 0 0 0 3 16 101 319 310 346 282 321 219 138 91 46 14 2 3 13 12 8 21 14 11 7 2 0
46 32 15 0 8 0 7 0 0 0 0 0 0 0 0 0 0 0 0 0 0 0 0 0 0 0 2 65 253 320 522 287 249 232 187 210 79 14 0 14 6 10 9 0 0 0 0 0 0
25 0 0 0 1 3 2 0 0 0 0 0 0 0 0 0 0 0 0 0 0 0 0 0 0 0 0 123 208 264 269 182 149 68 29 34 1 0 4 2 0 0 0 0 0 0 0 0 0
0 13 0 2 1 11 0 0 0 0 0 0 0 0 0 0 0 0 0 0 0 0 0 0 0 9 72 124 166 192 110 33 21 2 0 0 0 0 0 0 0 0 0 0 0 0 0 0 0
0 5 39 10 32 15 0 0 0 0 0 0 0 0 0 0 0 0 0 0 0 0 0 0 0 0 7 18 18 14 5 0 0 0 0 0 0 0 0 0 0 0 0 0 0 0 0 0 0
10 17 11 40 48 24 0 0 0 0 0 0 0 0 0 0 0 0 0 0 0 0 0 0 1 20 19 11 0 0 0 0 0 0 0 0 0 0 0 0 0 0 0 0 0 0 0 0 0
8 33 0 0 12 46 9 0 0 0 0 0 0 0 0 0 0 0 0 0 0 0 0 0 0 0 0 0 0 0 0 0 0 0 0 0 0 0 0 0 0 0 0 0 0 0 0 0 0
16 0 24 13 69 19 4 0 0 0 0 0 0 0 0 0 0 0 0 0 0 0 0 0 0 0 0 0 0 0 0 0 0 0 0 0 0 0 0 0 0 0 0 0 0 0 0 0 0
1 18 7 11 61 38 42 7 0 0 0 0 0 0 0 0 0 0 0 0 0 0 0 0 0 0 0 0 0 0 0 0 0 0 0 0 0 0 0 0 0 0 0 0 0 0 0 0 0
0 0 1 15 43 23 2 10 0 0 0 0 0 0 0 0 0 0 0 0 0 0 0 0 0 0 0 0 0 0 0 0 0 0 0 0 0 0 0 0 0 0 0 0 0 0 0 0 0
44 16 2 0 68 11 0 1 0 0 0 0 0 0 0 0 0 0 0 0 0 0 0 0 0 0 0 0 0 0 0 0 0 0 0 0 0 0 0 0 0 0 0 0 0 0 0 0 0
0 0 0 5 2 0 5 0 0 0 0 0 0 0 0 0 0 0 0 0 0 0 0 0 0 0 0 0 0 0 0 0 0 0 0 0 0 0 0 0 0 0 0 0 0 0 0 0 0
1 0 19 65 24 1 0 0 0 0 0 0 0 0 0 0 0 0 0 0 0 0 0 0 0 0 0 0 0 0 0 0 0 0 0 0 0 0 0 0 0 0 0 0 0 0 0 0 0
0 3 47 37 36 28 28 0 0 0 0 0 0 0 0 0 0 0 0 0 0 0 0 0 0 0 0 0 0 0 0 0 0 0 0 0 0 0 0 0 0 0 0 0 0 0 0 0 0
0 0 2 31 57 37 0 0 0 0 0 0 0 0 0 0 0 0 0 0 0 0 0 0 0 0 0 0 0 0 0 0 0 0 0 0 0 0 0 0 0 0 0 0 0 0 0 0 0
5 0 28 25 45 19 5 0 0 0 0 0 0 0 0 0 0 0 0 0 0 0 0 0 0 0 0 0 0 0 0 0 0 0 0 0 0 0 0 0 0 0 0 0 0 0 0 0 0

GFSSGP_con_mucape_027.txt.gz
CAPE
171 0 0 0 0 0 0 0 0 0 18 12 0 0 4 0 0 0 1 101 247 698 1190 1259 1564 1290 783 527 201 68 21 0 0 0 0 3 13 8 14 6 4 5 6 0 0 0 2 17 17
124 0 0 0 0 0 0 0 0 0 0 2 4 0 9 0 0 0 16 27 391 592 1054 1174 1593 1452 960 528 160 75 29 0 0 0 0 3 28 20 8 0 0 0 0 0 0 0 0 0 0
3 0 0 0 0 0 0 0 0 0 0 0 0 0 2 0 0 26 27 8 626 833 991 1155 1711 1613 1378 773 319 98 51 0 0 0 0 9 26 33 5 5 0 0 0 0 0 0 0 0 0
0 0 0 0 0 0 0 0 0 0 0 0 0 0 4 0 0 0 0 10 174 365 698 1330 1805 1718 1498 1149 488 115 46 6 0 0 0 0 11 60 13 6 0 0 0 0 0 0 0 0 0
0 0 0 0 0 0 0 0 0 0 0 0 0 0 0 0 0 0 0 24 232 640 749 1249 1781 1784 1633 1099 310 149 72 36 0 0 0 19 33 92 28 9 0 0 0 0 0 0 0 0 0
0 0 0 0 0 0 0 0 0 0 0 0 0 0 0 5 5 25 12 26 544 806 1026 1254 1507 1670 1571 1041 536 237 94 35 0 0 5 15 37 130 56 3 0 0 0 0 0 0 0 12 17
0 0 0 0 0 0 0 0 0 0 0 0 0 0 0 0 0 7 4 27 238 551 765 1039 1119 1088 1183 1160 721 560 180 78 41 0 0 22 5 2 0 31 0 0 0 0 0 0 0 0 3
4 0 0 0 0 0 0 0 0 0 0 0 0 0 0 0 1 40 1 10 69 224 259 662 870 849 764 670 614 568 383 242 145 58 9 2 0 0 27 34 31 3 0 0 0 0 0 0 0
68 6 0 0 0 0 0 0 0 0 0 0 0 0 0 0 0 32 16 20 68 85 143 219 413 477 337 700 486 454 332 201 112 53 27 0 0 0 0 0 0 47 0 0 0 0 0 0 0
44 0 0 0 0 0 0 0 0 0 0 0 0 0 0 0 0 0 0 11 40 97 107 112 122 140 197 571 477 350 225 126 57 29 3 2 0 0 0 0 0 0 0 0 0 0 16 0 0
22 0 0 0 0 0 0 0 0 0 0 0 0 0 0 0 0 0 0 0 32 70 126 126 147 166 244 445 389 311 248 174 113 92 47 29 6 0 0 0 0 0 0 0 0 0 0 0 0
4 5 1 0 0 0 0 0 0 0 0 0 0 0 0 0 0 0 0 0 0 48 86 191 174 176 250 364 414 290 305 223 195 150 101 44 8 0 0 0 0 0 0 0 0 0 0 1 3
6 0 0 0 0 0 0 0 0 0 0 0 0 0 0 0 0 0 0 0 0 5 66 123 197 221 217 343 347 307 355 246 179 117 87 39 7 0 1 1 0 0 0 1 1 3 3 5 12
0 3 0 0 2 0 0 0 0 0 0 0 0 0 0 0 0 0 0 0 0 0 26 136 99 141 243 289 369 315 280 371 248 132 161 117 67 41 32 26 16 11 5 32 5 5 5 11 7
1 0 1 0 0 2 0 0 0 0 0 0 0 0 0 0 0 0 0 0 0 0 0 0 7 13 86 229 299 321 331 336 342 323 143 265 91 52 51 29 42 20 26 14 2 2 1 0 0
0 0 0 0 0 2 37 0 0 0 0 0 0 0 0 0 0 0 0 0 0 0 0 5 0 2 3 87 283 288 494 396 262 204 237 202 80 119 77 17 32 56 4 0 0 0 0 0 0
0 0 0 0 0 6 21 0 0 0 0 0 0 0 0 0 0 0 0 0 0 0 0 0 0 0 0 123 319 207 280 297 252 151 92 56 28 0 1 0 0 0 0 0 0 0 0 0 0
0 0 0 0 0 1 7 0 0 0 0 0 0 0 0 0 0 0 0 0 0 0 0 0 0 0 74 173 219 124 140 184 106 29 0 0 0 0 0 0 0 0 0 0 0 0 0 0 0
0 0 0 0 6 9 0 6 0 0 0 0 0 0 0 0 0 0 0 0 0 0 0 0 18 59 99 140 168 125 105 92 6 0 0 0 0 0 0 0 0 0 0 0 0 0 0 0 0
0 0 0 0 0 49 11 13 0 0 0 0 0 0 0 0 0 0 0 0 0 0 0 0 0 15 51 89 96 83 14 0 0 0 0 0 0 0 0 0 0 0 0 0 0 0 0 0 0
0 0 0 0 0 18 37 6 0 0 0 0 0 0 0 0 0 0 0 0 0 0 0 0 0 0 0 0 0 0 0 0 0 0 0 0 0 0 0 0 0 0 0 0 0 0 0 0 0
0 0 0 0 27 5 43 9 0 0 0 0 0 0 0 0 0 0 0 0 0 0 0 0 0 0 0 0 0 0 0 0 0 0 0 0 0 0 0 0 0 0 0 0 0 0 0 0 0
0 0 1 11 28 51 2 32 0 0 0 0 0 0 0 0 0 0 0 0 0 0 0 0 0 0 0 0 0 0 0 0 0 0 0 0 0 0 0 0 0 0 0 0 0 0 0 0 0
0 0 0 24 52 66 7 32 0 0 0 0 0 0 0 0 0 0 0 0 0 0 0 0 0 0 0 0 0 0 0 0 0 0 0 0 0 0 0 0 0 0 0 0 0 0 0 0 0
36 0 0 0 0 0 0 16 0 0 0 0 0 0 0 0 0 0 0 0 0 0 0 0 0 0 0 0 0 0 0 0 0 0 0 0 0 0 0 0 0 0 0 0 0 0 0 0 0
1 0 0 0 0 0 0 1 0 0 0 0 0 0 0 0 0 0 0 0 0 0 0 0 0 0 0 0 0 0 0 0 0 0 0 0 0 0 0 0 0 0 0 0 0 0 0 0 0
2 0 0 12 5 18 24 10 0 0 0 0 0 0 0 0 0 0 0 0 0 0 0 0 0 0 0 0 0 0 0 0 0 0 0 0 0 0 0 0 0 0 0 0 0 0 0 0 0
124 20 1 6 3 15 15 7 0 0 0 0 0 0 0 0 0 0 0 0 0 0 0 0 0 0 0 0 0 0 0 0 0 0 0 0 0 0 0 0 0 0 0 0 0 0 0 0 0
7 11 0 2 1 21 0 4 0 2 0 0 0 0 0 0 0 0 0 0 0 0 0 0 0 0 0 0 0 0 0 0 0 0 0 0 0 0 0 0 0 0 0 0 0 0 0 0 0
18 0 0 16 38 11 17 13 0 0 0 0 0 0 0 0 0 0 0 0 0 0 0 0 0 0 0 0 0 0 0 0 0 0 0 0 0 0 0 0 0 0 0 0 0 0 0 0 0

GFSSGP_con_mucape_030.txt.gz
CAPE
271 0 0 0 0 0 0 0 0 0 2 0 10 14 7 4 0 0 9 53 365 1113 1182 1318 1591 1390 704 408 79 46 2 0 0 0 0 2 10 2 11 7 0 3 0 0 0 0 2 8 13
474 0 0 0 0 0 0 0 0 0 0 4 19 32 5 0 0 0 45 300 634 1063 1131 1140 1634 1444 793 397 106 58 15 0 0 0 0 8 11 19 8 0 0 0 0 0 0 0 0 0 0
0 0 0 0 0 0 0 0 0 0 0 0 3 8 1 0 5 0 24 310 634 958 1088 1113 1659 1628 1348 656 135 61 25 0 0 0 0 9 27 27 4 0 0 0 0 0 0 0 0 0 0
0 0 0 0 0 0 0 0 0 0 0 0 0 0 0 0 0 8 0 493 581 786 1110 1251 1695 1715 1523 987 236 93 35 0 0 0 0 4 15 24 0 4 0 0 0 0 0 0 0 0 0
0 0 0 0 0 0 0 0 0 0 0 0 0 0 0 10 9 0 15 521 535 761 1012 1270 1851 1879 1564 1175 378 167 48 15 0 0 0 2 19 63 17 5 0 0 0 0 0 0 0 0 0
0 0 0 0 0 0 0 0 0 0 0 0 0 0 0 4 21 9 20 66 342 532 791 1177 1697 1753 1648 1114 548 288 127 41 0 0 6 33 47 90 45 0 0 0 0 0 0 0 0 1 18
0 0 0 0 0 0 0 0 0 0 0 0 0 0 0 0 0 10 22 154 605 793 1024 1239 1399 1411 1340 923 774 559 184 72 4 0 17 15 10 135 78 55 3 0 0 0 0 0 0 0 0
0 0 0 0 0 0 0 0 0 0 0 0 0 0 0 0 20 10 0 352 634 868 982 1180 1117 1096 942 786 646 547 310 176 113 28 26 25 0 0 47 116 78 1 3 0 0 0 0 0 0
1 0 0 0 0 0 0 0 0 0 0 0 0 0 0 0 19 26 0 52 448 590 626 874 924 842 768 791 462 468 309 165 105 46 6 0 0 0 0 0 1 38 26 5 0 0 0 35 33
18 10 0 0 0 0 0 0 0 0 0 0 0 0 0 0 0 16 20 5 82 263 275 438 615 652 576 682 459 339 212 69 25 10 1 0 0 0 0 0 2 18 90 37 1 6 74 37 0
11 4 0 0 0 0 0 0 0 0 0 0 0 0 0 0 0 0 0 22 49 109 189 220 218 270 273 379 521 340 214 90 34 29 2 3 3 0 0 0 0 0 0 0 0 0 0 0 0
0 0 2 2 0 0 0 0 0 0 0 0 0 0 0 0 0 0 0 0 0 44 178 204 195 185 197 412 425 351 219 131 115 68 54 32 33 1 0 0 0 0 0 0 0 0 0 1 4
0 0 0 0 1 0 0 0 0 0 0 0 0 0 0 0 0 0 0 0 0 0 95 238 231 228 249 354 491 417 269 226 184 151 136 92 42 4 0 3 6 20 10 23 31 6 7 6 7
0 0 0 0 0 0 0 0 0 0 0 0 0 0 0 0 0 0 0 0 0 0 0 188 268 257 289 401 442 391 323 344 228 163 88 99 78 62 38 29 29 4 20 37 10 25 20 7 0
0 0 0 0 0 0 1 0 0 0 0 0 0 0 0 0 0 0 0 0 0 0 0 98 225 264 310 372 413 387 295 287 253 200 116 288 218 79 44 11 3 1 30 22 16 1 0 0 0
0 0 0 0 0 0 0 0 0 0 0 0 0 0 0 0 0 0 0 0 0 0 4 78 174 156 287 339 431 416 431 324 240 252 165 123 154 43 79 30 5 2 2 0 0 0 0 0 0
0 0 0 0 0 0 0 0 0 0 0 0 0 0 0 0 0 0 0 0 0 0 0 6 24 27 63 200 331 360 233 410 244 164 234 133 24 9 1 0 0 0 0 0 0 0 0 0 0
0 0 0 0 0 0 0 0 0 0 0 0 0 0 0 0 0 0 0 0 0 0 0 0 0 1 14 116 296 352 289 298 448 209 92 76 0 0 0 0 0 0 0 0 0 0 0 0 0
0 0 0 0 0 0 0 0 0 0 0 0 0 0 0 0 0 0 0 0 0 0 0 0 0 0 14 131 296 385 126 51 31 26 1 0 0 0 0 0 0 0 0 0 0 0 0 0 0
0 0 0 0 0 5 0 0 0 0 0 0 0 0 0 0 0 0 0 0 0 0 0 0 0 0 35 170 319 342 166 46 37 9 0 0 0 0 0 0 0 0 0 0 0 0 0 0 0
0 0 0 0 0 0 0 0 0 0 0 0 0 0 0 0 0 0 0 0 0 0 0 9 12 59 86 123 177 207 193 96 0 0 0 0 0 0 0 0 0 0 0 0 0 0 0 0 0
0 0 0 0 0 0 31 0 0 0 0 0 0 0 0 0 0 0 0 0 0 0 0 0 5 19 37 53 66 48 9 0 0 0 0 0 0 0 0 0 0 0 0 0 0 0 0 0 0
0 0 0 0 0 0 0 0 0 0 0 0 0 0 0 0 0 0 0 0 0 0 0 0 0 0 0 0 0 0 0 0 0 0 0 0 0 0 0 0 0 0 0 0 0 0 0 0 0
0 0 0 0 0 0 0 0 0 0 0 0 0 0 0 0 0 0 0 0 0 0 0 0 0 0 0 0 0 0 0 0 0 0 0 0 0 0 0 0 0 0 0 0 0 0 0 0 0
0 0 0 0 0 0 0 0 0 0 0 0 0 0 0 0 0 0 0 0 0 0 0 0 0 0 0 0 0 0 0 0 0 0 0 0 0 0 0 0 0 0 0 0 0 0 0 0 0
0 0 0 0 0 0 0 0 0 0 0 0 0 0 0 0 0 0 0 0 0 0 0 0 0 0 0 0 0 0 0 0 0 0 0 0 0 0 0 0 0 0 0 0 0 0 0 0 0
1 39 0 0 0 0 0 0 0 0 0 2 0 0 0 0 0 0 0 0 0 0 0 0 0 0 0 0 0 0 0 0 0 0 0 0 0 0 0 0 0 0 0 0 0 0 0 0 0
0 2 0 15 0 0 2 0 0 0 0 31 8 1 4 0 0 0 0 0 0 0 0 0 0 0 0 0 0 0 0 0 0 0 0 0 0 0 0 0 0 0 0 0 0 0 0 0 0
0 0 11 0 0 0 38 1 23 0 0 1 40 32 0 0 0 0 0 0 0 0 0 0 0 0 0 0 0 0 0 0 0 0 0 0 0 0 0 0 0 0 0 0 0 0 0 0 0
0 0 0 0 0 0 0 0 0 0 1 0 41 13 0 0 0 0 0 0 0 0 0 0 0 0 0 0 0 0 0 0 0 0 0 0 0 0 0 0 0 0 0 0 0 0 0 0 0

GFSSGP_con_mucape_033.txt.gz
CAPE
178 0 0 0 0 0 0 0 0 0 0 0 3 2 23 25 7 0 36 67 224 677 1213 1336 1649 1408 728 141 64 23 0 0 0 0 0 1 1 0 0 3 2 0 0 0 0 0 3 16 4
5 0 0 0 0 0 0 0 0 0 0 0 13 8 16 18 22 12 74 148 656 1105 1121 1123 1712 1469 779 190 84 44 0 0 0 0 3 11 11 16 0 0 0 0 0 0 0 0 0 0 0
0 0 0 0 0 0 0 0 0 0 0 0 3 4 1 1 22 12 32 406 1094 1136 1068 1032 1730 1646 1004 415 132 63 16 0 0 0 2 16 12 21 3 0 0 0 0 0 0 0 0 0 0
0 0 0 0 0 0 0 0 0 0 0 0 1 0 0 0 4 25 125 633 989 1073 1085 1120 1775 1736 1459 992 205 89 32 0 0 0 0 12 26 43 4 0 0 0 0 0 0 0 0 0 0
0 0 0 0 0 0 0 0 0 0 0 0 0 0 0 1 1 13 406 563 684 998 1082 1155 1867 1828 1755 829 365 153 64 6 0 0 0 6 19 63 4 9 0 0 0 0 0 0 0 0 1
0 0 0 0 0 0 0 0 0 0 0 0 0 0 0 0 15 10 492 492 503 790 1049 1166 1665 1774 1669 1106 674 394 111 23 0 0 0 13 45 84 21 5 0 0 0 0 0 0 0 0 5
0 0 0 0 0 0 0 0 0 0 0 0 0 0 0 11 28 21 221 442 486 592 919 1194 1451 1524 1389 1227 913 696 311 134 4 0 30 27 25 147 70 19 1 0 0 0 0 0 0 0 0
0 0 0 0 0 0 0 0 0 0 0 0 0 0 0 0 1 27 17 332 499 657 938 1130 1386 1404 1265 864 763 652 512 286 72 53 79 19 0 15 97 145 78 1 0 0 0 0 0 0 0
0 0 0 0 0 0 0 0 0 0 0 0 0 0 0 0 26 35 8 471 668 788 966 1064 1185 1293 1150 770 587 543 386 195 120 26 6 0 0 0 0 1 7 38 13 19 17 1 5 58 48
13 2 0 0 0 0 0 0 0 0 0 0 0 0 0 0 24 32 19 323 611 785 902 968 1051 1034 971 783 603 439 279 107 50 10 0 0 0 0 0 0 0 18 31 103 19 46 174 70 0
1 2 0 0 0 0 0 0 0 0 0 0 0 0 0 0 0 67 54 44 230 423 551 739 855 854 806 687 637 433 294 146 41 9 0 0 0 0 0 0 0 0 0 0 0 0 0 0 0
0 0 0 0 0 0 0 0 0 0 0 0 0 0 0 0 0 0 0 29 45 71 218 382 538 628 674 561 554 436 344 206 78 35 5 2 0 1 0 0 0 0 0 0 0 1 4 2 2
0 0 0 0 0 0 0 0 0 0 0 0 0 0 0 0 0 0 0 0 0 0 36 192 346 339 398 403 420 442 374 232 162 97 86 46 22 3 0 0 0 0 1 3 33 30 12 13 9
0 0 0 0 0 0 0 0 0 0 0 0 0 0 0 0 0 0 0 0 0 0 0 0 237 302 286 311 443 524 452 319 248 198 145 91 69 70 74 27 28 18 2 12 17 6 7 3 0
0 0 0 0 0 0 0 0 0 0 0 0 0 0 0 0 0 0 0 0 0 0 0 0 103 296 336 341 416 587 557 387 355 260 335 86 150 138 23 105 3 1 3 2 6 5 0 0 0
0 0 0 0 0 0 0 0 0 0 0 0 0 0 0 0 0 0 0 0 0 0 0 0 23 300 371 396 455 554 476 408 351 228 93 209 131 13 9 6 6 0 1 0 0 0 0 0 0
0 0 0 0 0 0 0 0 0 0 0 0 0 0 0 0 0 0 0 0 0 0 0 0 30 266 380 445 512 563 604 456 302 216 159 92 95 38 8 2 0 0 0 0 0 0 0 0 0
0 0 0 0 0 0 0 0 0 0 0 0 0 0 0 0 0 0 0 0 0 0 0 1 93 209 296 401 461 571 381 478 309 219 159 77 80 1 0 0 0 0 0 0 0 0 0 0 0
0 0 0 0 0 0 0 0 0 0 0 0 0 0 0 0 0 0 0 0 0 0 0 0 20 149 227 303 431 533 338 329 379 140 127 6 1 0 0 0 0 0 0 0 0 0 0 0 0
0 0 0 0 0 0 0 0 0 0 0 0 0 0 0 0 0 0 0 0 0 0 0 0 0 0 29 162 311 409 249 183 111 3 10 6 0 0 0 0 0 0 0 0 0 0 0 0 0
0 0 0 0 0 0 0 0 0 0 0 0 0 0 0 0 0 0 0 0 0 0 0 0 0 0 0 84 208 322 323 178 163 18 27 0 0 0 0 0 0 0 0 0 0 0 0 0 0
0 0 0 0 0 0 0 0 0 0 0 0 0 0 0 0 0 0 0 0 0 0 0 0 0 0 0 94 185 322 389 178 185 87 0 0 0 0 0 0 0 0 0 0 0 0 0 0 0
0 0 0 0 0 0 0 0 0 0 0 0 0 0 0 0 0 0 0 0 0 0 0 1 2 50 117 198 250 288 291 223 77 0 0 0 0 0 0 0 0 0 0 0 0 0 0 0 0
0 0 0 0 0 0 0 0 0 0 0 0 0 0 0 0 0 0 0 0 0 0 0 34 82 127 143 116 85 58 8 0 0 0 0 0 0 0 0 0 0 0 0 0 0 0 0 0 0
0 0 0 0 0 0 0 0 0 0 0 0 0 0 0 0 0 0 0 0 0 0 2 19 23 30 23 0 0 0 0 0 0 0 0 0 0 0 0 0 0 0 0 0 0 0 0 0 0
0 0 0 0 0 0 0 0 0 0 0 0 0 0 0 0 0 0 0 0 0 0 0 27 47 43 6 0 0 0 0 0 0 0 0 0 0 0 0 0 0 0 0 0 0 0 0 0 0
0 0 0 0 0 0 0 0 0 0 0 0 0 0 0 0 0 0 0 0 0 0 0 0 8 22 0 0 0 0 0 0 0 0 0 0 0 0 0 0 0 0 0 0 0 0 0 0 0
0 0 0 10 0 0 0 0 0 0 0 0 0 0 0 0 0 0 0 0 0 0 0 0 0 0 0 0 0 0 0 0 0 0 0 0 0 0 0 0 0 0 0 0 0 0 0 0 0
0 0 0 1 0 0 0 0 0 0 0 0 0 29 7 0 19 0 0 0 0 0 0 0 0 0 0 0 0 0 0 0 0 0 0 0 0 0 0 0 0 0 0 0 0 0 0 0 0
0 0 0 0 0 0 1 0 0 0 0 0 69 86 67 60 0 0 0 0 0 0 0 0 0 0 0 0 0 0 0 0 0 0 0 0 0 0 0 0 0 0 0 0 0 0 0 0 0

GFSSGP_con_mucape_036.txt.gz
CAPE
55 0 0 0 0 0 0 0 0 0 0 0 2 9 35 24 22 7 24 75 106 240 1132 1433 1612 1183 600 250 84 18 0 0 0 0 0 6 8 1 0 0 3 2 0 0 8 3 15 27 13
0 0 0 0 0 0 0 0 0 0 0 0 0 12 10 33 25 31 68 91 279 781 1253 1133 1727 1468 663 211 91 35 0 0 0 0 0 7 6 2 0 0 0 0 0 0 0 0 0 0 0
0 0 0 0 0 0 0 0 0 0 0 0 0 1 5 4 7 17 27 150 702 1029 1163 1083 1802 1620 1115 305 132 66 19 0 0 0 7 10 10 14 0 0 0 0 0 0 0 0 0 0 0
0 0 0 0 0 0 0 0 0 0 0 0 0 0 0 0 12 26 127 783 915 1089 1137 1227 1833 1702 1398 724 237 116 50 10 0 0 2 16 31 28 9 0 0 0 0 0 0 0 0 0 0
0 0 0 0 0 0 0 0 0 0 0 0 0 0 0 0 0 52 561 898 821 1086 1100 1286 1922 1806 1379 742 383 180 102 34 0 0 0 10 22 73 12 7 0 0 0 0 0 0 0 0 0
0 0 0 0 0 0 0 0 0 0 0 0 0 0 0 0 0 210 567 783 859 1044 1071 1195 1746 1799 1727 1229 693 423 168 67 2 0 0 5 23 64 41 16 0 0 0 0 0 0 0 0 0
0 0 0 0 0 0 0 0 0 0 0 0 0 0 0 0 0 70 479 608 661 893 1075 1164 1535 1606 1604 1192 1011 768 328 145 30 0 0 41 48 79 49 26 1 0 0 0 1 0 0 1 0
0 0 0 0 0 0 0 0 0 0 0 0 0 0 0 0 0 10 429 516 581 713 997 1159 1379 1502 1395 925 937 797 594 396 96 58 95 33 0 72 106 69 46 0 0 0 2 0 0 0 0
0 1 0 0 0 0 0 0 0 0 0 0 0 0 0 0 0 15 22 320 565 667 890 1103 1299 1369 1317 982 800 682 551 322 112 41 40 11 0 0 0 0 17 41 14 17 24 11 14 74 28
18 5 0 0 0 0 0 0 0 0 0 0 0 0 0 0 0 22 4 134 486 649 872 989 1153 1433 1286 1003 751 561 406 194 80 4 0 0 0 0 0 0 0 1 21 23 17 12 12 0 0
1 3 0 0 0 0 0 0 0 0 0 0 0 0 0 0 17 50 0 63 340 502 757 856 1371 1437 1293 1034 769 588 402 225 78 12 0 0 0 0 0 0 0 0 0 0 0 0 0 2 0
0 0 0 0 0 0 0 0 0 0 0 0 0 0 0 0 0 62 59 29 4 147 514 823 987 1194 1073 974 791 659 474 305 126 30 1 0 0 0 0 0 0 0 0 0 2 1 5 10 6
0 0 0 0 0 0 0 0 0 0 0 0 0 0 0 0 0 0 0 0 0 0 16 213 598 864 825 935 799 642 505 383 217 84 26 14 4 5 0 0 0 0 3 2 6 8 3 5 2
0 0 0 0 0 0 0 0 0 0 0 0 0 0 0 0 0 0 0 0 0 0 0 0 154 521 662 703 699 536 486 439 299 175 107 127 88 15 18 16 9 45 7 5 5 4 2 0 0
0 0 0 0 0 0 0 0 0 0 0 0 0 0 0 0 0 0 0 0 0 0 0 0 3 177 431 483 495 481 589 495 474 338 209 117 31 73 27 4 26 1 0 2 3 0 0 0 0
0 0 0 0 0 0 0 0 0 0 0 0 0 0 0 0 0 0 0 0 0 0 0 0 0 56 267 338 349 451 721 648 525 416 236 103 47 60 53 7 8 3 0 0 0 0 0 0 0
0 0 0 0 0 0 0 0 0 0 0 0 0 0 0 0 0 0 0 0 0 0 0 0 0 0 144 340 372 467 680 730 570 345 142 117 73 41 8 0 0 0 0 0 0 0 0 0 0
0 0 0 0 0 0 0 0 0 0 0 0 0 0 0 0 0 0 0 0 0 0 0 0 0 1 109 332 401 491 692 569 492 289 234 209 99 47 28 0 0 0 0 0 0 0 0 0 0
0 0 0 0 0 0 0 0 0 0 0 0 0 0 0 0 0 0 0 0 0 0 0 0 0 6 187 366 423 534 714 489 357 320 335 158 80 0 0 0 0 0 0 0 0 0 0 0 0
0 0 0 0 0 0 0 0 0 0 0 0 0 0 0 0 0 0 0 0 0 0 0 0 0 24 142 328 415 537 600 578 359 342 192 6 13 8 0 0 0 0 0 0 0 0 0 0 0
0 0 0 0 0 0 0 0 0 0 0 0 0 0 0 0 0 0 0 0 0 0 0 0 0 0 81 222 353 495 564 414 222 171 190 9 5 0 0 0 0 0 0 0 0 0 0 0 0
0 0 0 0 0 0 0 0 0 0 0 0 0 0 0 0 0 0 0 0 0 0 0 0 0 0 0 90 256 425 529 261 70 79 216 29 3 0 0 0 0 0 0 0 0 0 0 0 0
0 0 0 0 0 0 0 0 0 0 0 0 0 0 0 0 0 0 0 0 0 0 0 0 0 0 0 1 158 288 388 310 69 107 138 31 0 0 0 0 0 0 0 0 0 0 0 0 0
0 0 0 0 0 0 0 0 0 0 0 0 0 0 0 0 0 0 0 0 0 0 0 0 0 0 0 0 95 148 255 264 202 167 91 0 0 0 0 0 0 0 0 0 0 0 0 0 0
0 0 0 0 0 0 0 0 0 0 0 0 0 0 0 0 0 0 0 0 0 0 2 0 0 0 29 53 232 290 293 294 243 30 0 0 0 0 0 0 0 0 0 0 0 0 0 0 0
0 0 0 0 0 0 0 0 0 0 0 0 0 0 0 0 0 0 0 0 0 0 0 45 81 141 34 337 153 109 36 3 0 0 0 0 0 0 0 0 0 0 0 0 0 0 0 0 0
0 0 0 0 0 0 0 0 0 0 0 0 0 0 0 0 0 0 0 0 0 0 3 76 105 140 86 53 0 0 0 0 0 0 0 0 0 0 0 0 0 0 0 0 0 0 0 0 0
0 0 0 0 0 0 0 0 0 0 0 0 0 0 0 0 0 0 0 0 0 0 10 58 69 62 27 3 0 0 0 0 0 0 0 0 0 0 0 0 0 0 0 0 0 0 0 0 0
0 0 0 0 0 0 0 0 20 55 14 0 0 0 0 0 0 0 0 0 0 0 12 51 77 66 24 0 0 0 0 0 0 0 0 0 0 0 0 0 0 0 0 0 0 0 0 0 0
0 0 0 0 0 0 1 0 14 32 13 0 0 0 0 0 0 0 0 0 0 0 0 19 25 16 2 0 0 0 0 0 0 0 0 0 0 0 0 0 0 0 0 0 0 0 0 0 0

GFSSGP_con_mucape_039.txt.gz
CAPE
0 0 0 0 0 0 0 0 0 0 0 0 0 5 27 21 17 17 6 82 75 323 978 1345 1724 1377 695 253 108 27 0 0 0 0 3 6 24 4 0 0 3 3 0 1 5 12 40 21 19
0 0 0 0 0 0 0 0 0 0 0 0 0 4 16 33 27 16 77 80 174 773 1258 1098 1694 1389 654 271 103 31 1 0 0 0 0 0 0 0 0 0 0 0 0 0 0 0 3 4 6
0 0 0 0 0 0 0 0 0 0 0 0 0 3 9 8 22 17 17 130 527 1164 1322 1189 1613 1438 891 412 148 61 13 0 0 0 2 8 2 0 0 0 0 0 0 0 0 0 0 0 0
0 0 0 0 0 0 0 0 0 0 0 0 0 0 0 5 5 10 101 679 924 1281 1367 1571 1747 1649 1082 747 244 102 46 6 0 0 7 21 18 18 4 0 0 0 0 0 0 0 0 0 0
0 0 0 0 0 0 0 0 0 0 0 0 0 0 0 0 0 101 545 917 879 993 1315 1444 1999 1817 1233 619 392 170 113 46 0 0 0 15 20 37 11 7 0 0 0 0 0 0 0 0 0
0 0 0 0 0 0 0 0 0 0 0 0 0 0 0 0 10 473 884 1025 957 1104 1267 1414 1750 1773 1474 976 694 438 175 88 8 0 0 4 23 69 28 22 1 0 0 0 0 1 4 3 0
0 0 0 0 0 0 0 0 0 0 0 0 0 0 0 0 29 630 854 904 1051 1178 1272 1399 1444 1481 1501 1233 956 770 404 189 71 0 0 3 53 55 149 43 4 0 0 0 1 1 0 0 0
0 0 0 0 0 0 0 0 0 0 0 0 0 0 0 0 22 403 605 701 855 1177 1276 1353 1603 1431 1414 1140 951 834 634 365 137 42 58 21 0 64 145 52 28 1 0 0 4 3 0 0 1
0 0 0 0 0 0 0 0 0 0 0 0 0 0 0 0 17 182 432 601 693 799 1209 1301 1521 1626 1537 1194 955 769 555 362 112 48 54 17 0 0 2 0 4 24 0 10 26 18 33 54 3
10 1 0 0 0 0 0 0 0 0 0 0 0 0 0 0 0 25 80 408 755 866 969 1216 1300 1392 1473 1176 1084 911 615 478 140 24 51 19 0 0 0 0 0 0 0 0 0 0 0 0 0
2 0 0 0 0 0 0 0 0 0 0 0 0 0 0 0 0 21 60 72 303 611 897 1116 1118 1675 1440 1179 1000 806 618 359 145 47 0 0 0 0 0 0 0 0 0 0 0 0 0 0 0
0 0 0 0 0 0 0 0 0 0 0 0 0 0 0 0 0 48 109 66 72 300 718 996 1086 1470 1711 1696 1053 795 569 349 148 68 8 0 0 0 0 0 0 0 0 0 0 0 1 1 2
0 0 0 0 0 0 0 0 0 0 0 0 0 0 0 0 0 0 0 42 41 34 69 703 1063 954 1537 1573 1336 844 695 412 236 81 32 7 1 1 0 0 0 0 4 1 3 2 1 1 0
0 0 0 0 0 0 0 0 0 0 0 0 0 0 0 0 0 0 0 0 0 0 0 0 629 1043 982 1439 1198 840 754 542 350 138 84 111 53 16 3 0 4 6 10 3 0 1 0 0 0
0 0 0 0 0 0 0 0 0 0 0 0 0 0 0 0 0 0 0 0 0 0 0 0 3 688 942 993 970 842 687 477 434 248 152 113 59 4 5 8 7 5 0 0 0 0 0 0 0
0 0 0 0 0 0 0 0 0 0 0 0 0 0 0 0 0 0 0 0 0 0 0 0 0 268 646 845 804 625 543 502 497 357 264 180 67 19 24 5 1 1 0 0 0 0 0 0 0
0 0 0 0 0 0 0 0 0 0 0 0 0 0 0 0 0 0 0 0 0 0 0 0 0 106 294 526 550 481 536 666 625 472 380 267 49 60 18 7 2 0 0 0 0 0 0 0 0
0 0 0 0 0 0 0 0 0 0 0 0 0 0 0 0 0 0 0 0 0 0 0 0 0 33 127 200 466 396 487 783 720 618 497 166 168 74 47 7 2 0 0 0 0 0 0 0 0
0 0 0 0 0 0 0 0 0 0 0 0 0 0 0 0 0 0 0 0 0 0 0 0 0 9 55 188 417 417 469 622 730 517 325 297 272 63 4 0 0 0 0 0 0 0 0 0 0
0 0 0 0 0 0 0 0 0 0 0 0 0 0 0 0 0 0 0 0 0 0 0 0 0 12 44 152 361 444 471 458 457 331 339 279 152 4 6 0 0 0 0 0 0 0 0 0 0
0 0 0 0 0 0 0 0 0 0 0 0 0 0 0 0 0 0 0 0 0 0 0 0 0 5 53 169 346 458 499 359 321 274 295 273 20 1 2 0 0 0 0 0 0 0 0 0 0
0 0 0 0 0 0 0 0 0 0 0 0 0 0 0 0 0 0 0 0 0 0 0 0 0 0 44 200 379 492 584 333 259 266 331 94 17 1 2 0 0 0 0 0 0 0 0 0 0
0 0 0 0 0 0 0 0 0 0 0 0 0 0 0 0 0 0 0 0 0 0 0 0 0 0 13 152 307 449 545 342 226 206 216 47 9 1 0 0 0 0 0 0 0 0 0 0 0
0 0 0 0 0 0 0 0 0 0 0 0 0 0 0 0 0 0 0 0 0 0 0 0 0 0 0 29 202 352 459 448 202 126 181 14 42 3 0 0 0 0 0 0 0 0 0 0 0
0 0 0 0 0 0 0 0 0 0 0 0 0 0 0 0 0 0 0 0 0 0 0 0 0 0 0 0 28 201 356 403 53 76 85 91 38 0 0 0 0 0 0 0 0 0 0 0 0
0 0 0 0 0 0 0 0 0 0 0 0 0 0 0 0 0 0 0 0 0 0 0 0 0 0 0 0 0 154 257 261 141 79 89 81 0 0 0 0 0 0 0 0 0 0 0 0 0
0 0 0 0 0 0 0 0 0 0 0 0 0 0 0 0 0 0 0 0 0 0 0 0 0 0 0 3 54 33 163 199 164 44 1 0 0 0 0 0 0 0 0 0 0 0 0 0 0
0 0 0 0 0 0 0 0 0 0 0 0 0 0 0 0 0 0 0 0 0 0 0 0 0 28 91 2 121 183 271 14 9 0 0 0 0 0 0 0 0 0 0 0 0 0 0 0 0
0 0 0 0 0 0 0 0 0 0 0 2 8 0 0 0 0 0 0 0 0 0 0 0 62 178 50 170 170 71 2 0 0 0 0 0 0 0 0 0 0 0 0 0 0 0 0 0 0
0 0 0 0 0 0 0 0 0 0 4 3 8 9 0 0 0 0 0 0 0 0 0 38 136 380 229 127 17 0 0 0 0 0 0 0 0 0 0 0 0 0 0 0 0 0 0 0 0

GFSSGP_con_mucape_042.txt.gz
CAPE
0 0 0 0 0 0 0 0 0 0 0 0 0 0 0 0 29 44 50 306 323 673 904 1387 1526 1316 830 292 88 58 17 0 0 15 8 63 38 3 0 0 1 0 0 4 0 18 17 24 28
0 0 0 0 0 0 0 0 0 0 0 0 0 0 3 5 4 81 113 286 396 752 1170 1080 1646 1389 665 328 93 32 1 0 0 0 5 1 0 0 0 0 0 0 0 0 0 4 4 4 4
0 0 0 0 0 0 0 0 0 0 0 0 0 0 3 11 24 81 149 338 560 954 1089 1209 1578 1282 807 321 99 38 1 0 0 0 0 0 0 0 0 0 0 0 0 0 0 1 2 4 0
0 0 0 0 0 0 0 0 0 0 0 0 0 0 0 7 61 68 187 581 751 969 971 1459 1610 1434 1057 696 150 72 25 0 0 0 4 0 0 0 0 0 0 0 0 0 0 0 0 0 0
0 0 0 0 0 0 0 0 0 0 0 0 0 0 0 16 16 110 566 800 898 1056 895 1346 1767 1552 1192 589 308 124 78 19 0 0 2 7 11 7 9 1 0 0 0 0 0 0 0 0 0
0 0 0 0 0 0 0 0 0 0 0 0 0 0 0 5 120 514 803 945 934 1191 1016 1126 1560 1600 1350 949 582 298 147 71 4 0 0 3 9 54 11 12 1 0 0 0 0 0 0 0 0
0 0 0 0 0 0 0 0 0 0 0 0 0 0 0 0 199 824 945 1058 1144 1234 1124 1037 1203 1298 1183 1131 964 738 334 175 42 0 6 14 22 25 38 31 4 0 0 0 0 2 0 0 0
0 0 0 0 0 0 0 0 0 0 0 0 0 0 0 0 269 881 1014 1152 1179 1284 1106 1056 1106 1071 1118 1052 968 866 672 427 174 43 61 24 1 112 192 69 30 0 0 0 5 4 0 1 1
0 0 0 0 0 0 0 0 0 0 0 0 0 0 0 0 139 833 954 1022 1104 1233 1152 1034 1275 1133 1125 1139 971 773 574 322 108 33 51 18 4 62 57 8 16 24 0 0 8 8 16 4 0
0 0 0 0 0 0 0 0 0 0 0 0 0 0 0 0 130 570 747 878 1037 1153 1351 1221 1310 1361 1193 1098 1264 992 686 420 168 6 18 16 0 0 0 0 0 0 0 0 0 0 0 0 15
2 0 0 0 0 0 0 0 0 0 0 0 0 0 0 0 3 137 328 419 744 986 1271 1341 1391 1530 1494 1383 1272 1206 960 578 366 60 13 4 0 0 0 0 0 0 0 5 0 6 10 1 0
0 0 0 0 0 0 0 0 0 0 0 0 0 0 0 0 0 24 258 299 381 691 1055 1307 1412 1519 1655 1369 1374 1242 1065 718 525 186 15 11 7 3 0 1 0 0 0 8 16 0 0 2 0
0 0 0 0 0 0 0 0 0 0 0 0 0 0 0 0 0 0 0 121 330 408 714 1119 1439 1499 1421 1417 1871 1283 1146 833 651 295 72 61 65 53 12 0 4 7 4 1 0 0 1 1 0
0 0 0 0 0 0 0 0 0 0 0 0 0 0 0 0 0 0 0 0 2 173 187 453 1240 1485 1485 1367 1284 1425 1206 909 827 394 138 106 85 36 8 0 2 7 3 2 2 0 0 0 0
0 0 0 0 0 0 0 0 0 0 0 0 0 0 0 0 0 0 0 0 0 0 0 0 152 1002 1435 1463 1298 1583 1159 994 949 536 265 86 101 36 2 4 8 1 1 0 0 0 0 0 0
0 0 0 0 0 0 0 0 0 0 0 0 0 0 0 0 0 0 0 0 0 0 0 0 0 12 881 1344 1635 1487 1254 1127 1104 663 337 219 78 59 7 15 1 1 0 0 0 0 0 0 0
0 0 0 0 0 0 0 0 0 0 0 0 0 0 0 0 0 0 0 0 0 0 0 0 0 0 248 1026 1351 1404 1238 1192 1186 816 398 199 155 61 23 19 3 3 0 0 0 0 0 0 0
0 0 0 0 0 0 0 0 0 0 0 0 0 0 0 0 0 0 0 0 0 0 0 0 0 4 275 730 1187 1333 1237 1285 918 421 332 265 212 85 95 33 0 0 0 0 0 0 0 0 0
0 0 0 0 0 0 0 0 0 0 0 0 0 0 0 0 0 0 0 0 0 0 0 0 0 83 418 668 935 1181 596 560 709 711 542 435 353 142 116 41 2 0 0 0 0 0 0 0 0
0 0 0 0 0 0 0 0 0 0 0 0 0 0 0 0 0 0 0 0 0 0 0 0 2 262 525 566 416 388 378 544 745 647 458 483 241 220 163 0 1 0 0 0 0 0 0 0 0
0 0 0 0 0 0 0 0 0 0 0 0 0 0 0 0 0 0 0 0 0 0 0 0 9 345 451 297 233 54 378 606 588 542 305 345 204 200 34 0 0 0 0 0 0 0 0 0 0
0 0 0 0 0 0 0 0 0 0 0 0 0 0 0 0 0 0 0 0 0 0 0 0 6 183 218 14 18 106 374 698 591 450 244 244 194 50 7 0 0 0 0 0 0 0 0 0 0
0 0 0 0 0 0 0 0 0 0 0 0 0 0 0 0 0 0 0 0 0 0 0 0 0 4 0 0 33 229 513 714 701 394 226 243 245 64 19 0 0 0 0 0 0 0 0 0 0
0 0 0 0 0 0 0 0 0 0 0 0 0 0 0 0 0 0 0 0 0 0 0 0 0 0 0 0 123 357 535 684 731 377 275 249 261 74 4 0 0 0 0 0 0 0 0 0 0
0 0 0 0 0 0 0 0 0 0 0 0 0 0 0 0 0 0 0 0 0 0 0 0 0 0 0 0 105 325 531 691 564 324 256 286 39 1 36 0 0 0 0 0 0 0 0 0 0
0 0 0 0 0 0 0 0 0 0 0 0 0 0 0 0 0 0 0 0 0 0 0 0 0 0 0 0 8 221 417 571 657 468 291 118 37 46 9 0 0 0 0 0 0 0 0 0 0
0 0 0 0 0 0 0 0 0 0 0 0 0 0 0 0 0 0 0 0 0 0 0 0 0 0 0 0 0 97 308 502 465 358 68 148 4 7 0 0 0 0 0 0 0 0 0 0 0
0 0 0 0 0 0 0 0 0 0 0 0 0 0 0 0 0 0 0 0 0 0 0 0 0 0 0 0 0 33 231 392 343 244 143 76 28 0 0 0 0 0 0 0 0 0 0 0 0
0 0 0 0 0 0 0 0 0 0 0 0 1 0 0 0 0 0 0 0 0 0 0 0 0 0 0 0 1 135 241 141 319 192 165 0 0 0 0 0 0 0 0 0 0 0 0 0 0
0 0 0 0 0 0 0 0 0 0 0 2 2 3 5 0 0 0 0 0 0 0 0 0 0 0 0 18 52 41 45 166 124 47 0 0 0 0 0 0 0 0 0 0 0 0 0 0 0

GFSSGP_con_mucape_045.txt.gz
CAPE
0 0 0 0 0 0 0 0 0 0 0 0 0 0 0 0 37 76 121 313 397 947 985 1312 1678 1425 904 364 216 111 5 0 1 6 26 69 23 0 0 0 0 0 0 0 12 36 97 73 42
0 0 0 0 0 0 0 0 0 0 0 0 0 0 0 11 2 148 263 286 491 708 1014 1085 1460 1294 763 316 208 74 1 0 2 6 33 28 0 0 0 0 0 0 0 0 2 8 14 11 7
0 0 0 0 0 0 0 0 0 0 0 0 0 0 1 34 15 145 342 353 563 783 1000 1162 1523 1261 755 293 95 37 1 0 0 1 0 0 0 0 0 0 0 0 0 0 0 2 1 4 1
0 0 0 0 0 0 0 0 0 0 0 0 0 0 0 0 52 152 398 415 644 776 1070 1245 1478 1311 925 476 96 31 0 0 0 0 2 0 0 0 0 0 0 0 0 0 0 0 0 0 0
0 0 0 0 0 0 0 0 0 0 0 0 0 2 6 11 58 289 549 501 745 783 1449 1245 1607 1355 1034 492 158 75 8 0 0 1 11 8 9 0 1 0 0 0 0 0 0 0 0 0 0
0 0 0 0 0 0 0 0 0 0 0 0 0 0 5 94 147 429 700 612 788 800 1071 1233 1414 1371 1169 804 451 221 84 8 0 0 0 17 16 21 1 0 0 0 0 0 0 0 0 0 0
0 0 0 0 0 0 0 0 0 0 0 0 0 0 7 5 371 599 741 708 892 853 832 1170 1214 1077 1122 1046 818 637 271 121 37 16 12 21 20 28 57 15 0 0 0 0 0 0 0 0 0
0 0 0 0 0 0 0 0 0 0 0 0 0 0 0 71 588 737 729 828 891 994 798 995 1134 1077 898 885 901 820 639 394 116 58 111 10 26 106 194 82 29 0 0 0 2 0 0 0 0
0 1 0 0 0 0 0 0 0 0 0 0 0 0 0 0 500 757 806 901 945 1006 873 877 1008 1147 953 960 841 762 603 397 156 38 62 7 20 100 36 14 64 17 0 0 5 0 0 0 0
6 0 0 0 0 0 0 0 0 0 0 0 0 0 0 0 178 599 730 846 973 1097 1022 907 1070 1110 1128 1155 1040 811 606 321 89 0 12 11 2 27 49 1 3 5 4 0 0 0 0 0 20
4 0 0 0 0 0 0 0 0 0 0 0 0 0 0 0 8 324 535 562 794 1006 1232 1096 1204 1143 996 1049 1357 1066 927 574 366 17 0 0 0 0 0 0 0 0 0 5 0 3 0 0 0
0 0 0 0 0 0 0 0 0 0 0 0 0 0 0 0 0 43 190 309 355 707 1045 1226 1211 1329 1255 1421 998 1136 1204 734 879 193 0 5 0 0 0 1 9 7 7 26 23 1 0 0 0
2 0 0 0 0 0 0 0 0 0 0 0 0 0 0 0 0 0 0 164 230 362 715 1058 1196 1357 1540 1443 1306 1118 1229 889 641 427 17 11 21 28 22 6 3 13 9 1 0 0 0 0 0
4 0 0 0 0 0 0 0 0 0 0 0 0 0 0 0 0 0 0 0 47 253 398 703 1106 1280 1468 1606 1991 1319 1089 1138 738 588 149 81 107 120 60 57 6 0 1 2 0 0 0 0 0
0 0 0 0 0 0 0 0 0 0 0 0 0 0 0 0 0 0 0 0 0 1 177 212 628 1018 1311 1446 1686 1844 1233 995 923 911 253 184 192 151 70 0 0 0 0 0 0 0 0 0 0
0 0 0 0 0 0 0 0 0 0 0 0 0 0 0 0 0 0 0 0 0 0 0 0 0 393 994 1249 1585 1568 1426 1138 1211 984 500 295 223 163 2 0 0 0 0 0 0 0 0 0 0
0 0 0 0 0 0 0 0 0 0 0 0 0 0 0 0 0 0 0 0 0 0 0 0 0 0 122 909 1288 1504 1451 1111 1133 1057 673 419 265 50 15 10 6 0 0 0 0 0 0 0 0
0 0 0 0 0 0 0 0 0 0 0 0 0 0 0 0 0 0 0 0 0 0 0 0 0 0 0 336 1181 1397 1392 1233 1272 1032 985 615 104 58 36 33 24 0 0 0 0 0 0 0 0
0 0 0 0 0 0 0 0 0 0 0 0 0 0 0 0 0 0 0 0 0 0 0 0 0 0 13 402 986 1308 1480 1176 1123 993 861 341 156 130 120 105 44 31 0 0 0 0 0 0 0
0 0 0 0 0 0 0 0 0 0 0 0 0 0 0 0 0 0 0 0 0 0 0 0 0 0 116 557 952 1141 1178 1019 1121 810 511 390 315 280 236 166 28 7 0 0 0 0 0 0 0
0 0 0 0 0 0 0 0 0 0 0 0 0 0 0 0 0 0 0 0 0 0 0 0 0 10 245 541 892 927 819 818 787 675 483 521 399 302 196 190 36 15 0 0 0 0 0 0 0
0 0 0 0 0 0 0 0 0 0 0 0 0 0 0 0 0 0 0 0 0 0 0 0 0 27 339 699 661 435 385 367 144 344 564 553 331 197 164 129 8 0 0 0 0 0 0 0 0
0 0 0 0 0 0 0 0 0 0 0 0 0 0 0 0 0 0 0 0 0 0 0 0 0 17 376 466 494 170 48 1 133 364 452 446 274 226 217 35 5 10 0 0 0 0 0 0 0
0 0 0 0 0 0 0 0 0 0 0 0 0 0 0 0 0 0 0 0 0 0 0 13 0 47 275 372 5 0 18 0 69 364 438 389 261 164 132 36 1 0 0 0 0 0 0 0 0
0 0 0 0 0 0 0 0 0 0 0 0 0 0 0 0 0 0 0 0 0 0 0 2 0 15 41 0 0 0 7 0 108 458 520 426 267 183 159 19 18 0 0 0 0 0 0 0 0
0 0 0 0 0 0 0 0 0 0 0 0 0 0 0 0 0 0 0 0 0 0 0 0 0 0 0 0 0 31 0 17 365 531 527 344 254 290 30 0 0 0 0 0 0 0 0 0 0
0 0 0 0 0 0 0 0 0 0 0 0 0 0 0 0 0 0 0 0 0 0 0 0 0 0 0 0 0 0 0 199 487 640 509 354 234 281 12 20 0 0 0 0 0 0 0 0 0
0 0 0 0 0 0 0 0 0 0 0 0 0 0 0 0 0 0 0 0 0 0 0 9 0 0 0 0 0 0 0 343 367 637 500 356 182 87 40 1 0 0 0 0 0 0 0 0 0
0 0 0 0 0 0 0 0 0 0 0 0 0 0 0 0 0 0 0 0 0 0 0 12 4 0 0 0 0 0 8 158 540 357 428 128 87 8 11 4 0 0 0 0 0 0 0 0 0
0 0 0 0 0 0 0 0 0 0 0 0 0 0 0 0 15 1 0 0 0 6 5 13 1 0 0 0 0 0 114 102 325 394 60 202 66 1 0 0 0 0 0 0 0 0 0 0 0

GFSSGP_con_mucape_048.txt.gz
CAPE
7 0 0 0 0 0 0 0 0 0 0 0 0 0 0 0 19 90 239 270 1086 943 1327 1579 1828 1311 951 350 236 189 69 42 79 69 71 28 1 0 0 0 0 0 0 9 45 55 82 57 43
0 0 0 0 0 0 0 0 0 0 0 0 0 0 0 0 115 57 280 346 907 930 1022 1187 1560 1270 805 416 297 94 4 1 9 9 61 31 0 0 0 0 0 0 0 0 18 6 13 10 5
0 0 0 0 0 0 0 0 2 0 0 0 0 0 0 32 30 159 313 433 780 954 924 1027 1387 1224 764 410 209 41 0 0 3 4 31 0 0 0 0 0 0 0 0 0 0 2 1 2 2
0 0 0 0 0 0 0 0 0 0 0 0 0 0 0 8 4 343 244 451 689 865 976 1134 1328 1176 858 491 80 15 0 0 0 0 0 0 0 0 0 0 0 0 0 0 0 0 0 0 0
0 0 0 0 0 0 0 0 0 0 0 0 0 0 22 27 167 341 295 497 615 1087 1051 1009 1451 1236 766 270 97 39 0 0 0 2 0 1 1 0 0 0 0 0 0 0 0 0 0 0 0
0 0 0 0 0 0 0 0 0 0 0 0 0 0 54 46 201 422 384 498 646 1338 1154 898 1119 1055 864 528 277 153 54 10 16 30 11 19 25 26 10 0 0 0 0 0 0 0 0 0 0
0 0 0 0 0 0 0 0 0 0 0 0 0 0 32 64 371 565 452 501 634 1244 1169 832 870 851 794 694 592 477 220 79 68 89 85 91 42 72 55 6 0 0 0 0 0 0 0 0 0
0 0 0 0 0 0 0 0 0 0 0 0 0 0 9 230 506 609 526 630 706 697 1008 921 878 754 656 633 660 634 472 245 123 92 119 14 7 55 193 83 29 0 0 0 0 0 0 0 0
0 0 0 0 0 0 0 0 0 0 0 0 0 0 0 188 567 576 566 665 699 747 804 930 1040 775 606 601 587 645 521 258 83 44 31 0 0 71 59 19 37 45 9 3 9 4 4 11 4
0 0 0 0 0 0 0 0 0 0 0 0 0 0 0 0 305 605 594 708 760 864 676 822 1043 880 770 774 599 529 411 184 31 0 0 0 1 86 24 10 35 49 26 13 6 0 0 0 3
0 0 0 0 0 0 0 0 0 0 0 0 0 0 0 0 0 326 455 610 802 887 802 671 900 1015 844 1041 858 631 478 240 48 1 0 0 0 3 24 0 0 0 0 0 1 1 0 0 0
0 0 0 0 0 0 0 0 0 0 0 0 0 0 0 0 0 0 209 352 627 867 987 819 933 974 1087 1192 1048 922 755 632 271 57 0 0 0 0 0 0 0 0 0 4 2 0 1 0 0
0 0 0 0 0 0 0 0 0 0 0 0 0 0 0 0 0 0 0 81 152 574 909 1055 990 1098 1008 1070 1214 1035 929 772 688 261 9 0 0 0 0 0 0 1 2 1 2 0 0 0 0
8 0 0 0 0 0 0 0 0 0 0 0 0 0 0 0 0 0 0 0 46 87 744 1049 1026 1140 1217 1286 1171 1027 1041 860 898 410 210 0 0 0 5 2 5 2 0 0 0 0 0 0 0
0 0 0 0 0 0 0 0 0 0 0 0 0 0 0 0 0 0 0 0 0 43 128 648 989 1007 1366 1320 1327 1214 1231 744 732 548 500 0 40 78 54 49 31 1 0 0 0 0 0 0 0
0 0 0 0 0 0 0 0 0 0 0 0 0 0 0 0 0 0 0 0 0 0 0 98 661 993 1192 1414 1421 1241 1170 949 764 632 679 142 264 175 66 57 0 0 0 0 0 0 0 0 0
0 0 0 0 0 0 0 0 0 0 0 0 0 0 0 0 0 0 0 0 0 0 0 0 36 524 906 1260 1398 1238 1173 1231 841 707 887 362 303 207 68 0 0 0 0 0 0 0 0 0 0
0 0 0 0 0 0 0 0 0 0 0 0 0 0 0 0 0 0 0 0 0 0 0 0 0 0 103 918 1420 1399 1174 1179 931 907 750 505 375 328 129 0 0 0 0 0 0 0 0 0 0
0 0 0 0 0 0 0 0 0 0 0 0 0 0 0 0 0 0 0 0 0 0 0 0 0 0 0 6 920 1402 1233 1283 1220 1011 814 671 468 399 126 51 0 19 0 0 0 0 0 0 0
0 0 0 0 0 0 0 0 0 0 0 0 0 0 0 0 0 0 0 0 0 0 0 0 0 0 0 0 150 1049 1145 1177 1245 1143 967 808 730 377 224 139 91 106 1 0 0 0 0 0 0
0 0 0 0 0 0 0 0 0 0 0 0 0 0 0 0 0 0 0 0 0 0 0 0 0 0 0 0 328 799 1092 985 1207 1191 1028 831 724 455 319 242 204 152 1 0 0 0 0 0 0
0 0 0 0 0 0 0 0 0 0 0 0 0 0 0 0 0 0 0 0 0 0 0 0 0 0 0 19 435 753 958 924 1094 1025 1018 713 611 476 388 252 248 229 57 0 0 0 0 0 0
0 0 0 0 0 0 0 0 0 0 0 0 0 0 0 0 0 0 0 0 0 0 0 0 0 0 0 50 460 707 864 882 905 786 836 681 611 390 439 242 222 128 29 28 0 0 0 0 0
0 0 0 0 0 0 0 0 0 0 0 0 0 0 0 0 0 0 0 0 0 0 0 0 0 0 3 213 631 740 839 771 771 700 573 536 401 358 364 238 184 114 43 1 0 0 0 0 0
0 0 0 0 0 0 0 0 0 0 0 0 0 0 0 0 0 0 0 0 0 0 0 0 0 0 103 513 509 632 556 523 286 217 232 135 254 291 346 232 187 61 0 0 0 0 0 0 0
0 0 0 0 0 0 0 0 0 0 0 0 0 0 0 0 0 0 0 0 0 0 0 0 0 0 233 483 484 555 275 49 2 0 3 59 314 395 246 240 167 112 10 0 0 0 0 0 0
0 0 0 0 0 0 0 0 0 0 0 0 0 0 0 0 0 0 0 0 0 0 0 0 0 29 194 384 482 229 0 0 0 0 16 205 439 367 296 244 182 25 5 0 0 0 0 0 0
0 0 0 0 0 0 0 0 0 0 0 0 0 0 0 0 0 0 0 0 0 0 0 0 4 64 128 261 58 1 13 25 0 25 199 424 484 393 324 218 27 33 6 0 0 0 0 0 0
0 0 0 0 0 0 0 0 0 0 0 0 0 0 0 0 0 0 0 0 0 0 0 0 68 64 63 37 5 6 67 4 9 174 278 493 351 272 162 82 16 14 0 0 0 0 0 0 0
0 0 0 0 0 0 0 0 0 0 0 0 0 0 0 0 0 0 0 2 1 9 47 108 126 56 32 10 8 74 10 1 119 421 187 225 207 94 23 9 1 1 0 0 0 0 0 0 0

GFSSGP_con_mucape_051.txt.gz
CAPE
5 0 0 0 0 0 0 0 0 0 0 0 0 0 0 0 4 20 163 728 790 1123 1328 1526 1674 1322 1078 818 567 538 366 311 253 137 30 12 0 1 0 0 0 8 15 32 12 18 69 76 59
0 0 0 0 0 0 0 0 0 0 0 0 0 0 0 92 48 191 872 857 909 1163 1312 1251 1387 1196 841 491 395 220 169 180 169 196 61 15 0 0 0 0 0 2 9 32 23 10 18 16 15
0 0 0 0 0 0 0 0 0 0 0 0 0 0 0 30 85 218 542 955 1158 1068 1237 1066 1304 1165 817 479 288 100 65 73 45 118 31 0 0 0 0 0 0 0 0 6 2 0 4 3 0
0 0 0 0 0 0 0 0 0 0 0 0 0 0 0 30 198 229 768 1011 989 952 1044 1192 1309 1208 980 651 134 40 4 16 2 40 0 0 0 0 0 0 0 0 0 0 0 0 0 0 0
0 0 0 0 0 0 0 0 0 0 0 0 0 0 0 202 334 287 731 984 915 950 834 981 1292 1156 776 368 114 38 0 0 0 0 0 0 0 1 0 0 0 0 0 0 0 0 0 0 0
0 0 0 0 0 0 0 0 0 0 0 0 0 0 33 247 224 373 527 907 940 1050 854 908 1000 915 707 411 301 173 36 13 2 14 5 5 3 2 0 0 0 0 0 0 0 0 0 0 0
0 0 0 0 0 0 0 0 0 0 0 0 0 0 37 172 355 328 459 921 1054 1053 977 867 715 585 549 434 359 212 121 96 111 103 122 130 137 62 14 0 0 0 0 0 0 0 0 0 0
0 0 0 0 0 0 0 0 0 0 0 0 0 0 96 195 466 365 429 1140 1238 1164 1065 796 589 487 416 331 430 301 147 160 216 185 129 18 1 106 91 45 0 0 0 0 0 0 0 0 0
0 0 0 0 0 0 0 0 0 0 0 0 0 0 267 371 594 488 464 1061 1263 1189 888 636 610 552 475 380 381 423 306 145 97 45 11 0 0 85 35 0 15 29 9 6 7 7 5 13 0
0 0 0 0 0 0 0 0 0 0 0 0 0 0 266 415 547 541 594 616 882 1061 899 832 618 503 537 495 431 347 208 45 14 18 7 0 0 79 29 0 15 76 50 46 31 7 0 0 0
0 0 0 0 0 0 0 0 0 0 0 0 0 0 0 211 493 610 630 614 665 747 1010 947 843 738 551 611 419 402 279 84 0 0 6 0 30 106 17 1 3 0 0 0 9 0 0 0 0
0 0 0 0 0 0 0 0 0 0 0 0 0 0 0 0 13 460 581 666 719 795 692 1123 1044 904 819 766 616 408 332 210 44 0 0 5 6 121 69 0 0 0 0 0 0 0 0 0 0
0 0 0 0 0 0 0 0 0 0 0 0 0 0 0 0 0 0 130 339 704 793 824 619 1124 984 974 953 881 687 754 388 254 70 0 0 3 68 0 0 0 0 0 0 0 0 0 0 0
0 3 0 0 0 0 0 0 0 0 0 0 0 0 0 0 0 0 0 4 170 561 908 845 807 1090 1080 1058 995 858 753 628 419 319 87 1 0 0 0 0 0 0 0 0 1 0 0 0 0
2 2 0 0 0 0 0 0 0 0 0 0 0 0 0 0 0 0 0 0 0 70 687 1007 893 938 1114 1154 1100 975 954 737 550 400 271 199 0 0 0 0 0 0 0 0 0 0 0 0 0
0 0 0 0 0 0 0 0 0 0 0 0 0 0 0 0 0 0 0 0 0 0 0 969 1104 1042 1153 1205 1264 1043 1070 995 733 454 333 268 19 52 54 63 4 7 0 0 0 0 0 0 0
0 0 0 0 0 0 0 0 0 0 0 0 0 0 0 0 0 0 0 0 0 0 0 195 1045 1073 1215 1357 1434 1292 1298 1136 833 628 421 462 109 134 175 142 84 34 0 0 0 0 0 0 0
0 0 0 0 0 0 0 0 0 0 0 0 0 0 0 0 0 0 0 0 0 0 0 0 117 988 1168 1434 1495 1413 1104 1252 974 754 456 410 268 275 270 213 92 0 0 0 0 0 0 0 0
0 0 0 0 0 0 0 0 0 0 0 0 0 0 0 0 0 0 0 0 0 0 0 0 0 346 990 1272 1509 1580 1151 957 1321 902 574 552 391 351 344 198 103 40 9 2 0 0 0 0 0
0 0 0 0 0 0 0 0 0 0 0 0 0 0 0 0 0 0 0 0 0 0 0 0 0 0 736 1085 1350 1364 1440 979 1233 1010 730 732 571 424 393 286 184 152 60 63 0 0 0 0 0
0 0 0 0 0 0 0 0 0 0 0 0 0 0 0 0 0 0 0 0 0 0 0 0 0 0 0 38 1027 1220 1270 1105 1102 1026 793 769 683 628 473 369 222 202 139 126 40 0 0 0 0
0 0 0 0 0 0 0 0 0 0 0 0 0 0 0 0 0 0 0 0 0 0 0 0 0 0 0 2 38 923 1135 1164 1040 1092 900 890 822 780 531 443 268 250 236 206 131 23 0 0 0
0 0 0 0 0 0 0 0 0 0 0 0 0 0 0 0 0 0 0 0 0 0 0 0 0 0 0 0 4 183 747 954 932 1073 977 940 840 802 640 494 274 339 291 174 126 66 37 0 0
0 0 0 0 0 0 0 0 0 0 0 0 0 0 0 0 0 0 0 0 0 0 0 0 0 0 0 0 13 52 515 843 820 905 750 788 577 394 447 362 273 297 213 130 109 79 2 0 0
0 0 0 0 0 0 0 0 0 0 0 0 0 0 0 0 0 0 0 0 0 0 0 0 0 0 0 0 25 126 400 882 768 653 467 467 437 432 354 238 349 283 176 175 146 13 9 1 0
0 0 0 0 0 0 0 0 0 0 0 0 0 0 0 0 0 0 0 0 0 0 0 0 0 0 0 13 43 375 548 827 718 508 285 286 301 317 264 265 432 363 148 137 41 17 7 0 0
0 0 0 0 0 0 0 0 0 0 0 0 0 0 0 0 0 0 0 0 0 0 0 0 0 0 0 92 217 512 564 864 734 505 428 320 278 226 120 70 413 252 158 123 64 14 19 0 0
0 0 0 0 0 0 0 0 0 0 0 0 0 0 0 0 0 0 0 0 0 0 0 0 0 0 40 329 358 362 405 785 599 429 295 129 83 43 94 188 164 211 131 41 13 19 12 0 0
0 0 0 0 0 0 0 0 0 0 0 0 0 0 0 0 0 0 0 0 0 0 0 0 0 7 251 326 332 382 364 620 451 289 113 14 52 79 214 249 196 60 52 14 15 9 0 0 0
0 0 0 0 0 0 0 0 0 0 0 0 0 0 0 0 0 0 0 0 0 0 0 21 33 119 308 188 140 258 344 311 230 94 55 31 187 248 294 244 49 28 28 3 2 0 0 0 0

GFSSGP_con_mucape_054.txt.gz
CAPE
2 0 0 0 0 0 0 0 0 0 0 0 0 0 0 0 2 0 45 324 894 1095 1233 1358 1771 1730 1643 1274 758 858 563 338 213 45 10 8 4 0 0 0 7 7 9 8 3 6 78 84 58
0 0 0 0 0 0 0 0 0 0 0 0 0 0 0 0 104 384 375 743 988 1037 1169 1128 1487 1460 1236 888 621 566 543 449 300 155 41 5 5 0 0 0 4 12 19 18 16 42 84 64 21
0 0 0 0 0 0 0 0 0 0 0 0 0 0 0 0 16 399 543 829 982 1110 1147 1041 1328 1328 999 840 653 558 488 425 476 219 16 0 1 0 0 0 0 11 42 33 13 12 17 4 0
0 0 0 0 0 0 0 0 0 0 0 0 0 0 0 0 193 274 851 890 1008 1096 1027 1124 1294 1216 1038 828 515 331 273 151 145 181 5 0 0 0 0 0 0 3 6 4 0 0 0 0 0
0 0 0 0 0 0 0 0 0 0 0 0 0 0 0 62 163 864 1054 981 861 1112 907 1025 1341 1152 766 497 245 154 138 84 181 59 2 0 0 0 0 0 0 0 1 2 0 1 0 0 0
0 0 0 0 0 0 0 0 0 0 0 0 0 0 0 102 262 1009 1092 867 818 989 893 945 1109 1065 853 482 208 177 182 73 66 17 0 0 2 1 0 0 0 0 0 0 0 0 0 0 0
0 0 0 0 0 0 0 0 0 0 0 0 0 0 53 152 391 942 1007 924 843 830 734 820 763 644 554 400 340 197 163 92 91 122 103 86 77 9 0 0 0 0 1 0 0 0 0 0 0
0 0 0 0 0 0 0 0 0 0 0 0 0 0 66 207 295 853 991 996 967 861 768 700 575 429 307 233 328 200 162 190 151 239 210 133 87 88 28 0 0 0 0 0 0 0 0 0 0
0 0 0 0 0 0 0 0 0 0 0 0 0 0 0 229 231 585 939 1011 1102 1090 1001 861 687 367 263 212 193 224 203 210 212 124 53 29 52 70 41 0 0 11 0 2 1 0 4 1 0
0 0 0 0 0 0 0 0 0 0 0 0 0 84 260 403 371 288 1024 1080 1185 1178 1071 883 595 362 293 280 256 149 75 58 45 30 19 3 0 92 46 0 0 66 63 65 33 28 23 0 0
0 0 0 0 0 0 0 0 0 0 0 0 0 276 313 451 530 369 742 1158 1254 1202 1102 769 572 369 336 338 313 228 100 25 0 8 7 0 1 130 79 4 0 4 5 0 33 3 0 0 0
0 0 0 0 0 0 0 0 0 0 0 0 0 0 41 338 555 477 574 1051 1164 1213 1048 820 708 579 410 393 333 291 195 60 0 0 0 0 15 135 171 23 5 0 0 0 0 0 0 0 0
0 0 0 0 0 0 0 0 0 0 0 0 0 0 0 0 71 482 484 551 720 849 1024 952 871 822 783 655 373 323 273 199 65 0 0 0 18 64 131 66 4 0 0 0 0 0 0 0 0
0 0 0 0 0 0 0 0 0 0 0 0 0 0 0 0 0 0 210 502 574 704 809 1012 1011 950 947 819 739 495 417 308 210 27 0 0 4 41 152 64 0 0 0 0 0 0 0 0 0
1 2 0 0 0 0 0 0 0 0 0 0 0 0 0 0 0 0 0 1 106 173 748 922 1075 1125 1087 986 935 775 665 524 401 296 30 0 0 93 178 13 0 0 0 0 0 0 0 0 0
3 2 0 0 0 0 0 0 0 0 0 0 0 0 0 0 0 0 0 0 0 0 8 671 868 1065 1174 1137 1046 949 837 700 560 414 382 132 54 16 12 0 7 3 3 0 0 0 0 0 0
0 0 0 0 0 0 0 0 0 0 0 0 0 0 0 0 0 0 0 0 0 0 0 0 646 880 1045 1119 1133 998 969 893 734 663 606 316 243 121 9 11 34 22 12 11 0 0 0 0 0
0 0 0 0 0 0 0 0 0 0 0 0 0 0 0 0 0 0 0 0 0 0 0 0 206 763 929 1046 1115 1124 1041 1045 971 822 784 427 306 212 50 66 72 69 41 38 0 0 0 0 0
0 0 0 0 0 0 0 0 0 0 0 0 0 0 0 0 0 0 0 0 0 0 0 0 0 378 860 925 894 1041 1047 1167 1167 993 843 706 416 272 89 122 153 157 99 9 4 2 0 0 0
0 0 0 0 0 0 0 0 0 0 0 0 0 0 0 0 0 0 0 0 0 0 0 0 0 0 460 909 968 958 1040 1296 1252 1084 898 798 550 405 244 192 266 286 118 54 27 22 8 2 0
0 0 0 0 0 0 0 0 0 0 0 0 0 0 0 0 0 0 0 0 0 0 0 0 0 0 0 734 1028 1017 928 841 1031 995 825 843 664 525 386 307 359 380 172 109 97 68 39 45 8
0 0 0 0 0 0 0 0 0 0 0 0 0 0 0 0 0 0 0 0 0 0 0 0 0 0 0 234 1073 975 701 779 721 779 955 894 710 620 498 407 395 357 213 126 166 156 101 96 24
0 0 0 0 0 0 0 0 0 0 0 0 0 0 0 0 0 0 0 0 0 0 0 0 0 0 0 0 239 849 757 601 777 869 871 918 782 652 547 456 490 411 314 194 207 241 147 88 62
0 0 0 0 0 0 0 0 0 0 0 0 0 0 0 0 0 0 0 0 0 0 0 0 0 0 0 0 0 217 617 581 658 731 659 758 693 629 411 398 404 403 337 242 219 316 134 87 70
0 0 0 0 0 0 0 0 0 0 0 0 0 0 0 0 0 0 0 0 0 0 0 0 0 0 0 0 0 3 296 610 612 592 707 676 551 489 361 291 320 227 211 291 234 217 126 90 78
0 0 0 0 0 0 0 0 0 0 0 0 0 0 0 0 0 0 0 0 0 0 0 0 0 0 0 0 0 0 5 193 382 543 523 473 393 320 146 172 168 219 111 207 294 198 122 42 30
0 0 0 0 0 0 0 0 0 0 0 0 0 0 0 0 0 0 0 0 0 0 0 0 0 0 0 0 0 0 0 25 131 273 229 285 285 167 148 109 125 196 85 94 121 176 72 22 9
0 0 0 0 0 0 0 0 0 0 0 0 0 0 0 0 0 0 0 0 0 0 0 0 0 0 0 0 0 0 0 81 118 205 189 187 110 117 93 107 122 162 39 84 182 63 30 31 10
0 0 0 0 0 0 0 0 0 0 0 0 0 0 0 0 0 0 0 0 0 0 0 0 0 0 0 0 0 0 0 134 322 151 201 171 104 114 123 160 297 38 90 77 116 123 0 17 15
0 0 0 0 0 0 0 0 0 0 0 0 0 0 0 0 0 0 0 0 0 0 0 0 4 0 0 3 0 0 113 433 433 255 233 130 203 225 249 159 28 103 171 49 18 0 7 4 0

GFSSGP_con_mucape_057.txt.gz
CAPE
2 0 0 0 0 0 0 0 0 0 0 0 0 0 0 0 0 0 29 451 555 853 1239 1584 1999 1947 1835 1573 1202 1271 900 584 284 104 44 5 0 0 0 9 11 0 2 27 4 78 96 89 63
0 0 0 0 0 0 0 0 0 0 0 0 0 0 0 0 46 204 281 648 826 948 1170 1273 1862 1955 1479 946 757 677 584 325 179 82 12 4 4 0 0 4 6 4 11 10 13 52 117 73 31
0 0 0 0 0 0 0 0 0 0 0 0 0 0 0 0 12 198 230 874 855 943 1006 1173 1698 1606 1343 961 800 579 522 460 302 144 28 11 5 1 0 1 6 32 43 70 59 77 49 24 7
0 0 0 0 0 0 0 0 0 0 0 0 0 0 0 0 95 212 768 925 873 962 985 1190 1451 1454 1245 1101 991 743 695 686 510 175 44 7 2 0 0 0 9 14 41 25 5 3 5 1 0
0 0 0 0 0 0 0 0 0 0 0 0 0 0 0 1 162 693 914 884 829 949 951 1026 1394 1228 951 747 658 683 391 421 489 142 47 1 0 0 0 0 1 9 8 4 0 0 0 0 0
0 0 0 0 0 0 0 0 0 0 0 0 0 0 0 56 725 856 944 851 851 846 907 910 1086 1105 986 553 555 583 400 285 394 136 54 0 0 0 0 0 0 1 5 1 0 0 0 0 0
0 0 0 0 0 0 0 0 0 0 0 0 0 0 15 69 784 1082 940 800 888 864 813 867 870 783 750 602 393 387 398 370 394 236 100 95 63 0 0 0 0 1 3 2 0 0 0 0 0
0 0 0 0 0 0 0 0 0 0 0 0 0 0 48 156 854 1171 1013 803 904 811 730 810 774 675 429 253 308 259 262 232 268 220 158 138 79 58 0 0 6 3 1 0 0 0 0 0 0
0 0 0 0 0 0 0 0 0 0 0 0 0 0 0 187 948 1184 1073 891 856 778 686 718 645 521 277 184 182 213 221 180 220 207 116 76 42 56 0 0 0 8 0 0 0 0 0 0 0
0 0 0 0 0 0 0 0 0 0 0 0 0 0 2 239 728 1066 1086 1374 1405 815 721 680 651 521 213 154 155 103 106 139 123 119 103 88 69 65 45 0 5 53 58 73 27 28 27 0 0
0 0 0 0 0 0 0 0 0 0 0 0 0 25 90 246 514 959 1029 1021 1105 1013 923 796 701 548 315 163 143 88 77 89 98 81 86 42 71 113 118 9 0 18 33 24 81 24 0 0 0
0 0 0 0 0 0 0 0 0 0 0 0 0 217 281 329 317 645 941 1014 930 1089 1137 864 771 633 341 190 161 101 53 47 55 58 61 51 11 58 167 56 5 3 0 0 0 0 0 0 0
0 0 0 0 0 0 0 0 0 0 0 0 0 29 295 356 427 437 471 894 1005 1134 1226 1149 905 667 459 234 189 150 92 33 17 24 27 29 12 32 191 132 32 3 0 0 0 0 0 0 0
0 0 0 0 0 0 0 0 0 0 0 0 0 0 0 2 5 239 478 567 752 1138 1271 1192 1011 765 612 504 462 286 151 88 35 11 5 15 15 23 143 189 71 25 0 0 0 0 0 0 0
0 0 0 0 0 0 0 0 0 0 0 0 0 0 0 0 0 0 0 370 528 718 1054 1188 1071 868 787 712 712 630 328 178 225 155 92 0 9 16 61 159 115 12 0 0 0 0 0 0 0
12 7 0 0 0 0 0 0 0 0 0 0 0 0 0 0 0 0 0 0 5 305 300 648 946 962 948 847 808 746 572 445 404 381 239 55 0 3 14 124 154 1 3 5 6 0 0 0 0
11 0 0 0 0 0 0 0 0 0 0 0 0 0 0 0 0 0 0 0 0 0 6 0 747 1012 1011 967 923 793 708 707 654 535 388 298 94 6 18 116 141 0 14 12 10 4 0 0 0
0 0 0 0 0 0 0 0 0 0 0 0 0 0 0 0 0 0 0 0 0 0 0 4 65 797 998 980 973 935 909 874 808 693 511 452 432 164 122 42 11 10 30 14 16 9 0 0 0
0 0 0 0 0 0 0 0 0 0 0 0 0 0 0 0 0 0 0 0 0 0 0 0 0 192 749 919 897 917 855 963 938 833 729 636 633 378 267 167 41 41 78 56 37 23 0 0 0
0 0 0 0 0 0 0 0 0 0 0 0 0 0 0 0 0 0 0 0 0 0 0 0 0 18 297 725 918 813 785 791 971 914 969 811 793 526 337 257 115 96 125 137 126 43 6 4 0
0 0 0 0 0 0 0 0 0 0 0 0 0 0 0 0 0 0 0 0 0 0 0 0 0 0 38 520 726 833 817 699 728 787 899 1029 953 695 482 303 236 147 200 235 230 89 56 28 20
0 0 0 0 0 0 0 0 0 0 0 0 0 0 0 0 0 0 0 0 0 0 0 0 0 0 0 170 565 672 674 406 509 538 875 947 940 786 607 406 334 213 238 279 265 129 93 90 71
0 0 0 0 0 0 0 0 0 0 0 0 0 0 0 0 0 0 0 0 0 0 0 0 0 0 0 0 257 661 621 489 371 548 654 797 883 836 677 456 447 288 316 297 329 140 89 155 181
0 0 0 0 0 0 0 0 0 0 0 0 0 0 0 0 0 0 0 0 0 0 0 0 0 0 0 0 13 449 469 526 518 524 537 668 684 728 714 518 388 276 285 247 313 102 136 215 185
0 0 0 0 0 0 0 0 0 0 0 0 0 0 0 0 0 0 0 0 0 0 0 0 0 0 0 0 0 11 293 429 544 591 532 597 587 754 683 567 407 347 202 174 210 137 141 185 182
0 0 0 0 0 0 0 0 0 0 0 0 0 0 0 0 0 0 0 0 0 0 0 0 0 0 0 0 0 0 11 96 234 364 478 502 475 522 525 499 418 266 103 140 107 100 109 176 109
0 0 0 0 0 0 0 0 0 0 0 0 0 0 0 0 0 0 0 0 0 0 0 0 0 0 0 0 0 0 0 24 51 144 269 380 317 364 391 175 221 97 78 69 91 129 89 114 37
0 0 0 0 0 0 0 0 0 0 0 0 0 0 0 0 0 0 0 0 0 0 0 0 0 0 0 0 0 0 0 0 6 27 142 281 227 157 191 157 64 52 59 56 131 156 67 96 8
0 0 0 0 0 0 0 0 0 0 0 0 0 0 0 0 0 0 0 0 0 0 0 0 0 0 0 0 0 0 0 0 0 0 4 190 141 129 84 98 71 75 56 89 168 124 86 5 17
0 0 0 0 0 0 0 0 0 0 0 0 0 0 0 0 0 0 0 0 0 0 0 0 0 0 0 1 0 0 0 0 0 0 0 101 186 105 94 70 96 98 163 125 154 150 17 17 64

GFSSGP_con_mucape_060.txt.gz
CAPE
25 0 0 0 0 0 0 0 0 0 0 0 0 0 0 0 0 0 4 311 347 639 1431 1839 2140 2088 2075 2075 1851 1682 1378 856 469 164 50 23 1 1 7 17 9 0 0 19 45 90 87 71 35
0 0 0 0 0 0 0 0 0 0 0 0 0 0 0 0 30 91 247 444 579 896 1339 1505 2090 2150 2058 1821 1549 1504 1006 617 350 124 44 6 2 0 2 3 0 2 8 13 14 100 79 66 27
0 0 0 0 0 0 0 0 0 0 0 0 0 0 0 0 17 97 191 664 762 1043 1143 1410 2009 2094 1839 1640 1304 1158 856 439 258 102 41 46 5 0 1 3 3 27 16 21 13 110 86 22 4
0 0 0 0 0 0 0 0 0 0 0 0 0 0 0 0 14 136 563 840 892 1037 1087 1522 1897 1826 1486 1220 1024 783 671 515 392 151 37 21 7 0 0 2 12 59 119 92 54 16 13 6 0
0 0 0 0 0 0 0 0 0 0 0 0 0 0 0 0 178 587 851 842 809 899 1103 1363 1710 1624 1433 1284 1136 1138 920 793 575 152 76 39 2 0 0 1 21 8 35 13 2 0 1 0 0
0 0 0 0 0 0 0 0 0 0 0 0 0 0 0 92 544 1048 1079 803 719 947 1042 1067 1238 1279 1221 1179 1114 1032 703 735 541 180 102 23 1 0 0 0 14 17 17 7 2 0 0 0 0
0 0 0 0 0 0 0 0 0 0 0 0 0 0 0 12 715 1215 1151 787 1319 1197 928 958 850 834 894 464 806 642 559 487 717 381 176 90 32 0 0 0 0 15 18 8 0 0 0 0 0
0 0 0 0 0 0 0 0 0 0 0 0 0 0 0 77 1216 1041 930 971 1246 1017 796 806 724 684 580 399 478 517 436 383 472 296 166 115 34 16 0 0 2 3 3 0 0 0 0 1 0
0 0 0 0 0 0 0 0 0 0 0 0 0 0 0 87 1055 1008 907 1371 1578 974 762 690 668 593 467 319 202 277 279 237 236 151 89 71 23 4 0 0 16 64 19 0 0 0 6 5 0
0 0 0 0 0 0 0 0 0 0 0 0 0 0 0 565 1137 1222 1655 1642 1299 1079 908 733 611 553 383 193 156 136 135 87 114 109 87 85 65 60 0 0 12 90 76 51 5 27 52 0 0
0 0 0 0 0 0 0 0 0 0 0 0 0 0 0 649 1094 1265 1468 1126 877 1020 1133 1020 517 479 368 167 137 86 95 65 107 125 114 90 84 90 86 0 5 16 28 37 69 45 0 0 0
0 0 0 0 0 0 0 0 0 0 0 0 0 0 33 255 920 1022 1237 1153 1202 1326 1062 1040 610 611 499 312 136 79 56 93 82 112 121 115 124 129 132 91 0 4 18 6 39 0 0 0 0
0 0 0 0 0 0 0 0 0 0 0 0 0 0 21 297 400 542 861 968 1293 1571 1384 1239 774 663 565 437 233 77 49 71 92 83 85 99 61 47 67 131 56 0 7 2 2 0 0 0 0
0 0 0 0 0 0 0 0 0 0 0 0 0 0 169 75 378 426 432 564 895 992 1271 1381 1015 789 681 567 393 159 110 64 38 47 54 55 62 35 37 135 111 24 0 0 0 0 0 0 0
0 0 0 0 0 0 0 0 0 0 0 0 0 0 0 171 249 261 300 491 495 669 920 955 1091 964 830 685 504 344 313 262 102 6 2 20 25 24 10 87 129 61 14 0 0 0 0 0 0
0 0 0 0 0 0 0 0 0 0 0 0 0 0 0 0 0 0 0 0 3 375 506 920 1124 1131 998 871 685 541 512 404 343 150 106 101 34 0 0 68 121 90 47 0 0 0 0 0 0
0 0 0 0 0 0 0 0 0 0 0 0 0 0 0 0 0 0 0 0 0 0 0 179 800 960 1026 963 871 709 564 560 516 358 278 269 158 5 0 14 45 105 41 1 2 4 6 0 0
0 0 0 0 0 0 0 0 0 0 0 0 0 0 0 0 0 0 0 0 0 0 0 0 62 761 809 885 881 771 695 686 652 522 502 478 386 170 9 4 34 126 104 3 10 10 6 0 0
0 0 0 0 0 0 0 0 0 0 0 0 0 0 0 0 0 0 0 0 0 0 0 0 0 233 774 775 835 806 694 751 712 716 660 628 579 378 228 64 62 101 91 2 15 19 7 0 0
5 0 0 0 0 0 0 0 0 0 0 0 0 0 0 0 0 0 0 0 0 0 0 0 0 0 373 664 661 614 578 835 806 737 782 829 713 535 381 286 169 108 41 17 53 42 20 0 0
0 0 0 0 0 0 0 0 0 0 0 0 0 0 0 0 0 0 0 0 0 0 0 0 0 0 0 439 552 641 722 652 990 999 745 922 801 753 572 470 310 168 96 58 76 87 80 65 30
0 0 0 0 0 0 0 0 0 0 0 0 0 0 0 0 0 0 0 0 0 0 0 0 0 0 0 21 410 425 458 512 482 682 704 710 831 852 767 642 478 235 198 142 127 146 129 142 57
0 0 0 0 0 0 0 0 0 0 0 0 0 0 0 0 0 0 0 0 0 0 0 0 0 0 0 0 99 384 400 461 550 491 672 644 615 813 798 692 580 338 257 200 179 183 113 131 130
1 0 0 0 0 0 0 0 0 0 0 0 0 0 0 0 0 0 0 0 0 0 0 0 0 0 0 0 0 167 257 391 437 470 536 547 554 612 717 628 517 438 295 291 238 186 125 191 152
0 0 0 0 0 0 0 0 0 0 0 0 0 0 0 0 0 0 0 0 0 0 0 0 0 0 0 0 0 0 167 275 275 339 396 474 533 483 634 550 549 442 326 336 288 174 115 75 68
0 0 0 0 0 0 0 0 0 0 0 0 0 0 0 0 0 0 0 0 0 0 0 0 0 0 0 0 0 0 4 137 328 340 309 273 328 292 450 471 393 455 329 150 153 69 57 66 94
0 0 0 0 0 0 0 0 0 0 0 0 0 0 0 0 0 0 0 0 0 0 0 0 0 0 0 0 0 0 0 0 16 75 114 175 203 215 230 209 385 358 318 108 82 56 63 94 114
0 0 0 0 0 0 0 0 0 0 0 0 0 0 0 0 0 0 0 0 0 0 0 0 0 0 0 0 0 0 0 0 0 0 7 36 69 126 192 160 189 291 207 70 58 45 70 76 109
0 0 0 0 0 0 0 0 0 0 0 0 0 0 0 0 0 0 0 0 0 0 0 0 0 0 0 0 0 0 0 0 0 0 8 15 24 62 149 131 121 109 71 55 51 27 50 112 96
0 0 0 0 0 0 0 0 0 0 0 0 0 0 0 0 0 0 0 0 0 0 0 0 0 0 0 0 0 0 0 0 0 0 10 18 7 1 125 115 95 74 62 33 45 61 73 111 98

GFSSGP_con_mucape_063.txt.gz
CAPE
58 0 0 0 0 0 0 0 0 0 0 0 0 0 0 0 0 0 8 444 277 558 1329 1703 2270 2266 2341 2103 1815 1700 1525 1090 488 222 61 69 50 53 47 33 5 1 1 0 75 66 62 43 5
3 0 0 0 0 0 0 0 0 0 0 0 0 0 0 0 3 73 315 427 566 1084 1393 1552 2167 2273 2345 2184 1883 1715 1404 975 505 186 58 47 16 22 49 3 0 0 13 16 83 73 73 34 0
0 0 0 0 0 0 0 0 0 0 0 0 0 0 0 0 4 126 172 621 891 1373 1390 1634 2152 2315 2274 2088 1879 1725 1255 810 425 166 90 8 1 0 0 0 0 13 37 56 60 135 56 6 0
0 0 0 0 0 0 0 0 0 0 0 0 0 0 0 0 1 102 639 825 1152 1351 1349 1783 2152 2263 2074 1781 1724 1442 1043 751 350 170 95 28 2 0 3 1 62 159 143 168 143 104 7 0 0
0 0 0 0 0 0 0 0 0 0 0 0 0 0 0 0 284 589 987 984 1060 1156 1296 1549 2009 1949 1630 1440 1197 1018 943 895 495 130 74 24 3 2 5 1 57 112 103 70 40 2 1 0 0
0 0 0 0 0 0 0 0 0 0 0 0 0 0 0 161 486 1123 857 981 889 939 1425 1403 1536 1536 1465 1336 1120 993 1029 1027 585 205 90 32 3 0 0 9 9 19 40 41 26 6 4 0 0
0 0 0 0 0 0 0 0 0 0 0 0 0 0 0 70 575 1561 1511 850 798 1026 1264 1270 1146 1001 1022 948 875 993 991 1084 714 435 253 115 26 0 0 2 41 28 7 13 11 2 0 0 0
0 0 0 0 0 0 0 0 0 0 0 0 0 0 0 0 738 1662 1605 799 684 750 1067 1044 912 761 665 497 551 452 397 410 630 378 186 78 7 10 0 0 35 51 24 1 0 0 0 3 0
0 0 0 0 0 0 0 0 0 0 0 0 0 0 0 50 1400 1881 1545 925 982 1164 870 884 824 717 581 339 441 358 277 233 287 187 80 24 2 0 0 0 5 42 26 0 0 0 22 3 0
0 0 0 0 0 0 0 0 0 0 0 0 0 0 53 520 1595 1979 1496 1226 1340 1318 1186 671 648 625 449 297 318 310 257 216 194 171 120 89 43 1 0 0 27 118 63 40 11 53 0 0 0
0 0 0 0 0 0 0 0 0 0 0 0 0 0 40 939 1572 1586 1415 1285 829 1226 1348 861 748 473 390 291 193 159 204 174 191 144 115 107 91 92 22 4 37 82 34 61 108 95 0 0 0
0 0 0 0 0 0 0 0 0 0 0 0 0 0 0 278 1383 934 1122 1272 917 1441 1292 1437 1049 482 367 256 158 115 118 105 117 146 95 106 106 134 122 36 25 55 68 82 111 7 0 0 0
0 0 0 0 0 0 0 0 0 0 0 0 0 0 0 0 312 653 1181 1542 1383 1288 1198 1223 936 524 457 441 304 157 76 85 79 107 100 90 95 115 139 115 38 29 40 20 38 0 0 0 0
0 0 0 0 0 0 0 0 0 0 0 0 0 0 0 0 73 265 419 556 821 967 1304 1309 1278 1115 601 566 450 292 135 58 71 70 82 85 64 66 88 112 90 19 3 0 0 0 0 0 0
0 0 0 0 0 0 0 0 0 0 0 0 0 0 0 0 6 219 311 369 331 769 830 868 1149 1277 828 622 495 449 336 141 126 72 47 43 59 58 27 56 77 71 0 0 0 0 0 0 0
3 6 0 0 0 0 0 0 0 0 0 0 0 0 0 0 0 0 101 365 299 299 603 801 683 977 1232 743 626 487 426 291 221 219 131 42 22 35 31 30 66 90 37 1 0 0 0 0 0
11 0 0 0 0 0 0 0 0 0 0 0 0 0 0 0 0 0 12 66 41 0 0 312 734 766 838 903 799 694 555 457 359 359 310 196 108 109 33 18 46 78 69 31 0 0 0 0 0
0 0 0 0 0 0 0 0 0 0 0 0 0 0 0 0 0 0 0 0 0 0 0 0 247 771 731 797 776 804 727 622 595 538 487 403 218 240 160 50 7 42 107 73 0 0 0 0 0
0 0 0 0 0 0 0 0 0 0 0 0 0 0 0 0 0 0 0 0 0 0 0 0 0 99 810 535 728 852 453 592 670 626 562 517 428 358 274 166 3 0 26 104 28 0 0 9 0
1 0 0 0 0 0 0 0 0 0 0 0 0 0 0 0 0 0 0 0 0 0 0 0 0 0 328 583 440 535 564 445 650 502 535 638 603 527 462 361 175 29 19 89 84 0 16 0 0
2 0 0 0 0 0 0 0 0 0 0 0 0 0 0 0 0 0 0 0 0 0 0 0 0 0 0 471 588 385 485 415 422 604 831 881 675 686 638 532 364 206 77 75 86 18 20 35 17
0 5 0 0 0 0 0 0 0 0 0 0 0 0 0 0 0 0 0 0 0 0 0 0 0 0 0 14 431 401 345 384 407 437 484 863 817 704 780 697 532 309 161 154 115 59 42 58 64
10 0 0 0 0 0 0 0 0 0 0 0 0 0 0 0 0 0 0 0 0 0 0 0 0 0 0 0 7 365 349 427 536 454 380 614 956 708 742 789 715 502 407 190 187 134 63 93 107
0 0 0 0 0 0 0 0 0 0 0 0 0 0 0 0 0 0 0 0 0 0 0 0 0 0 0 0 0 115 321 409 231 384 392 390 529 493 607 700 730 598 447 420 339 228 135 135 128
0 0 0 0 0 0 0 0 0 0 0 0 0 0 0 0 0 0 0 0 0 0 0 0 0 0 0 0 0 0 60 239 193 243 348 364 372 413 535 626 550 586 467 448 344 281 188 154 106
0 0 0 0 0 0 0 0 0 0 0 0 0 0 0 0 0 0 0 0 0 0 0 0 0 0 0 0 0 0 0 0 54 141 172 191 267 347 346 314 236 446 478 388 320 218 202 142 137
0 0 0 0 0 0 0 0 0 0 0 0 0 0 0 0 0 0 0 0 0 0 0 0 0 0 0 0 0 0 0 0 0 0 40 85 127 176 165 176 200 230 385 380 302 199 143 130 113
0 0 0 0 0 0 0 0 0 0 0 0 0 0 0 0 0 0 0 0 0 0 0 0 0 0 0 0 0 0 0 0 0 0 0 0 7 38 68 79 90 93 143 363 328 267 126 52 71
0 0 0 0 0 0 0 0 0 0 0 0 0 0 0 0 0 0 0 0 0 0 0 0 0 0 0 0 0 0 0 0 0 0 0 0 0 1 26 34 47 81 65 81 138 175 109 63 72
0 0 0 0 0 0 0 0 0 0 0 0 0 0 0 0 0 0 0 0 0 0 0 0 0 0 0 0 0 0 0 0 0 0 0 0 1 0 0 16 43 67 117 124 94 249 54 55 1

GFSSGP_con_mucape_066.txt.gz
CAPE
109 12 0 0 0 0 0 0 0 0 0 0 0 0 0 0 0 16 333 691 323 670 1564 1752 2373 2337 2479 2374 2211 1975 1652 1012 666 388 198 175 112 5 15 3 1 0 2 80 69 51 24 4 0
131 0 0 0 0 0 0 0 0 0 0 0 0 0 0 0 1 412 647 763 516 1180 1396 1466 2272 2465 2369 2140 2026 1893 1494 904 585 246 95 63 37 66 61 4 0 0 0 9 96 60 42 0 0
72 0 0 0 0 0 0 0 0 0 0 0 0 0 0 0 33 468 675 732 730 1185 1442 1650 2358 2560 2440 2197 2019 1774 1563 999 554 230 76 8 3 15 2 0 0 3 80 58 138 111 9 0 0
1 0 0 0 0 0 0 0 0 0 0 0 0 0 0 0 56 497 894 800 988 1286 1526 1751 2300 2493 2395 2214 1938 1794 1435 955 454 142 62 5 3 2 0 0 79 160 117 61 144 39 3 0 0
4 0 6 0 0 0 0 0 0 0 0 0 0 0 0 111 514 924 1045 1023 1129 1193 1391 1649 2340 2398 2294 2045 1899 1286 1024 868 425 143 69 3 1 0 0 0 103 111 174 156 85 23 0 0 0
10 0 2 0 0 0 0 0 0 0 0 0 0 0 0 398 863 1149 1198 1215 1230 1272 1228 1479 1859 1902 1787 1661 1420 1007 798 761 492 162 81 38 0 0 0 4 104 117 106 76 40 12 0 0 0
0 0 0 0 0 0 0 0 0 0 0 0 0 0 0 334 1019 987 1238 1219 1257 1256 1158 1114 1410 1082 927 931 854 745 688 1022 606 401 210 59 26 1 0 9 12 39 73 50 21 19 0 0 0
0 0 0 0 0 0 0 0 0 0 0 0 0 0 0 137 1049 824 949 1245 1198 1120 1166 1120 1062 912 759 471 548 632 663 850 510 340 197 54 0 0 0 41 100 44 37 12 0 0 0 0 0
0 0 0 0 0 0 0 0 0 0 0 0 0 0 0 58 989 884 1503 1069 924 1188 1021 1011 918 795 488 434 474 323 251 350 351 185 61 4 0 0 0 0 24 104 44 0 0 2 20 0 0
0 0 0 0 0 0 0 0 0 0 0 0 0 0 87 259 832 985 1801 1493 1127 1155 1073 951 861 644 477 313 332 436 244 218 156 224 98 72 0 0 0 0 24 82 98 67 12 89 0 0 0
0 0 0 0 0 0 0 0 0 0 0 0 0 0 134 349 674 974 1190 812 1046 1012 788 912 808 813 570 360 212 220 207 151 139 151 136 76 4 0 0 0 9 18 0 1 30 70 0 1 0
0 0 0 0 0 0 0 0 0 0 0 0 0 0 0 402 545 933 1395 853 764 809 807 1319 757 652 611 439 243 119 108 119 116 128 103 90 43 65 23 0 0 6 0 3 32 44 15 4 0
3 0 0 0 0 0 0 0 0 0 0 0 0 0 0 0 528 680 876 768 803 775 721 1255 722 618 730 597 370 142 98 86 63 86 92 73 62 76 133 90 7 0 0 12 44 37 2 4 0
15 20 0 0 0 0 0 0 0 0 0 0 0 0 0 0 0 315 735 765 803 755 805 686 692 812 613 771 556 274 164 92 45 60 77 56 56 80 172 191 133 20 2 10 39 29 0 0 0
23 11 10 0 0 0 0 0 0 0 0 0 0 0 0 0 0 0 66 253 933 1139 1023 900 679 946 763 832 767 517 286 198 116 79 62 65 98 144 150 173 189 159 9 8 21 28 0 0 0
56 29 20 0 0 0 0 0 0 0 0 0 0 0 0 0 0 0 16 153 186 160 521 1060 930 746 714 929 930 769 564 328 191 130 97 67 76 115 132 121 126 161 125 21 2 1 0 0 0
47 0 0 0 0 0 0 0 0 0 0 0 0 0 0 0 0 0 0 48 99 124 110 113 499 1029 959 790 1161 827 769 632 459 278 184 200 155 98 103 83 93 131 146 81 12 0 0 0 0
0 0 0 0 0 0 0 0 0 0 0 0 0 0 0 0 0 0 0 0 0 47 110 51 0 268 873 842 1216 1261 886 638 729 647 429 325 317 224 110 83 62 74 165 106 65 0 0 0 0
3 0 0 0 0 0 0 0 0 0 0 0 0 0 0 0 0 0 0 0 0 0 0 0 0 0 211 990 1043 1233 1082 932 965 627 795 569 398 250 235 167 134 42 112 174 110 15 0 0 0
0 0 0 0 0 0 0 0 0 0 0 0 0 0 0 0 0 0 0 0 0 0 0 0 0 0 0 196 728 793 708 674 589 548 743 724 601 378 318 271 266 126 66 152 147 43 16 0 0
18 0 0 0 0 0 0 0 0 0 0 0 0 0 0 0 0 0 0 0 0 0 0 0 0 0 0 0 80 409 495 813 663 577 603 514 569 670 428 452 435 286 143 110 121 29 63 6 4
0 0 0 0 0 0 0 0 0 0 0 0 0 0 0 0 0 0 0 0 0 0 0 0 0 0 0 0 0 106 225 387 483 698 772 879 559 555 606 467 497 451 331 227 90 49 71 35 16
0 0 0 0 0 0 0 0 0 0 0 0 0 0 0 0 0 0 0 0 0 0 0 0 0 0 0 0 0 4 112 128 389 628 736 777 638 366 961 571 449 547 526 435 187 65 66 89 49
10 0 2 1 0 0 0 0 0 0 0 0 0 0 0 0 0 0 0 0 0 0 0 0 0 0 0 0 0 0 0 73 334 563 694 850 732 287 383 489 629 492 523 493 363 280 145 162 120
0 2 0 0 0 0 0 0 0 0 0 0 0 0 0 0 0 0 0 0 0 0 0 0 0 0 0 0 0 0 0 0 82 286 399 573 454 435 422 487 566 308 177 449 403 326 304 178 186
0 0 0 0 0 0 0 0 0 0 0 0 0 0 0 0 0 0 0 0 0 0 0 0 0 0 0 0 0 0 0 0 0 87 193 320 414 380 182 320 320 512 410 356 193 373 259 241 203
0 0 0 0 0 0 0 0 0 0 0 0 0 0 0 0 0 0 0 0 0 0 0 0 0 0 0 0 0 0 0 0 0 0 1 27 98 196 209 63 147 147 196 241 222 228 382 261 192
0 0 0 0 0 0 0 0 0 0 0 0 0 0 0 0 0 0 0 0 0 0 0 0 0 0 0 0 0 0 0 0 0 0 0 0 0 4 2 16 49 57 50 54 68 199 231 229 233
0 0 0 0 0 0 0 0 0 0 0 0 0 0 0 0 0 0 0 0 0 0 0 0 0 0 0 0 0 0 0 0 0 0 0 0 0 1 0 1 4 21 104 62 66 66 238 342 317
0 0 0 0 0 0 0 0 0 0 0 0 0 0 0 0 0 0 0 0 0 0 0 0 0 0 0 0 0 0 0 0 0 0 0 0 0 0 1 1 2 5 37 63 181 194 175 280 313

GFSSGP_con_mucape_069.txt.gz
CAPE
82 76 2 0 0 0 0 0 0 0 0 0 0 0 0 0 0 90 480 767 421 1307 1541 1776 2427 2514 2458 2224 2173 1934 1627 1357 883 544 172 116 26 0 0 1 0 21 88 67 51 31 11 0 0
77 60 0 0 0 0 0 0 0 0 0 0 0 0 0 0 0 633 853 908 586 1146 1337 1293 2373 2550 2532 2284 2093 1908 1325 1045 753 487 287 165 97 63 60 5 0 0 0 63 74 45 0 0 0
210 54 10 0 0 0 0 0 0 0 0 0 0 0 0 0 157 660 949 633 633 1322 1060 1665 2337 2536 2455 2246 2134 1945 1537 1029 606 309 130 10 41 69 1 0 0 0 0 49 115 40 0 0 0
156 11 27 14 0 0 0 4 0 0 0 0 0 0 0 30 205 761 941 668 1001 1122 1312 1730 2443 2535 2367 2248 2052 1761 1627 841 524 226 25 11 5 2 0 0 25 104 175 123 114 3 0 0 0
99 41 28 0 0 0 0 1 0 0 0 0 0 0 0 400 643 1013 847 765 968 1077 1929 1591 2473 2492 2424 2231 1917 1682 1195 971 487 156 16 3 0 0 0 15 128 124 132 155 33 2 0 0 0
76 112 64 0 0 2 4 1 0 0 0 0 0 0 3 648 1005 1163 986 1049 1032 1147 1531 1332 1993 2246 2201 2053 1863 1400 824 767 618 287 22 2 0 0 0 22 155 149 129 74 31 4 0 0 0
0 53 0 0 0 29 5 0 0 0 0 0 0 0 33 679 1202 1315 1189 1258 1035 1148 1357 1401 1175 1333 1509 1390 1266 844 573 710 519 318 180 6 0 0 0 4 105 146 109 44 24 0 0 0 0
0 27 39 14 0 2 12 2 0 0 0 0 0 0 0 909 1249 1333 1310 1255 1083 1155 1112 1599 1308 802 862 587 602 515 539 522 375 257 137 31 0 0 0 6 30 103 70 18 2 0 0 0 0
0 6 9 0 0 0 8 1 0 0 0 0 0 0 15 738 1131 1126 1345 1183 1339 1116 994 1040 1346 1032 736 521 326 328 375 359 211 125 49 0 0 0 0 0 54 100 57 1 0 0 0 0 0
0 0 0 0 0 4 0 0 0 0 0 0 0 0 6 267 999 1023 1078 1222 1064 995 1080 923 722 526 330 231 378 257 274 341 329 191 48 36 0 0 0 0 2 90 77 38 0 53 33 0 0
0 0 0 0 0 0 0 0 0 0 0 0 0 0 0 35 516 951 916 997 1363 1424 1053 919 708 522 276 204 205 208 211 130 120 161 119 39 0 0 0 0 0 12 0 1 5 53 0 0 1
0 0 0 9 0 0 0 0 0 0 0 0 0 0 0 133 227 802 906 891 828 1119 1076 704 757 611 396 274 159 142 153 132 96 116 130 74 9 0 0 0 0 0 0 0 0 7 0 1 0
13 0 0 0 0 0 0 0 0 0 0 0 0 0 0 0 258 515 722 801 944 952 1557 1449 737 685 564 367 307 129 85 81 69 75 84 67 29 24 5 0 0 0 0 0 3 30 24 5 0
17 25 3 0 0 0 0 0 0 0 0 0 0 0 0 0 0 426 600 654 792 822 868 1111 1533 1338 643 653 663 357 134 84 48 38 72 49 31 25 59 87 23 0 0 0 11 18 8 1 1
60 31 25 0 0 0 0 0 0 0 0 0 0 0 0 0 0 0 219 760 817 866 831 991 857 960 662 793 823 693 379 163 111 46 46 45 21 52 51 155 204 133 9 0 1 14 0 0 0
76 31 28 30 2 0 0 0 0 0 0 0 0 0 0 0 0 0 0 0 170 717 1025 988 918 863 741 765 984 896 752 412 237 141 78 70 39 70 134 170 179 174 149 11 0 7 1 0 0
77 22 17 9 0 0 0 0 0 0 0 0 0 0 0 0 0 0 0 0 0 0 46 515 1135 1082 1023 966 871 1136 952 809 570 340 237 150 99 90 141 170 151 94 187 83 31 15 0 0 0
19 0 6 0 6 0 0 0 0 0 0 0 0 0 0 0 0 0 0 0 0 0 0 0 29 417 1163 1251 1227 1471 1024 1133 876 727 505 318 256 147 190 202 162 143 190 129 147 55 1 0 0
0 19 32 14 2 0 0 0 0 0 0 0 0 0 0 0 0 0 0 0 0 0 0 28 16 29 47 422 916 714 1110 830 1042 1146 918 738 473 355 329 337 221 209 189 202 101 131 10 0 0
0 0 9 18 5 0 0 0 0 0 0 0 0 0 0 0 0 0 0 0 0 0 0 0 0 35 61 10 858 574 660 831 845 692 854 1002 937 733 468 478 430 365 292 264 128 202 54 0 0
53 0 0 0 0 0 0 0 0 0 0 0 0 0 0 0 0 0 0 0 0 0 0 0 0 0 0 0 6 830 725 1090 942 724 707 674 819 1109 895 562 551 559 435 340 378 158 112 4 0
30 23 35 0 0 0 0 0 0 0 0 0 0 0 0 0 0 0 0 0 0 0 0 0 0 0 0 0 0 0 342 534 696 806 696 573 625 568 696 878 624 573 570 483 326 351 193 44 3
0 20 48 1 1 0 0 0 0 0 0 0 0 0 0 0 0 0 0 0 0 0 0 0 0 0 0 0 0 0 0 153 304 303 361 702 986 647 469 478 673 617 552 544 375 292 271 106 63
0 0 0 10 15 0 1 0 0 0 0 0 0 0 0 0 0 0 0 0 0 0 0 0 0 0 0 0 0 0 0 0 100 174 322 484 710 996 540 669 513 443 499 760 484 236 205 262 180
0 0 0 0 0 0 0 0 0 0 0 0 0 0 0 0 0 0 0 0 0 0 0 0 0 0 0 0 0 0 0 0 0 23 186 252 491 600 485 433 539 469 592 601 623 336 139 219 226
0 0 95 0 0 0 0 0 0 0 0 0 0 0 0 0 0 0 0 0 0 0 0 0 0 0 0 0 0 0 0 0 0 0 2 112 223 401 505 282 631 521 355 411 624 578 612 398 264
0 0 0 0 0 0 0 0 0 0 0 0 0 0 0 0 0 0 0 0 0 0 0 0 0 0 0 0 0 0 0 0 0 0 0 0 1 52 35 318 302 246 311 444 284 317 261 228 164
0 0 0 0 0 0 0 0 0 0 0 0 0 0 0 0 0 0 0 0 0 0 0 0 0 0 0 0 0 0 0 0 0 0 0 0 0 0 0 0 0 90 34 114 185 198 126 141 99
0 0 0 0 0 0 0 0 0 0 0 0 0 0 0 0 0 0 0 0 0 0 0 0 0 0 0 0 0 0 0 0 0 0 0 0 0 0 0 1 2 1 1 3 8 56 78 131 152
0 0 0 0 0 0 0 0 0 0 0 0 0 0 0 0 0 0 0 0 0 0 0 0 0 0 0 0 0 0 0 0 0 0 0 0 0 0 0 0 0 0 0 2 3 6 49 54 130

GFSSGP_con_mucape_072.txt.gz
CAPE
56 0 2 4 0 0 0 0 0 0 0 0 0 0 0 0 77 270 440 515 1636 1415 1784 2143 2497 2438 2389 2243 2233 1990 1842 1676 1457 746 333 182 58 1 0 0 7 42 55 35 26 2 0 0 0
111 61 64 1 0 0 0 0 0 0 0 0 0 0 0 0 705 512 727 688 1379 1456 1351 1689 2423 2457 2391 2205 2047 1824 1654 1356 1039 540 403 198 49 77 44 5 0 0 44 62 41 0 0 0 0
147 233 132 2 0 0 0 0 0 0 0 0 0 0 0 68 320 842 1105 591 1323 1264 955 1712 2360 2451 2408 2248 2031 1839 1654 1194 823 546 188 80 196 38 0 0 0 2 64 88 49 0 0 0 0
128 112 44 0 0 0 0 0 0 0 0 0 0 0 0 215 572 954 731 536 1179 1078 1386 1867 2316 2463 2292 2104 2015 1823 1510 933 566 162 26 20 11 0 0 0 33 79 275 149 16 2 0 0 0
108 66 0 0 0 0 0 0 0 0 0 0 0 0 157 448 831 810 590 744 1083 1337 1417 1809 2393 2432 2345 2237 1880 1643 1408 1002 672 201 4 2 4 0 0 25 96 217 243 113 5 1 0 1 0
163 53 0 0 0 0 0 0 0 0 0 0 0 0 349 703 961 734 696 847 1345 1608 1334 1572 2119 2167 2143 2027 1735 1450 884 703 476 20 4 3 1 1 3 57 272 221 180 36 3 5 0 1 0
150 95 0 0 0 0 0 0 2 0 0 0 0 0 479 1007 1080 876 814 902 1694 1491 1199 1336 1569 1737 1658 1560 1433 965 744 572 355 185 85 1 1 0 5 148 287 146 124 84 11 0 0 0 0
38 81 59 61 36 5 4 12 2 0 0 0 0 0 557 1073 1207 1088 1129 929 1301 1369 1233 986 996 1185 1134 847 746 443 495 328 269 168 68 0 0 0 0 14 179 188 133 100 18 0 0 0 0
5 4 0 2 10 4 4 5 22 0 0 0 0 2 671 1193 1193 1285 1189 966 1053 1217 1113 939 722 727 724 411 318 273 223 157 127 48 2 0 0 0 0 0 53 141 103 37 0 0 1 0 0
33 0 0 0 0 3 18 0 1 0 0 0 0 24 466 1075 1083 1147 1344 1190 979 997 904 806 770 494 430 375 167 182 212 150 130 99 19 0 0 0 0 0 3 106 88 42 35 46 52 0 0
13 0 0 0 0 46 19 0 0 0 0 0 0 0 3 822 939 894 1077 1229 986 900 1105 888 910 474 446 281 204 130 159 219 174 129 55 22 0 0 0 0 0 0 4 0 22 65 3 0 0
1 0 0 0 31 22 33 0 0 0 0 0 0 0 37 29 426 859 792 924 640 656 1065 921 675 423 227 125 204 140 183 148 112 170 87 40 0 0 0 0 0 0 0 1 0 27 0 0 0
59 0 0 0 6 0 0 0 0 8 0 0 0 0 0 62 86 531 879 750 831 681 694 754 709 539 245 172 95 79 112 103 68 64 87 49 20 0 0 0 0 0 0 0 0 0 0 0 0
66 73 10 8 0 0 0 0 0 0 0 0 0 0 0 0 55 359 597 715 819 828 693 626 578 720 600 258 209 118 64 50 43 38 49 51 26 4 5 0 0 0 0 0 0 0 0 0 0
87 65 59 12 0 0 0 0 0 0 0 0 0 0 0 0 0 10 536 563 687 687 857 689 659 643 526 594 486 403 168 70 57 11 25 20 9 0 7 13 6 0 0 0 0 0 0 0 0
40 36 66 36 3 1 0 0 0 0 0 0 0 0 0 0 0 0 0 302 633 612 634 758 759 600 550 515 726 548 470 278 114 74 0 7 0 0 0 8 56 67 43 0 0 0 0 0 0
88 39 0 3 16 5 0 0 0 0 0 0 0 0 0 0 0 0 0 0 0 178 572 724 930 833 643 628 614 847 669 574 335 173 132 73 13 5 6 44 59 107 115 61 4 0 0 0 0
0 0 0 0 0 0 0 0 0 0 0 0 0 0 0 0 0 0 0 0 0 0 0 229 669 952 859 782 618 817 975 878 625 419 277 201 123 73 39 83 100 69 84 119 63 0 0 0 0
5 0 0 0 0 10 0 0 0 0 0 0 0 0 0 0 0 0 0 0 0 0 0 0 0 19 643 971 899 684 675 909 948 804 606 413 279 204 146 119 110 94 71 108 97 58 17 0 0
24 2 8 22 24 4 0 0 0 0 0 0 0 0 0 0 0 0 0 0 0 0 0 0 0 0 0 18 923 914 601 538 588 880 925 809 552 325 244 236 195 160 123 108 150 119 81 55 8
0 0 0 4 2 2 0 0 0 0 0 0 0 0 0 0 0 0 0 0 0 0 0 0 0 0 0 0 12 753 480 287 297 320 464 692 811 838 543 318 279 265 218 180 155 198 143 75 64
0 0 14 19 0 0 0 0 0 0 0 0 0 0 0 0 0 0 0 0 0 0 0 0 0 0 0 0 0 62 528 397 585 596 477 388 374 401 512 790 595 374 371 342 250 244 228 132 88
2 1 11 16 0 0 0 0 0 0 0 0 0 0 0 0 0 0 0 0 0 0 0 0 0 0 0 0 0 0 0 0 349 520 562 544 482 434 438 436 471 664 477 459 465 395 336 256 188
0 0 10 7 1 0 0 0 0 0 0 0 0 0 0 0 0 0 0 0 0 0 0 0 0 0 0 0 0 0 0 0 0 11 53 28 135 546 714 703 513 358 887 915 622 693 606 327 388
0 6 0 0 0 0 0 0 0 0 0 0 0 0 0 0 0 0 0 0 0 0 0 0 0 0 0 0 0 0 0 0 0 0 0 11 62 117 437 474 404 349 406 597 529 598 696 559 506
0 0 8 0 0 0 0 0 0 0 0 0 0 0 0 0 0 0 0 0 0 0 0 0 0 0 0 0 0 0 0 0 0 0 0 0 0 11 151 222 240 198 345 465 444 333 327 494 493
0 0 0 0 0 0 0 0 0 0 0 0 0 0 0 0 0 0 0 0 0 0 0 0 0 0 0 0 0 0 0 0 0 0 0 0 0 0 1 1 2 7 155 148 176 276 317 353 410
0 0 0 5 0 0 0 0 0 0 0 0 0 0 0 0 0 0 0 0 0 0 0 0 0 0 0 0 0 0 0 0 0 0 0 0 0 0 0 0 0 2 3 6 3 25 108 234 171
0 0 0 0 0 0 0 0 0 0 0 0 0 0 0 0 0 0 0 0 0 0 0 0 0 0 0 0 0 0 0 0 0 0 0 0 0 0 0 0 0 2 0 1 3 2 4 9 89
0 0 0 0 0 0 0 0 0 0 0 0 0 0 0 0 0 0 0 0 0 0 0 0 0 0 0 0 0 0 0 0 0 0 0 0 0 0 0 0 0 0 0 0 0 0 0 2 6

GFSSGP_con_mucape_075.txt.gz
CAPE
43 2 1 0 0 0 0 0 0 0 0 0 0 0 0 0 73 38 415 1085 1347 1702 1980 2163 2451 2441 2412 2353 2193 2013 1754 1645 1504 917 604 346 148 12 0 32 129 64 27 9 2 0 0 0 0
43 76 31 0 0 0 0 0 0 0 0 0 0 0 0 526 385 408 1323 1431 1450 1681 1829 1982 2326 2420 2398 2272 2099 2001 1853 1646 1320 1003 353 192 65 70 30 3 0 64 75 33 0 0 0 0 0
153 130 7 1 0 0 0 0 0 0 0 0 0 0 0 344 715 607 1163 1435 1525 1395 1690 1975 2284 2397 2340 2086 1929 1829 1688 1510 1324 1065 603 383 252 13 0 0 0 28 126 57 4 0 0 0 0
65 17 3 0 0 0 0 0 0 0 0 0 0 0 114 519 746 910 1110 1499 1248 1228 1563 2066 2273 2405 2173 1961 1875 1823 1285 1344 844 509 149 56 10 0 0 0 0 245 226 74 7 3 0 0 0
28 41 0 0 0 0 0 0 0 0 0 0 0 3 348 856 916 736 1123 1373 1228 1245 1564 1932 2275 2336 2164 2043 1885 1521 1471 1097 541 78 5 6 2 0 0 0 253 357 199 20 9 5 0 0 0
55 49 0 0 0 0 0 0 2 0 0 0 0 84 505 873 677 588 1035 1293 1249 1298 1489 1792 2034 2033 2081 2022 1633 1476 1166 604 306 29 1 3 1 0 16 17 203 440 86 0 11 4 0 0 0
87 5 0 0 0 0 0 0 0 0 0 0 0 22 584 932 708 771 1226 1453 1306 1268 1444 1688 1724 1773 1788 1530 1388 1138 769 520 203 104 29 0 6 0 65 154 353 247 102 95 2 0 0 0 0
137 57 13 0 0 0 0 0 0 0 0 0 0 160 1022 1099 801 763 1643 1685 1551 1401 1265 1426 1470 1439 1298 1003 767 569 496 258 176 64 8 0 0 0 57 157 220 266 218 97 66 0 0 0 0
159 14 2 0 0 0 0 0 0 0 2 0 10 489 1123 1279 1128 1081 1561 1558 1303 1060 921 1019 1152 1141 931 693 377 231 165 92 71 22 0 0 0 0 0 22 118 157 174 102 33 20 40 40 0
88 2 0 0 0 5 9 0 0 0 2 0 690 1200 1213 1164 1264 1114 1000 1280 1208 1171 927 843 734 825 588 451 256 114 97 67 42 21 4 0 0 0 0 0 68 147 102 84 71 83 81 7 0
25 0 0 0 0 51 21 0 0 0 0 0 409 1234 1066 945 1129 1217 1013 1153 1146 1044 899 640 606 728 410 263 241 109 86 88 84 65 42 19 0 0 0 0 6 11 2 2 43 74 18 0 0
6 0 0 0 0 97 38 0 0 0 0 0 0 572 870 980 901 899 1216 1090 1062 1081 939 801 635 468 435 431 285 119 101 123 111 95 89 21 20 0 0 0 2 3 0 3 0 16 0 0 0
1 0 0 4 4 1 15 9 12 1 0 0 16 24 439 778 941 662 784 939 872 1142 1156 938 872 646 598 445 234 89 93 116 147 147 127 29 27 0 0 0 0 4 0 0 0 0 0 0 0
4 19 34 36 0 0 0 0 10 2 0 0 1 45 16 52 499 830 799 730 878 624 1068 924 749 565 275 271 142 83 167 155 117 125 126 68 32 11 7 0 0 0 5 5 0 0 0 0 0
12 64 46 68 0 0 0 0 0 4 1 0 0 0 0 20 58 525 848 820 813 784 646 731 816 650 498 279 223 92 36 50 39 26 61 74 44 20 11 0 0 0 2 1 0 0 0 0 0
31 44 42 29 0 0 0 0 0 6 0 1 0 0 0 0 0 0 422 633 552 798 785 780 667 661 642 558 496 314 243 80 50 16 0 0 18 12 0 0 0 0 1 2 0 0 0 0 0
46 13 3 7 22 0 0 0 0 0 0 0 0 0 0 0 0 0 0 168 501 565 636 831 713 609 511 617 614 579 494 399 304 138 69 30 8 0 0 0 0 23 42 55 12 0 0 1 4
0 0 2 0 0 0 0 0 0 0 0 0 0 0 0 0 0 0 0 0 0 54 585 729 775 867 733 543 521 731 696 610 545 360 298 151 89 50 21 8 10 38 73 99 89 44 4 12 15
0 0 1 0 0 10 0 0 0 0 0 0 0 0 0 0 0 0 0 0 0 0 0 223 194 946 917 751 567 460 765 674 639 428 424 305 246 219 146 94 51 59 68 93 108 87 71 48 32
5 0 0 0 6 24 0 0 0 0 0 0 0 0 0 0 0 0 0 0 0 0 0 0 0 11 845 835 805 708 525 708 843 807 692 519 367 272 263 220 157 103 74 80 97 118 115 112 103
5 0 0 0 4 7 5 0 0 0 0 0 0 0 0 0 0 0 0 0 0 0 0 0 0 0 0 39 766 877 809 665 475 531 599 860 695 540 263 208 220 230 200 159 156 150 142 142 117
22 0 1 8 1 0 0 0 0 0 0 0 0 0 0 0 0 0 0 0 0 0 0 0 0 0 0 0 0 570 603 568 462 241 195 190 283 502 624 541 363 207 275 261 244 202 194 161 135
6 2 8 0 3 0 0 0 0 0 0 0 0 0 0 0 0 0 0 0 0 0 0 0 0 0 0 0 0 0 0 323 271 276 327 441 394 290 259 237 260 304 454 362 319 335 360 192 188
0 0 2 8 1 4 0 0 0 0 0 0 0 0 0 0 0 0 0 0 0 0 0 0 0 0 0 0 0 0 0 0 0 0 119 612 513 401 347 369 361 374 294 389 534 500 423 435 422
7 1 0 6 5 0 0 0 0 0 0 0 0 0 0 0 0 0 0 0 0 0 0 0 0 0 0 0 0 0 0 0 0 0 0 2 14 38 166 414 514 432 220 55 205 216 422 345 307
0 6 0 0 0 0 0 0 0 0 0 0 0 0 0 0 0 0 0 0 0 0 0 0 0 0 0 0 0 0 0 0 0 0 0 0 0 0 0 87 227 288 164 200 182 355 375 115 221
0 0 0 0 0 0 0 0 0 0 0 0 0 0 0 0 0 0 0 0 0 0 0 0 0 0 0 0 0 0 0 0 0 0 0 0 0 0 0 0 25 9 8 1 8 13 17 64 115
0 0 0 0 0 0 0 0 0 0 0 0 0 0 0 0 0 0 0 0 0 0 0 0 0 0 0 0 0 0 0 0 0 0 0 0 0 0 0 0 0 0 0 0 0 0 0 2 2
0 0 0 0 0 0 0 0 0 0 0 0 0 0 0 0 0 0 0 0 0 0 0 0 0 0 0 0 0 0 0 0 0 0 0 0 0 0 0 0 0 0 0 0 0 0 0 0 1
0 0 0 0 0 0 0 0 0 0 0 0 0 0 0 0 0 0 0 0 0 0 0 0 0 0 0 0 0 0 0 0 0 0 0 0 0 0 0 0 0 0 0 0 0 0 0 0 0

GFSSGP_con_mucape_078.txt.gz
CAPE
89 0 0 0 0 0 0 0 0 0 0 0 0 0 3 0 21 4 379 857 1348 1739 1944 2188 2558 2527 2510 2254 2208 2010 1863 1683 1496 1000 832 535 329 253 305 173 64 32 8 4 1 0 0 0 0
104 18 4 0 0 0 0 0 0 0 0 0 0 50 22 467 317 1063 1011 1292 1550 1679 1860 1967 2415 2503 2437 2343 2121 1967 1855 1776 1531 1021 439 184 52 33 7 22 137 46 22 1 0 0 0 0 0
284 84 1 0 0 0 0 0 0 0 0 0 0 0 186 561 529 903 1287 1397 1538 1640 1729 1911 2312 2425 2286 2144 2074 1962 1928 1748 1536 1121 835 475 209 2 0 0 37 166 43 1 0 0 0 0 0
90 63 20 0 0 0 0 0 0 0 0 0 0 55 228 541 561 1137 1461 1521 1493 1574 1642 2025 2268 2376 2214 2108 2095 2003 1766 1553 1202 1086 802 203 2 0 0 0 197 305 71 4 0 0 0 0 0
51 65 6 0 0 0 0 0 0 0 0 0 0 60 478 856 849 1541 1551 1317 1328 1472 1683 1970 2246 2245 2143 2021 1914 1675 1410 1094 754 323 154 15 2 0 0 3 124 262 111 22 0 0 0 0 0
57 39 21 0 0 0 0 0 0 0 0 0 12 289 536 810 1038 1615 1459 1155 1253 1368 1691 1882 2027 2023 1993 1966 1722 1455 1013 545 139 1 0 3 1 1 0 109 193 276 40 16 0 0 0 0 0
56 35 0 0 0 0 0 1 1 0 0 0 0 338 788 671 813 1561 1459 1234 1299 1362 1599 1779 1783 1751 1711 1650 1418 1353 768 387 115 21 8 14 4 57 0 110 488 326 123 134 76 28 0 0 0
200 55 22 0 0 0 0 0 4 0 0 0 103 494 850 693 867 1445 1452 1295 1306 1345 1483 1522 1533 1567 1433 1121 917 766 397 184 94 71 7 0 0 91 92 179 391 253 184 122 105 64 31 0 0
215 89 13 0 0 0 0 0 19 6 2 0 29 468 893 771 1537 1468 1371 1312 1207 1303 1277 1322 1377 1349 1102 871 543 327 164 51 44 15 0 0 0 0 70 98 171 235 216 112 59 58 73 47 2
166 85 5 0 0 0 0 0 0 0 0 1 829 959 1105 821 1455 1533 1484 1532 1499 1119 1128 1191 1128 1076 922 673 280 160 68 33 23 9 2 0 0 0 3 71 96 173 167 126 86 66 70 4 0
85 1 0 0 11 19 0 0 3 0 0 1 431 1213 1184 991 1250 1585 1683 1586 1041 752 876 987 984 970 650 471 222 106 73 48 39 29 20 0 0 0 0 3 39 64 38 16 27 57 2 0 0
21 0 0 0 4 16 0 0 0 0 2 2 143 1055 1125 1019 1090 1121 1436 1304 1091 864 837 709 632 834 549 402 247 120 78 70 59 54 45 40 0 0 0 0 16 34 16 11 14 19 4 0 0
30 10 0 0 0 0 0 0 0 0 0 2 7 1031 714 823 1041 1116 1095 1261 1234 1133 965 772 533 732 552 325 294 179 117 84 84 70 58 67 7 0 0 0 3 6 7 8 14 11 5 0 0
29 30 4 0 0 0 0 0 0 0 10 1 1 623 769 628 717 1047 1031 1152 1255 1181 1019 851 795 595 593 412 464 240 106 89 96 85 89 88 21 25 0 0 0 2 6 6 6 1 0 0 0
46 23 48 13 1 0 0 0 0 0 0 0 58 65 107 500 719 561 776 743 796 924 1176 1089 945 915 761 597 572 297 120 84 109 102 131 122 51 32 0 0 0 0 0 0 0 2 1 7 5
3 23 19 10 0 0 3 0 0 6 26 9 0 21 50 52 654 796 766 686 722 787 736 1141 945 720 569 493 428 218 165 105 184 130 170 157 66 41 15 2 0 0 0 0 0 0 0 0 2
39 0 0 0 0 0 0 0 0 12 19 9 0 0 0 0 0 310 777 777 631 741 720 722 836 761 626 443 327 393 295 168 140 62 53 75 61 30 0 0 0 0 0 5 17 16 0 0 0
0 0 0 0 0 0 0 0 0 0 8 10 17 1 0 0 0 0 0 145 376 503 580 756 777 659 715 669 556 534 502 384 233 217 291 75 6 0 0 0 0 0 0 7 14 29 27 0 0
4 9 1 0 0 0 0 0 0 0 0 0 0 0 0 0 0 0 0 0 0 0 353 585 807 745 686 534 444 650 675 632 458 281 254 262 263 110 36 24 0 0 0 0 24 53 83 61 40
0 0 0 0 0 2 4 0 0 0 0 0 0 0 0 1 0 0 0 0 0 0 0 293 591 718 751 771 599 514 464 694 696 521 426 356 338 302 214 199 159 107 58 35 52 89 104 123 115
1 0 0 0 0 3 0 0 0 0 0 0 0 0 0 0 0 0 0 0 0 0 0 0 5 0 340 844 828 686 591 470 595 696 672 628 480 388 277 236 244 197 165 173 184 166 142 134 145
0 15 2 0 0 0 0 0 0 0 0 0 0 0 0 0 0 0 0 0 0 0 0 0 0 0 0 0 73 718 778 754 668 525 492 556 551 607 607 524 276 212 219 185 217 224 227 224 162
0 12 7 6 2 6 2 0 0 0 0 0 0 0 0 0 0 0 0 0 0 0 0 0 0 0 0 0 0 0 460 638 613 326 334 251 177 111 141 269 327 306 261 257 208 189 297 237 201
8 8 7 10 9 0 0 0 0 0 0 0 0 0 0 0 0 0 0 0 0 0 0 0 0 0 0 0 0 0 0 0 62 61 47 6 246 379 361 253 195 201 197 210 355 250 183 268 274
19 18 0 0 0 0 0 0 0 0 0 0 0 0 0 0 0 0 0 0 0 0 0 0 0 0 0 0 0 0 0 0 0 0 0 0 11 266 420 308 300 304 241 193 58 39 61 78 104
8 0 0 0 0 0 0 0 0 0 0 0 0 0 0 0 0 0 0 0 0 0 0 0 0 0 0 0 0 0 0 0 0 0 0 0 0 0 14 36 194 299 239 179 45 67 7 74 68
0 0 0 0 0 0 0 0 0 0 0 0 0 0 0 0 0 0 0 0 0 0 0 0 0 0 0 0 0 0 0 0 0 0 0 0 0 0 0 33 74 118 13 3 3 1 0 2 5
0 0 0 3 0 0 0 0 0 0 0 0 0 0 0 0 0 0 0 0 0 0 0 0 0 0 0 0 0 0 0 0 0 0 0 0 0 0 0 0 0 3 3 1 0 0 0 0 0
0 0 0 0 0 0 0 0 0 0 0 0 0 0 0 0 0 0 0 0 0 0 0 0 0 0 0 0 0 0 0 0 0 0 0 0 0 0 0 0 0 0 0 0 0 0 0 0 0
1 0 0 0 0 0 0 0 0 0 0 0 0 0 0 0 0 0 0 0 0 0 0 0 0 0 0 0 0 0 0 0 0 0 0 0 0 0 0 0 0 0 0 0 0 0 0 0 0

GFSSGP_con_mucape_081.txt.gz
CAPE
274 4 0 0 0 0 0 0 0 0 0 0 0 0 0 7 2 0 334 869 1006 1597 1932 2280 2550 2511 2492 2344 2089 1896 1748 1608 1456 894 723 560 458 420 95 67 6 2 3 1 0 0 0 0 0
205 23 8 0 0 0 0 0 0 0 0 0 1 35 106 148 300 755 831 1138 1217 1601 1893 2135 2443 2514 2454 2307 2114 1895 1555 1413 1433 950 606 314 172 232 304 197 20 0 0 0 0 0 0 0 0
209 67 12 2 0 0 0 0 0 0 0 0 0 0 193 312 781 818 988 1347 1419 1574 1759 2007 2340 2470 2335 2168 2131 2009 1875 1713 1440 1059 583 209 192 1 0 184 203 23 0 0 0 0 0 0 0
73 70 14 15 0 0 0 0 0 0 0 0 0 87 414 478 804 788 1363 1527 1480 1575 1669 2057 2269 2373 2249 2147 2065 1955 1868 1398 1231 1106 912 315 1 0 0 8 454 121 24 0 0 0 0 0 0
108 60 36 2 0 0 0 0 0 0 0 0 0 69 537 672 804 1423 1566 1490 1365 1466 1632 1818 2257 2280 2240 2158 2061 1930 1796 1439 1249 862 333 24 0 0 0 51 307 104 0 0 0 0 0 0 0
105 44 6 2 0 0 0 0 0 0 0 0 0 244 482 860 1499 1587 1505 1339 1338 1356 1678 1857 2033 1962 2091 2118 1999 1800 1194 609 204 86 51 0 0 0 0 29 330 93 53 0 0 0 0 0 0
29 26 0 0 0 0 0 0 6 0 0 0 0 331 672 819 1562 1560 1376 1301 1460 1367 1629 1784 1804 1766 1726 1711 1508 1229 658 333 170 55 14 38 47 47 55 106 319 156 134 81 59 0 0 0 0
92 40 23 0 0 0 0 0 0 0 0 0 0 212 759 804 1664 1514 1260 1275 1280 1400 1504 1562 1601 1525 1454 1242 1049 799 365 133 94 71 24 2 0 66 84 168 441 277 183 187 132 48 1 0 0
130 52 2 0 0 0 0 0 0 0 0 0 0 44 494 838 1603 1535 1436 1375 1200 1410 1403 1474 1405 1372 1231 984 715 331 100 49 41 18 0 0 3 2 22 100 195 198 197 133 66 69 51 0 0
69 5 0 0 0 0 0 0 0 0 0 0 0 449 949 1334 1508 1468 2135 1345 1149 1141 1366 1444 1251 1202 1083 823 496 142 45 22 13 5 0 0 3 5 40 88 140 203 150 107 77 51 48 0 0
30 0 0 8 0 0 0 4 0 0 0 0 29 186 1109 1399 1402 1516 1697 2070 1209 1055 1449 1514 1168 1102 950 755 359 128 41 30 23 20 4 0 1 7 36 63 79 77 65 45 46 41 18 0 0
27 17 0 8 67 25 13 13 0 0 0 0 13 15 144 1153 1372 1550 1591 1476 1287 863 940 1095 1090 999 916 679 270 113 62 51 40 37 35 10 0 6 5 13 34 48 47 23 19 19 17 0 0
42 26 28 32 39 52 27 20 0 0 1 1 10 28 53 641 973 1119 1215 1192 1213 850 815 1014 1017 923 897 546 261 139 88 78 64 47 46 50 46 0 4 0 6 17 29 9 4 7 8 1 0
57 37 35 30 5 11 13 2 0 0 0 4 10 16 142 595 676 857 1077 1264 1113 886 776 813 857 858 899 513 311 219 143 100 77 54 49 55 59 5 0 0 0 2 2 0 0 0 0 0 0
62 40 62 23 0 0 0 0 0 0 0 0 0 0 114 409 605 895 1035 1052 1219 1111 1016 927 695 560 834 587 390 362 252 146 78 61 57 70 82 15 0 0 0 0 0 0 0 0 0 0 0
42 41 31 16 1 0 0 0 0 0 0 0 0 1 33 167 523 740 942 1113 1274 1331 1258 1097 918 766 612 710 507 517 437 210 96 109 80 90 108 39 30 10 0 0 0 0 0 0 0 0 0
14 0 7 12 1 0 0 0 0 0 0 0 0 0 19 48 369 598 622 728 885 1063 1077 1238 1168 1062 918 872 705 634 619 326 114 133 151 124 138 106 55 36 0 0 0 0 0 0 0 0 0
0 0 1 0 2 6 0 0 0 0 0 0 0 0 0 5 42 150 712 809 695 736 841 799 1115 1156 905 684 645 656 500 287 230 132 198 138 109 127 74 58 0 0 0 0 0 0 0 0 13
0 0 0 0 0 15 0 0 0 0 0 0 0 0 0 0 0 0 0 29 476 480 629 743 849 794 877 809 655 523 474 460 337 297 225 172 271 150 93 64 0 0 0 0 0 0 0 5 34
0 0 0 0 0 0 0 0 1 9 0 0 0 0 0 3 0 0 0 0 0 75 235 556 707 803 750 707 697 652 580 574 609 441 369 279 255 264 252 211 97 66 52 20 24 4 0 0 41
0 0 0 0 0 0 0 0 0 0 0 1 0 0 0 0 0 0 0 0 0 0 0 77 512 747 790 695 637 586 501 514 639 688 655 487 297 273 232 196 214 192 162 153 147 115 96 62 88
0 0 0 0 0 0 0 0 0 0 0 0 0 0 0 0 0 0 0 0 0 0 0 0 22 214 383 233 657 805 695 630 575 477 589 681 614 572 494 418 365 318 254 217 232 164 125 164 162
0 0 0 0 0 0 0 0 0 0 0 0 0 0 0 0 0 0 0 0 0 0 0 0 0 0 0 0 0 119 601 705 778 715 625 527 460 414 399 462 501 397 312 257 216 155 223 77 118
12 8 7 8 11 0 0 0 0 0 0 0 0 0 0 0 0 0 0 0 0 0 0 0 0 0 0 0 0 0 0 38 160 292 453 344 217 227 223 180 215 227 235 169 182 177 253 215 227
1 0 0 0 0 0 0 0 0 0 0 0 0 0 0 0 0 0 0 0 0 0 0 0 0 0 0 0 0 0 0 0 0 0 0 0 0 0 120 333 281 168 129 116 97 125 109 70 54
0 0 0 0 0 0 0 0 0 0 0 0 0 0 0 0 0 0 0 0 0 0 0 0 0 0 0 0 0 0 0 0 0 0 0 0 0 0 0 68 376 161 147 114 83 89 30 12 13
0 0 0 0 0 0 0 0 0 0 0 0 0 0 0 0 0 0 0 0 0 0 0 0 0 0 0 0 0 0 0 0 0 0 0 0 0 0 0 0 26 70 83 80 30 8 5 1 2
0 0 0 0 0 0 0 0 0 0 0 0 0 0 0 0 0 0 0 0 0 0 0 0 0 0 0 0 0 0 0 0 0 0 0 0 0 0 0 7 15 42 31 16 11 2 0 1 0
0 0 0 0 0 0 0 0 0 0 0 0 0 0 0 0 0 0 0 0 0 0 0 0 0 0 0 0 0 0 0 0 0 0 0 0 0 0 0 0 0 1 4 1 1 2 0 0 0
0 0 0 0 0 0 0 0 0 0 0 0 0 0 0 0 0 0 0 0 0 0 0 0 0 0 0 0 0 0 0 0 0 0 0 0 0 0 0 0 0 0 0 0 0 0 0 0 0

GFSSGP_con_mucape_084.txt.gz
CAPE
398 13 0 0 0 0 0 0 0 0 0 0 0 0 0 0 0 0 218 666 944 1451 1868 2080 2451 2208 2279 2258 2043 1905 1743 1586 1299 656 519 436 289 50 62 2 1 2 1 0 0 0 0 2 1
232 21 5 0 0 0 0 0 0 0 0 0 0 0 27 49 268 582 649 875 1225 1618 1879 2049 2393 2305 2451 2295 1992 1874 1650 1409 1318 883 691 546 558 158 168 2 0 1 0 0 0 0 1 0 0
158 55 10 0 0 0 0 0 0 0 0 0 0 0 71 116 629 692 843 1162 1526 1615 1862 2009 2379 2520 2457 2224 1975 1886 1753 1595 1392 1052 604 236 205 262 373 61 0 0 0 0 0 0 2 1 0
98 65 24 2 0 0 0 0 0 0 0 0 0 0 279 376 636 808 1296 1336 1461 1572 1859 2094 2325 2457 2335 2227 2101 1931 1702 1293 949 815 565 342 44 3 144 363 249 12 0 0 0 0 0 0 0
70 45 34 2 0 0 0 0 0 0 0 0 0 0 364 519 674 1345 1494 1358 1251 1390 1684 1909 2291 2341 2278 2201 2104 1975 1753 1425 1018 697 532 91 0 0 42 383 197 0 0 0 0 0 0 0 0
86 52 20 2 0 0 0 0 1 0 0 0 0 42 431 1321 1697 2034 1615 1283 1141 1359 1597 1835 1993 2074 2121 2078 1984 1847 1649 1308 1211 500 111 30 0 0 0 229 135 38 0 0 0 0 0 0 0
62 42 15 1 0 0 0 0 0 1 0 0 0 21 307 1746 1876 2219 2329 1581 1788 1330 1469 1684 1720 1773 1864 1843 1748 1424 824 525 388 169 106 46 38 38 1 194 288 87 62 47 0 0 0 0 0
42 56 31 4 0 0 0 0 3 5 0 0 0 0 0 260 1710 2273 1919 1712 1827 1281 1375 1490 1562 1641 1587 1398 1075 655 388 229 153 64 25 16 45 56 153 144 408 289 232 141 68 22 0 0 0
59 40 6 0 0 0 0 2 0 0 12 0 0 0 53 314 1557 1916 1856 1821 1631 1329 1290 1619 1458 1416 1271 1028 684 242 80 52 33 15 0 0 5 35 65 108 238 189 220 142 77 57 37 0 0
66 8 0 0 0 0 0 0 0 0 7 10 0 11 948 1235 1535 1741 1847 1377 1621 1720 1601 1484 1351 1238 1091 820 577 154 79 29 9 0 0 0 12 4 14 34 162 171 136 97 69 44 38 0 0
40 7 3 0 0 0 0 2 14 0 0 3 0 22 390 781 1168 1142 1344 1352 1530 1285 1529 1643 1332 1158 992 757 513 123 81 44 17 11 0 0 8 22 51 92 106 102 67 56 53 45 18 0 0
46 26 4 3 0 8 0 0 11 0 0 0 0 6 5 260 293 903 1150 1226 2121 1253 1346 1524 1663 1153 970 757 422 281 115 47 32 27 19 0 4 12 46 48 55 60 53 38 28 16 14 0 0
53 45 22 8 4 50 12 2 3 0 0 0 0 5 0 7 55 339 756 995 1347 1267 818 1229 1658 1099 993 857 479 180 99 77 50 39 42 34 10 3 13 32 33 34 37 23 5 1 2 0 0
8 43 31 18 12 30 32 29 0 0 0 2 6 2 0 0 65 313 500 738 875 924 955 1134 1329 1074 978 867 608 251 169 114 84 71 49 42 34 32 0 0 0 0 5 9 0 0 0 0 0
49 20 48 19 21 17 30 16 0 0 0 0 11 12 1 14 44 313 512 623 791 882 837 870 954 1059 941 842 631 329 268 196 144 93 62 57 47 41 0 0 0 0 0 0 0 0 0 0 0
54 30 0 17 24 14 2 0 0 0 0 0 0 11 15 26 55 294 494 662 774 881 867 883 1002 1044 907 925 679 419 363 314 257 146 69 63 62 54 41 2 0 0 0 0 0 0 0 0 0
44 0 0 13 34 17 0 0 0 0 0 0 1 7 6 11 31 166 495 686 807 904 974 947 883 774 706 803 865 599 464 480 402 255 124 107 79 75 90 41 25 0 0 0 0 0 0 0 0
0 0 0 10 11 12 4 0 0 0 0 0 2 0 0 0 6 132 337 519 724 922 1097 1161 1069 1070 964 819 733 764 659 645 604 401 167 154 156 112 131 114 59 31 0 0 0 0 0 0 0
0 0 0 3 4 23 5 0 0 0 0 0 0 0 0 0 0 0 39 244 606 648 766 1014 1283 1310 1218 1118 940 908 861 783 729 625 262 139 205 182 173 156 121 62 31 0 0 0 0 0 0
0 0 0 0 0 6 5 0 0 0 0 0 0 0 0 0 0 0 0 0 110 541 644 843 935 954 1036 1001 949 758 592 716 578 365 319 297 229 164 204 181 164 123 59 45 48 32 14 21 32
0 0 0 0 2 4 0 0 0 0 0 0 0 0 0 0 0 0 0 0 0 0 165 432 695 825 907 901 758 789 725 638 561 524 574 479 283 182 187 153 170 185 157 165 151 140 109 80 70
0 0 0 0 0 0 0 0 0 0 0 0 0 0 0 0 0 0 0 0 0 0 0 0 68 568 782 874 771 667 622 578 612 571 575 646 699 518 435 411 428 388 302 237 211 174 144 123 140
0 0 0 0 0 0 0 0 0 0 0 0 0 0 0 0 0 0 0 0 0 0 0 0 2 110 339 534 628 550 588 704 756 624 508 434 432 475 532 517 428 306 241 233 195 206 194 136 92
3 10 0 14 0 0 0 0 0 0 0 0 0 0 0 0 0 0 0 0 0 0 0 0 0 0 0 0 0 0 0 0 69 302 409 511 542 487 321 315 287 295 295 278 292 246 150 111 96
31 0 0 0 0 0 0 0 0 0 0 0 0 0 0 0 0 0 0 0 0 0 0 0 0 0 0 0 0 0 0 0 0 0 0 0 0 0 6 12 123 185 223 173 116 92 107 74 21
1 0 0 0 0 0 0 0 0 0 0 0 0 0 0 0 0 0 0 0 0 0 0 0 0 0 0 0 0 0 0 0 0 0 0 0 0 0 0 0 5 262 274 151 94 56 43 33 26
0 0 0 0 0 1 0 0 0 0 0 0 0 0 0 0 0 0 0 0 0 0 0 0 0 0 0 0 0 0 0 0 0 0 0 0 0 0 2 0 2 1 229 229 75 55 47 26 8
0 0 0 0 0 0 0 0 0 0 0 0 0 0 0 0 0 0 0 0 0 0 0 0 0 0 0 0 0 0 0 0 0 0 0 0 0 0 2 7 5 28 38 42 18 14 11 6 1
0 0 0 0 0 0 0 0 0 0 0 0 0 0 0 0 0 0 0 0 0 0 0 0 0 0 0 0 0 0 0 0 0 0 0 0 0 0 0 0 4 18 4 5 8 5 3 1 1
0 0 0 0 0 0 0 0 0 0 0 0 0 0 0 0 0 0 0 0 0 0 0 0 0 0 0 0 0 0 0 0 0 0 0 0 0 0 0 0 0 0 0 0 0 0 0 0 0

GFSSGP_con_mucape_087.txt.gz
CAPE
292 11 0 0 0 0 0 0 0 0 0 0 0 0 0 0 10 60 128 616 745 1407 1727 1965 2149 2200 2193 2147 1971 1734 1524 1360 1170 769 373 212 87 42 5 6 7 2 1 0 0 5 3 2 1
254 2 0 0 0 0 0 0 0 0 0 0 0 0 0 0 371 610 725 738 1114 1515 1787 1907 2110 2219 2285 2191 1999 1845 1739 1489 1252 1032 641 439 189 134 3 2 4 0 0 0 2 2 0 0 0
107 31 1 0 0 0 0 0 0 0 0 0 0 0 14 95 541 543 650 1091 1406 1755 1832 1983 2113 2217 2375 2108 2025 1971 1718 1621 1429 1173 978 661 347 347 27 3 1 0 0 0 2 6 6 3 2
75 51 13 0 0 0 0 0 0 0 0 0 0 0 185 314 522 619 1151 1149 1682 1793 1866 2133 2221 2471 2255 2003 1819 1962 1758 1384 996 977 709 311 216 441 260 0 0 0 0 0 3 4 0 0 63
63 30 51 0 0 0 0 0 0 0 0 0 0 0 264 518 923 1321 1302 1609 1417 1602 1900 2158 2421 2388 2340 2131 2069 1976 1817 1427 848 572 473 154 38 107 511 157 58 0 0 0 0 1 0 0 35
75 55 41 1 0 0 0 0 0 0 0 0 0 3 384 974 1407 1629 1499 1588 1323 1526 1890 1948 2141 2153 2198 2182 2038 1941 1682 1363 1140 947 290 43 0 12 341 170 98 19 0 0 0 0 0 0 0
75 43 5 0 0 0 0 0 0 0 0 0 0 46 141 847 1248 1763 1549 1448 1386 1594 1735 1870 1807 1811 1866 1813 1799 1636 1361 1062 643 401 150 25 5 0 98 472 213 68 65 9 0 0 0 0 0
67 55 15 0 0 0 0 0 0 0 0 0 0 0 0 82 1259 1780 2022 1295 1190 1660 1629 1713 1838 1761 1661 1599 1202 765 577 439 309 213 50 20 19 36 96 234 266 284 197 123 86 0 0 0 0
100 69 17 0 0 0 0 0 0 0 0 0 0 19 101 414 1137 1372 2005 1702 1504 1377 1522 1547 1651 1644 1536 1399 890 309 146 73 37 11 0 1 39 41 65 96 230 235 234 130 79 36 8 0 0
129 47 0 0 0 0 0 0 0 1 1 0 0 0 228 941 1258 1437 1532 1617 1418 1108 1485 1481 1372 1518 1379 1113 635 261 101 50 13 15 11 2 24 18 46 55 159 159 145 114 75 51 11 0 0
14 0 0 0 0 0 0 0 0 2 3 1 0 0 24 776 874 1153 1359 1531 1178 1360 1144 1451 1471 1418 1248 1017 514 249 146 50 25 9 1 1 6 27 42 82 161 152 54 59 46 35 16 0 0
16 0 0 5 9 0 0 0 0 0 0 0 0 0 3 447 800 863 960 1347 1234 997 1155 1260 1396 1204 1200 846 461 278 135 69 27 14 0 0 7 21 53 92 111 117 81 54 40 26 16 2 0
38 6 6 11 30 12 0 0 0 0 0 0 0 0 0 21 99 193 338 922 876 1090 1260 1052 1404 1175 1081 738 476 278 231 86 34 29 23 7 1 7 22 41 45 55 45 33 24 12 6 2 0
13 10 17 39 22 53 0 0 0 0 0 0 0 0 0 8 13 159 282 724 857 836 1437 1273 1507 1167 1001 813 540 400 250 84 57 45 38 25 18 8 0 13 18 15 16 17 6 0 0 0 0
67 17 44 35 30 43 25 0 0 0 0 0 0 0 0 3 16 84 300 683 746 599 758 772 778 1330 1026 895 783 491 241 161 113 70 65 40 31 19 22 0 0 0 0 0 0 0 0 0 0
95 9 29 8 30 23 8 0 0 0 0 0 1 0 0 0 13 144 144 431 588 588 610 772 740 1159 1090 917 829 686 337 302 232 187 123 70 45 35 27 13 0 0 0 0 0 0 0 0 0
38 0 0 2 29 21 4 0 0 0 0 0 0 0 9 0 4 50 90 346 567 625 614 610 754 765 994 971 856 770 443 371 338 315 250 117 77 62 52 55 7 0 0 0 0 0 0 0 0
0 0 0 0 2 25 2 0 0 0 0 0 0 0 1 0 25 21 77 270 423 463 546 671 812 795 766 774 874 930 724 551 485 457 397 245 127 105 76 70 75 31 11 0 0 0 0 0 0
0 0 0 0 12 7 0 4 0 0 0 0 0 0 0 2 29 14 41 123 320 468 622 633 687 732 622 652 731 794 889 799 620 581 588 473 204 149 154 121 108 92 55 33 6 0 0 0 0
0 0 0 2 26 23 3 0 0 0 0 0 0 0 0 0 9 21 39 46 91 187 428 522 735 910 866 876 817 844 865 820 861 784 734 681 480 171 145 178 146 121 102 62 45 26 31 13 37
0 0 0 0 7 23 15 1 0 0 0 0 0 0 0 0 5 4 27 1 0 0 85 524 680 815 882 996 1087 999 917 745 624 780 700 483 281 178 138 145 122 136 125 126 130 122 108 89 74
0 0 0 0 0 0 2 0 0 0 0 0 0 0 0 0 0 6 5 0 0 0 0 6 292 741 838 829 838 854 833 790 801 669 561 560 541 588 538 384 180 171 202 258 187 160 107 101 83
0 0 0 15 0 0 0 0 0 0 0 0 0 0 0 0 0 0 0 0 0 0 0 0 31 113 635 786 941 910 833 774 675 586 577 539 452 425 528 498 455 363 300 252 194 151 117 90 115
1 0 0 28 0 0 0 0 0 0 0 0 0 0 0 0 0 0 0 0 0 0 0 0 0 3 109 517 718 750 750 626 526 546 597 607 532 453 412 368 373 362 329 288 249 181 147 184 131
2 0 0 0 0 0 0 0 0 0 0 0 0 0 0 0 0 0 0 0 0 0 0 0 0 0 3 15 38 41 24 0 0 0 0 0 0 4 45 156 205 172 197 201 185 198 192 113 93
0 0 0 0 0 0 0 0 0 0 0 0 0 0 0 0 0 0 0 0 0 0 0 0 0 0 0 0 0 0 0 0 0 0 0 0 0 0 0 0 0 2 48 180 231 119 85 69 102
0 0 0 0 0 0 0 0 0 0 0 0 0 0 0 0 0 0 0 0 0 0 0 0 0 0 0 0 0 0 0 0 0 0 0 0 0 0 0 0 0 1 3 84 165 123 115 63 49
0 0 0 0 0 0 0 0 0 0 0 0 0 0 0 0 0 0 0 0 0 0 0 0 0 0 0 0 0 0 0 0 0 0 0 0 0 0 1 1 1 3 3 10 28 170 60 57 5
0 0 0 0 0 0 0 0 0 0 0 0 0 0 0 0 0 0 0 0 0 0 0 0 0 0 0 0 0 0 0 0 0 0 0 0 0 0 0 1 2 2 6 9 26 17 5 2 6
0 0 0 0 0 0 0 0 0 0 0 0 0 0 0 0 0 0 0 0 0 0 0 0 0 0 0 0 0 0 0 0 0 0 0 0 0 0 0 0 0 0 1 3 3 1 4 8 0

GFSSGP_con_mucape_090.txt.gz
CAPE
469 97 0 0 0 0 0 0 0 0 0 0 0 0 0 0 216 455 569 725 906 1474 1353 1431 2224 2230 2237 2068 1891 1744 1575 1227 1076 488 190 155 24 10 7 4 1 2 1 4 10 7 3 1 0
383 22 4 0 0 0 0 0 0 0 0 0 0 0 0 0 433 769 942 887 1169 1444 1582 1097 2110 2194 2159 2093 1940 1804 1645 1435 1212 987 420 259 42 4 7 2 0 0 1 6 6 3 2 1 1
427 51 13 0 0 0 0 0 0 0 0 0 0 0 6 195 831 893 942 1013 1287 1562 1601 1464 2064 2229 2174 2021 1996 1881 1690 1525 1411 1273 1011 684 190 42 33 1 0 0 4 6 9 8 5 1 1
214 64 37 0 0 0 0 0 0 0 0 0 0 5 496 962 972 947 1091 1172 1366 1536 1737 1720 1952 2344 2259 2019 2009 1765 1814 1366 1027 1082 820 795 597 174 78 0 0 0 12 7 7 4 15 78 59
124 115 50 0 0 0 0 0 0 0 0 0 0 22 639 1201 1340 1231 1143 1163 1233 1386 1731 1917 2044 2438 2278 2124 1999 2008 1795 1269 786 526 404 308 415 529 127 0 0 0 0 3 2 1 2 77 82
249 121 58 8 0 0 0 0 0 0 0 0 0 121 845 1407 1515 1370 1185 1340 1544 1300 1767 1943 2130 2205 2204 2124 2093 2000 1743 1421 1043 944 252 72 115 513 169 32 0 0 0 1 1 0 0 61 77
164 113 38 2 9 6 0 0 0 0 0 0 0 123 479 1217 1532 1629 1462 1620 1344 1588 1774 1902 1866 1787 1831 1926 1914 1810 1711 1347 1000 632 365 62 18 199 471 184 89 7 0 0 0 0 0 16 76
156 198 78 38 44 8 0 0 0 0 0 0 0 0 43 253 1474 1982 1589 1381 1386 1435 1509 1603 1733 1785 1616 1522 1482 1320 1069 738 675 412 82 0 7 35 277 253 245 212 82 35 0 1 9 0 0
144 158 97 44 37 8 19 0 0 0 0 0 28 25 508 733 1459 1740 1359 1389 1408 1460 1361 1316 1675 1578 1449 1220 1114 625 347 238 152 45 0 0 0 0 40 304 139 282 216 99 39 24 20 0 0
86 106 8 35 53 66 46 0 2 0 0 0 0 0 719 1140 1661 1550 1291 1347 1172 1318 1435 1467 1653 1591 1418 1048 1043 704 344 205 122 46 15 0 0 6 0 126 128 205 181 170 110 41 1 0 0
57 0 7 100 48 33 49 0 0 0 0 0 0 1 231 811 921 1205 1131 1406 1260 1332 1115 1544 1442 1479 1330 1139 924 658 403 224 70 3 0 0 11 8 7 90 319 166 75 126 76 52 41 6 0
1 0 20 75 26 37 24 0 0 0 0 0 0 0 19 550 548 769 1098 1197 1237 1091 1247 1116 1297 1547 1310 1138 969 659 448 234 87 29 0 0 8 24 6 43 120 139 113 124 125 90 61 25 0
1 2 50 41 21 52 46 0 0 0 0 0 0 0 0 12 156 175 668 1255 1222 1095 1206 1168 1139 1517 1401 1164 928 734 482 257 148 66 12 0 1 26 51 82 86 115 111 89 73 44 34 34 16
0 4 44 39 36 65 11 1 3 0 0 0 0 7 0 0 0 33 192 692 1237 1141 1409 1222 1228 1340 1392 1246 1051 793 521 339 213 138 69 22 1 2 23 50 58 57 45 40 34 11 0 0 0
42 0 66 77 18 40 65 17 0 15 0 0 0 4 1 0 0 4 61 686 1311 1257 1248 1001 1250 1325 1362 1237 1104 957 755 434 290 221 149 68 39 23 17 0 6 15 4 0 10 1 0 0 0
0 22 0 60 47 45 10 0 5 10 0 3 4 0 5 0 0 0 111 443 1171 1255 1255 1275 1173 1409 1278 1269 1214 1103 957 581 437 316 267 145 74 62 38 24 0 0 0 0 0 0 0 0 0
0 0 0 34 48 53 31 0 12 0 0 0 0 0 2 8 0 0 67 234 770 1061 1095 1212 1285 1201 1291 1527 1336 1125 1018 834 681 570 451 293 158 99 84 59 23 0 0 0 3 0 0 0 0
0 0 0 0 73 65 17 2 1 0 0 0 0 0 1 10 5 0 27 115 699 1080 1158 1172 1173 1398 1214 1363 1110 1131 1105 947 866 807 665 537 341 195 141 124 103 48 21 23 0 0 0 0 0
0 0 0 0 40 56 5 2 1 0 0 0 0 0 0 0 16 0 39 78 683 1030 1182 1179 1100 996 1055 796 832 896 1022 958 822 756 732 693 628 428 335 247 167 120 73 51 22 0 0 0 0
0 0 0 0 74 65 38 7 6 0 0 0 0 0 0 12 11 0 30 159 241 767 1079 1148 1030 958 937 989 729 653 776 699 1140 961 621 672 617 564 417 338 293 184 85 66 41 29 21 13 8
0 0 0 0 47 36 41 11 0 0 0 0 0 0 0 44 32 0 49 101 128 149 327 588 707 646 841 685 430 406 373 356 403 647 722 700 625 629 477 282 265 214 148 107 85 76 59 57 70
0 0 0 29 4 0 15 0 0 0 0 0 0 0 8 61 74 27 34 60 40 25 7 2 382 571 536 684 525 556 672 688 590 838 890 868 567 485 390 381 323 205 138 110 181 105 79 68 63
0 34 31 59 63 25 10 0 0 0 0 0 0 0 0 31 30 33 26 42 30 28 0 0 0 170 428 641 668 929 893 1072 983 528 552 600 612 604 529 527 512 433 330 264 222 182 129 90 79
1 0 50 61 65 0 0 0 0 0 0 0 0 0 1 0 18 46 36 22 25 4 0 1 0 0 97 336 411 653 853 813 607 539 535 725 678 607 528 396 390 445 430 354 264 221 148 147 141
2 0 0 0 0 0 0 0 0 0 0 0 0 0 3 7 1 0 0 19 5 4 4 0 0 0 0 51 252 317 461 430 458 405 132 64 32 48 106 194 332 383 695 567 522 314 302 183 138
0 0 0 0 0 0 0 0 0 0 0 0 0 0 0 1 0 0 0 0 0 12 0 0 0 0 0 0 29 74 107 69 17 2 0 0 0 0 0 0 0 14 62 236 155 178 173 186 167
0 0 0 0 0 0 0 0 0 0 0 0 0 0 0 0 0 0 0 0 0 0 0 0 0 0 0 0 0 0 0 0 0 0 0 0 0 0 0 0 0 1 2 2 30 67 159 201 101
0 0 0 0 0 0 0 0 0 0 0 0 0 0 0 0 0 0 0 0 0 0 0 0 0 0 0 0 0 0 0 0 0 0 0 0 0 0 0 0 0 0 0 0 2 32 85 121 60
0 0 0 0 0 0 0 0 0 0 0 0 0 0 0 0 0 0 0 0 0 0 0 0 0 0 0 0 0 0 0 0 0 0 0 0 0 0 0 0 0 0 0 0 4 5 11 9 24
0 0 0 0 0 0 0 0 0 0 0 0 0 0 0 0 0 0 0 0 0 0 0 0 0 0 0 0 0 0 0 0 0 0 0 0 0 0 0 0 0 0 1 1 10 7 8 18 8

GFSSGP_con_mucape_093.txt.gz
CAPE
581 521 2 0 0 1 0 0 0 0 0 0 0 0 4 31 426 685 673 439 1326 1156 959 1659 2101 2152 2203 2097 1822 1586 1332 1132 782 252 55 26 24 23 11 3 1 3 9 8 4 1 0 0 0
226 423 12 6 0 0 0 0 0 0 0 0 0 1 24 48 771 919 901 812 1382 1059 983 1300 2141 2173 2103 1890 1730 1603 1383 1147 946 605 348 22 20 17 2 2 2 6 9 8 5 6 8 5 0
485 452 37 29 1 0 0 0 0 0 0 0 0 0 1 292 788 1098 1073 1049 1354 1172 896 1351 2005 2214 2092 1956 1864 1566 1504 1346 1205 954 803 320 50 29 0 0 2 8 10 11 10 6 5 4 2
483 210 183 29 7 0 0 3 0 0 0 0 0 0 537 1296 1178 1294 968 1138 1256 1397 846 1321 1887 2187 2133 2032 1994 1689 1552 1216 1027 1067 994 666 186 62 0 0 6 20 27 15 10 76 86 65 59
508 243 78 53 1 0 2 0 0 0 0 0 0 13 672 1183 1467 1253 1014 1158 1201 1589 1554 1260 2009 2237 2186 2090 2008 1679 1638 1438 1032 781 587 653 321 93 0 0 2 14 15 9 7 59 90 77 80
312 254 89 40 2 8 23 0 0 0 0 0 0 3 1124 1137 1326 1334 1106 1139 1070 1651 1833 1334 1790 2039 2089 2099 1957 1809 1785 1369 1093 809 309 286 599 148 0 0 0 2 8 8 5 3 74 59 47
241 200 77 4 1 34 7 0 0 0 0 0 0 119 958 1485 1526 1171 1217 1456 1179 1579 1657 1449 1558 1536 1744 1726 1855 1821 1494 1128 986 695 392 242 421 438 60 96 14 0 1 0 0 0 13 34 0
162 254 125 26 63 49 0 0 0 0 0 0 18 246 550 1659 1546 1620 1587 1363 1320 1454 1785 1312 1421 1438 1487 1352 1492 1356 1119 752 673 487 111 0 0 362 405 182 158 63 25 17 6 0 0 14 11
141 116 114 38 57 47 14 5 0 0 0 0 10 111 480 765 1517 1856 1524 1437 1162 1355 1608 1234 1277 1435 1480 1164 1122 978 605 330 155 34 0 0 0 56 188 116 141 169 79 26 0 3 0 0 0
160 120 12 2 39 43 42 6 4 0 0 0 0 523 644 1177 1642 1429 1791 1381 1159 1257 1202 1518 1691 1459 1261 1112 884 883 564 299 170 61 1 0 0 0 312 163 95 184 146 98 32 12 0 0 0
77 1 1 50 71 33 34 31 54 16 0 0 0 358 1058 1645 1860 1490 1540 1376 1253 1289 1435 1322 1444 1527 1228 1149 930 736 442 312 172 21 0 0 0 0 109 318 165 135 69 94 58 19 14 0 0
60 0 4 65 24 15 16 12 39 33 28 16 0 48 523 984 1193 1269 1322 1715 1200 1313 1482 1548 1554 1448 1345 1167 916 780 500 247 91 3 0 0 0 0 0 81 298 218 112 119 116 82 48 25 0
5 2 0 6 35 31 36 31 36 38 32 1 0 0 121 260 493 1107 1092 1168 1488 1406 1362 1512 1379 1600 1214 876 886 648 527 288 168 29 0 0 1 10 2 29 89 107 109 130 103 47 44 37 19
13 12 23 22 20 35 84 17 29 27 48 5 0 0 0 42 63 151 638 968 1294 1315 1204 1328 1308 1305 1373 1198 837 672 449 385 348 120 30 0 0 5 35 66 70 72 69 52 48 26 3 2 0
15 21 7 57 45 26 29 54 34 32 61 17 0 0 2 0 0 104 132 549 1074 1324 1268 1184 1260 1350 1257 1239 946 718 690 394 506 243 140 58 19 9 22 22 41 31 22 1 13 8 0 0 0
0 21 0 11 58 30 66 0 0 59 55 14 1 1 7 1 0 0 355 743 1377 1264 1248 1204 1250 1322 1322 1131 1248 998 709 734 860 422 330 257 137 75 72 64 9 0 5 9 9 0 0 0 0
0 106 0 0 47 29 80 5 21 7 55 18 0 0 13 6 0 0 160 879 1164 1157 1235 1435 1336 1306 1311 1201 1242 1277 938 1174 629 514 479 428 225 150 129 102 55 1 0 13 26 3 0 0 0
41 0 0 0 48 56 28 26 22 41 29 5 0 0 11 9 0 0 9 392 1001 1113 1107 1246 1698 1530 1479 1511 1332 1172 1155 1018 798 636 570 588 368 281 204 167 140 67 44 27 34 35 29 0 0
0 0 0 0 56 0 0 19 32 9 8 0 0 0 0 9 0 4 0 505 907 1029 1128 1256 1421 1551 1429 1459 1409 1027 845 930 1001 1117 959 879 614 505 376 336 294 247 138 96 87 65 48 58 18
0 8 0 0 85 39 58 37 55 12 1 0 0 0 1 0 1 54 0 30 958 1101 1206 1218 1091 1162 1557 1525 1291 1191 1200 1318 1249 1093 890 931 917 865 642 610 558 455 424 281 231 140 91 55 68
1 15 18 0 61 80 50 0 28 8 6 1 0 0 0 0 0 109 1 1 653 1013 1110 1166 914 941 1156 1216 1031 795 705 661 894 1111 1069 713 517 783 822 752 738 705 554 396 369 242 123 128 117
1 21 6 1 0 0 7 0 0 1 0 0 0 0 0 0 3 167 9 0 242 331 658 972 989 764 920 1021 844 718 696 704 659 869 993 934 635 388 325 336 433 511 514 458 410 341 252 192 183
0 1 2 3 0 0 0 0 0 0 0 0 0 0 0 0 40 125 25 0 171 151 165 99 264 763 846 916 840 670 685 1013 607 615 482 629 846 497 271 202 199 213 430 374 289 345 319 209 198
0 16 19 29 14 0 0 0 0 0 0 0 0 0 0 0 64 173 25 6 81 97 50 47 9 88 486 741 652 534 505 503 654 480 459 763 823 831 587 561 313 284 388 418 377 269 286 243 227
0 13 87 0 0 0 0 0 0 0 0 0 0 0 0 0 7 33 45 18 45 84 71 48 16 3 0 40 235 524 731 710 681 495 477 461 620 481 412 385 570 948 959 874 749 359 312 249 258
0 0 1 2 2 0 0 0 0 0 0 0 0 0 0 0 0 0 10 36 40 64 93 119 64 16 0 0 23 54 133 117 108 88 72 69 47 8 4 12 13 50 163 528 729 552 580 420 413
1 0 0 0 0 1 0 0 0 0 0 0 0 0 0 0 0 0 0 7 0 42 64 71 64 51 2 0 0 0 0 3 17 12 0 14 0 0 0 0 0 0 2 14 71 208 290 303 270
0 0 0 27 0 0 0 0 0 0 0 0 0 0 0 0 0 0 0 2 0 0 13 37 23 17 0 0 0 0 3 5 11 2 0 0 0 0 0 0 0 0 0 0 3 19 62 81 53
0 0 31 13 0 0 0 0 0 0 0 0 0 0 0 0 0 0 0 0 0 0 0 6 8 2 0 0 0 0 0 0 0 0 0 0 0 0 0 0 0 0 0 0 2 3 5 9 12
0 0 34 27 0 0 0 0 0 0 0 0 0 0 0 0 0 0 0 0 0 0 0 0 0 0 0 0 0 0 2 1 0 0 0 0 0 0 0 0 0 0 0 0 1 2 6 12 19

GFSSGP_con_mucape_096.txt.gz
CAPE
397 571 429 41 24 0 0 0 0 0 0 0 0 0 8 694 600 384 453 969 1341 1252 1491 1814 2109 2094 2122 2011 1608 1366 1126 789 540 200 23 23 21 15 17 16 18 9 6 3 3 0 0 0 0
25 459 291 36 1 0 0 0 0 0 0 0 0 9 31 757 736 628 488 1267 1022 1227 1156 1437 2144 2261 2243 1927 1551 1436 1186 886 730 346 185 18 9 6 7 9 12 12 10 10 11 8 1 3 4
62 346 117 9 0 0 0 0 0 0 0 0 0 2 46 663 776 763 760 1193 921 1005 991 1412 2028 2232 1981 1707 1596 1465 1321 1115 957 534 355 224 7 2 5 12 11 8 12 9 8 12 7 4 72
150 461 282 25 0 0 0 0 0 0 0 0 0 213 1165 1296 1030 1036 902 1209 941 836 1323 1553 1937 1894 1776 1715 1681 1660 1550 1369 1204 786 630 427 9 0 6 10 19 24 19 20 72 86 60 75 95
187 278 85 42 0 0 0 0 0 0 0 0 0 316 1189 1077 1259 919 1067 1256 956 941 1168 1586 2093 2030 1904 1716 1629 1523 1651 1523 1280 1028 774 262 24 0 2 5 85 37 22 27 104 77 85 92 89
246 210 63 1 0 0 0 1 0 0 0 0 0 500 1166 1199 1294 976 1088 1277 1263 1202 1063 1349 1805 1826 1872 1824 1530 1483 1555 1499 1240 959 711 578 51 0 0 1 28 19 10 6 52 66 61 59 44
225 154 51 0 0 0 5 0 0 0 0 0 0 82 1107 1466 1257 977 1083 1210 1567 1312 1070 1271 1478 1512 1716 1611 1546 1532 1372 1057 849 681 760 775 244 131 0 0 65 5 2 1 18 74 41 0 0
167 140 60 7 0 0 15 0 0 0 0 0 34 503 1212 1595 1642 1164 1408 1627 1959 1462 1175 1236 1265 1297 1304 1148 1368 1081 714 611 583 296 63 202 156 140 193 15 45 93 71 63 52 17 54 16 0
175 116 0 0 27 2 35 12 0 2 0 3 275 458 1466 1605 1796 1431 1378 1351 1702 1375 1106 1340 1177 1218 1240 1003 917 720 374 220 57 0 0 0 212 73 26 8 28 59 67 60 34 4 0 0 0
141 69 9 0 5 11 62 32 0 1 0 0 481 498 1529 1444 1841 1549 1249 1195 1311 1742 1290 1263 991 1171 1284 884 574 539 187 27 6 0 0 0 3 279 119 44 59 97 70 49 39 20 1 0 0
53 0 0 19 83 54 99 32 17 0 0 0 369 703 1358 1657 1558 1605 1297 1279 1333 1507 1270 1340 1298 1264 1070 838 563 587 214 140 93 19 0 0 0 67 436 55 76 63 60 57 26 3 0 0 0
42 0 0 48 58 21 16 8 3 6 0 1 403 837 1615 1631 1474 1499 1487 1076 1282 1312 1331 1416 1528 1186 1047 800 714 539 267 269 98 0 0 0 0 0 237 71 88 75 70 100 57 50 38 16 0
4 0 0 35 29 1 12 3 0 24 60 32 285 583 886 1507 1415 1362 1473 1548 1173 1366 1279 1416 1532 1271 1193 901 797 529 364 177 58 0 0 0 0 0 0 142 103 82 84 92 66 79 46 32 16
21 24 31 28 5 16 8 0 42 19 17 42 27 81 349 534 1260 1189 1243 1299 1247 1427 1212 1388 1500 1376 1070 928 760 472 384 243 161 43 0 0 0 0 0 19 127 85 107 104 87 41 22 17 2
28 2 17 22 17 4 24 0 22 3 12 31 9 0 7 157 344 872 1032 1022 1290 1358 1377 1313 1302 1270 1182 849 819 616 363 261 302 150 31 0 0 2 22 42 51 46 56 37 25 13 0 0 0
26 6 0 4 5 41 0 0 1 0 10 6 15 4 0 0 0 81 331 910 1163 1271 1262 1269 1369 1315 1263 1194 878 832 434 388 338 227 145 43 19 16 17 24 26 25 19 1 0 0 0 0 0
0 0 0 0 16 5 7 0 2 0 0 18 8 3 0 0 0 0 242 545 1112 1339 1283 1225 1141 1322 1280 1186 950 792 980 469 416 660 266 219 135 78 52 55 8 0 4 1 0 0 0 0 0
0 0 0 0 0 31 0 0 0 0 0 1 1 3 1 0 0 0 152 691 1386 1328 1325 1277 1184 1308 1325 1143 1031 901 843 1140 599 516 377 343 227 153 118 93 48 12 0 0 0 0 0 0 0
0 0 0 0 0 0 0 0 0 45 1 0 13 0 0 0 0 0 0 805 1217 1201 1307 1454 1315 1275 1291 1310 997 912 673 745 738 550 426 355 355 268 187 154 154 116 45 11 2 7 0 0 0
0 0 0 16 29 0 0 0 1 46 41 1 2 1 0 2 0 0 20 397 993 1159 1144 1297 1473 1430 1280 1104 1146 989 751 604 720 634 728 681 642 518 404 286 292 266 232 149 113 97 61 28 23
12 0 2 0 33 8 5 0 12 19 2 0 0 0 0 0 1 1 0 201 833 1031 1203 1374 1334 1240 1344 1172 1069 941 752 614 565 540 592 596 631 637 595 542 445 396 363 324 234 184 137 80 37
1 0 0 3 0 2 3 0 0 2 2 0 0 0 0 0 0 0 0 8 789 1135 1195 1223 1120 1191 1320 1157 979 671 595 445 423 481 492 340 374 351 369 444 447 385 360 402 277 229 180 159 139
0 0 6 7 12 8 0 0 0 1 0 0 0 0 0 0 0 0 0 15 189 815 1111 1082 947 970 1210 1066 769 627 409 246 185 280 377 554 446 368 290 278 265 269 243 272 346 274 221 164 165
0 1 19 19 1 0 0 0 0 0 0 0 0 0 0 0 0 0 4 25 62 93 448 656 863 753 763 483 174 154 101 73 196 208 245 339 443 456 344 269 212 194 206 173 174 165 224 198 203
0 0 6 4 16 0 0 0 0 0 0 0 0 0 0 0 0 2 3 22 42 56 197 249 197 621 730 609 491 219 32 39 29 93 56 7 9 20 172 229 334 264 340 248 257 215 237 276 380
0 0 3 27 1 0 0 0 0 1 0 0 0 0 0 0 0 1 29 34 41 26 33 76 80 69 71 65 197 181 124 41 43 13 6 1 1 8 1 0 31 84 99 114 146 198 341 408 352
4 0 0 0 0 0 0 0 1 0 0 0 0 0 0 0 0 0 11 35 25 0 0 24 36 47 46 61 31 60 86 79 137 107 110 51 10 1 15 12 7 0 2 11 11 18 74 156 209
0 0 2 7 0 0 0 0 0 0 0 0 0 0 0 0 0 0 0 0 0 0 0 11 38 66 81 63 7 1 0 2 7 0 0 0 0 0 0 0 0 0 0 0 0 2 8 67 97
0 2 0 1 1 0 1 0 0 0 0 0 0 0 0 0 0 0 0 0 0 0 0 0 17 41 57 53 46 36 12 1 1 5 10 15 10 0 0 0 0 0 0 0 0 0 1 6 16
0 0 2 0 0 0 1 2 0 0 0 0 0 0 0 0 0 0 0 0 0 0 0 0 0 10 37 35 52 10 1 0 0 0 0 0 0 0 0 0 0 0 0 0 0 2 4 7 4

GFSSGP_con_mucape_099.txt.gz
CAPE
10 218 357 344 8 0 0 0 0 0 2 0 0 549 513 516 463 212 989 1263 1312 1437 1653 1798 2144 2054 1975 1588 1284 994 754 429 344 186 17 83 111 84 87 27 7 5 4 2 2 0 0 0 0
4 47 328 151 1 0 0 0 0 0 0 0 0 297 489 452 554 926 1488 1466 1355 1475 1431 1508 1937 1998 1766 1489 1264 1051 868 568 360 306 79 10 7 12 21 14 12 10 8 5 3 3 1 7 62
51 164 221 63 0 0 0 0 0 0 0 0 0 461 743 553 571 843 1446 1395 1312 1307 1331 1506 1916 2017 1797 1484 1244 1131 1007 645 496 329 126 9 7 12 14 11 11 12 13 12 8 10 40 150 192
139 277 303 67 0 0 0 0 0 0 0 0 266 1025 1052 898 804 1275 1366 1290 1053 1204 1327 1744 2016 2007 1568 1385 1483 1365 1243 865 651 523 150 7 4 9 11 14 31 60 74 29 16 59 101 123 124
221 162 225 22 0 0 0 0 1 0 0 0 0 1023 1009 1151 966 1302 1317 1144 914 1097 1222 1567 1951 1701 1551 1677 1455 1433 1341 1124 797 729 19 0 3 8 17 21 59 71 370 120 106 102 133 103 74
184 125 60 52 0 0 0 0 1 0 0 0 37 1094 852 1221 966 1309 1159 1136 1105 1001 1150 1392 1479 1517 1543 1529 1434 1344 1316 1171 983 918 136 0 0 8 22 26 88 74 72 67 58 80 92 73 23
89 164 37 27 0 0 0 7 0 0 0 0 0 955 919 1257 959 1216 1249 1097 1164 1054 1228 1381 1218 1292 1402 1275 1310 1407 1439 1151 1052 907 471 96 11 27 13 91 109 6 8 69 84 47 29 11 0
140 83 63 7 0 0 2 8 0 0 0 21 179 930 1021 1223 1165 1245 1392 1207 1108 1116 1326 1273 1191 1289 1138 978 1058 966 775 574 608 493 190 21 13 3 69 60 95 79 38 50 100 63 22 0 0
106 51 16 0 0 0 32 2 0 0 4 573 903 1081 1284 1469 1410 1619 1572 1534 1164 1130 1153 1166 1133 1134 981 945 674 353 157 60 12 36 162 32 9 0 0 0 31 85 83 62 28 35 32 6 0
159 37 0 5 17 6 37 13 14 43 354 857 1345 1413 1628 1610 1334 1845 1798 1698 1525 1173 1136 1138 1138 1008 905 826 368 205 32 0 0 0 76 127 22 0 0 0 9 60 59 64 52 20 9 0 0
32 3 0 0 63 13 38 30 17 20 170 627 946 1416 1669 1765 1547 1616 1812 1735 1372 1262 1236 1127 1198 1120 849 483 322 129 9 0 0 0 0 24 165 21 31 0 20 14 16 17 16 4 0 0 0
9 0 13 15 17 36 38 25 22 0 31 763 1201 1615 1609 1907 1694 1369 1489 1559 1526 1276 1304 1116 1215 1302 889 404 397 204 99 59 59 0 0 0 45 196 44 30 22 32 30 32 14 28 14 0 0
22 3 0 27 1 23 16 23 0 0 40 403 1158 1516 1541 1645 1599 1370 1320 1389 1662 1365 1324 1299 1355 1364 1062 601 588 328 237 216 135 3 0 0 20 222 157 56 36 34 42 62 53 70 62 38 2
25 11 4 7 25 0 6 21 15 4 12 213 936 1292 1457 1508 1374 1291 1171 1285 1410 1393 1510 1636 1362 1249 1000 791 568 372 341 299 127 10 0 0 0 37 214 76 64 61 72 71 65 68 27 11 3
14 22 33 88 36 2 0 27 0 7 6 60 131 600 1091 1317 1373 1143 1133 1263 1179 1271 1330 1469 1475 1368 1148 935 677 474 386 177 210 142 0 0 0 0 0 135 116 87 98 88 78 26 0 0 0
25 19 0 17 0 2 16 8 0 0 23 12 16 264 563 1005 1160 1108 1061 1041 1230 1162 1292 1416 1300 1389 1259 1038 672 532 516 232 262 200 123 0 0 0 11 33 93 47 47 48 13 0 0 0 0
0 0 0 10 0 35 0 0 0 7 0 0 2 12 337 372 541 788 934 1043 1165 1183 1253 1376 1396 1328 1414 1193 754 642 550 389 315 260 180 87 4 0 2 23 36 29 17 9 0 0 0 0 0
0 0 0 0 14 41 0 0 0 0 8 1 9 0 47 11 0 145 282 926 1070 1337 1208 1321 1242 1295 1367 1346 924 823 674 506 403 292 273 252 188 109 57 46 38 2 0 0 0 0 0 0 0
0 0 0 0 34 2 0 0 0 0 0 2 0 6 1 0 0 0 321 627 1155 1397 1300 1312 1295 1210 1299 1335 1169 920 800 705 827 490 418 344 306 226 147 111 87 57 11 0 1 0 8 0 0
0 0 0 0 40 14 0 0 0 0 0 1 0 17 17 14 0 0 255 812 1247 1612 1451 1247 1204 1190 1392 1230 1239 1130 994 907 755 682 594 543 429 325 272 177 143 138 155 155 48 23 30 21 8
0 0 0 0 26 34 0 0 0 0 9 11 21 30 1 2 0 0 99 855 1200 1282 1355 1434 1290 1260 1239 1321 1049 975 784 689 718 725 666 518 342 346 277 227 218 280 250 255 238 152 155 147 71
0 0 0 26 0 0 41 0 0 0 0 1 36 7 0 0 0 0 22 498 1093 1287 1228 1326 1421 1340 1322 1165 1183 982 833 619 598 742 440 299 254 266 249 337 329 303 307 294 251 245 232 226 139
0 0 0 0 1 0 9 0 0 0 0 0 0 0 0 0 0 0 0 390 939 1145 1229 1371 1435 1415 1462 1297 1069 872 549 446 379 286 221 226 186 165 181 162 187 221 199 190 205 227 222 186 152
0 1 1 1 14 0 0 0 0 0 0 0 0 0 0 0 0 0 0 124 959 1133 1230 1312 1250 1336 1402 1134 845 643 411 195 187 156 126 109 187 209 217 212 177 129 107 81 132 146 151 171 152
8 1 15 4 0 0 0 4 0 0 0 0 0 0 0 0 0 0 0 17 700 1044 1276 1125 1027 1091 1151 844 360 266 103 123 117 85 31 5 6 38 90 137 161 25 96 58 89 118 77 140 159
6 0 0 7 0 0 2 4 0 0 0 0 0 0 0 0 0 0 0 0 7 19 32 631 693 832 669 423 181 66 48 52 107 73 3 0 7 3 11 20 6 3 34 43 47 93 111 172 193
12 3 0 0 0 0 0 0 0 0 0 0 0 0 0 0 0 0 0 1 9 21 17 64 243 320 486 556 501 356 80 50 29 1 0 0 0 0 0 0 0 0 0 3 14 23 16 33 74
7 2 3 1 0 0 0 0 0 0 0 0 0 0 0 0 0 0 0 1 12 29 30 19 2 41 60 67 49 59 118 145 87 32 23 5 15 28 37 23 16 20 7 0 0 0 0 0 3
0 0 0 0 3 6 0 0 0 0 0 0 0 0 0 0 0 0 0 1 2 6 4 0 0 0 0 11 33 55 33 54 66 47 25 12 4 4 0 2 3 0 0 0 0 0 0 0 0
0 0 0 0 0 3 0 0 0 0 0 0 0 0 1 7 0 0 0 0 0 0 0 0 0 0 0 10 37 44 52 36 45 12 1 2 0 0 0 0 0 0 0 0 0 0 0 0 0

GFSSGP_con_mucape_102.txt.gz
CAPE
0 33 85 384 3 1 0 0 0 0 43 0 0 82 128 254 67 48 924 1165 1348 1638 1821 1819 2107 1929 1618 1127 738 641 431 382 565 539 709 738 561 244 75 8 4 5 4 2 0 0 0 26 160
16 16 232 199 1 0 0 0 0 0 12 27 551 452 335 564 750 1373 1344 1189 1378 1572 1675 1698 1883 1862 1492 1215 820 642 534 384 368 282 313 259 158 39 7 7 5 3 1 2 0 0 59 184 235
199 75 176 75 0 0 0 0 0 0 2 0 241 605 523 638 1331 1286 1408 1281 1316 1300 1299 1494 1900 1641 1461 1199 1041 810 537 484 277 263 238 286 82 11 9 9 10 10 8 5 6 133 223 247 261
238 113 169 21 0 0 0 0 0 0 5 0 608 956 822 747 1078 1445 1370 1299 1239 1251 1198 1483 1663 1590 1346 1234 1176 898 747 336 15 22 113 164 16 11 11 10 14 92 98 86 99 201 200 133 128
224 133 41 18 0 0 0 0 0 0 31 3 578 938 947 1011 1042 1477 1444 1212 1190 1186 1203 1372 1719 1434 1485 1445 1327 1005 759 570 23 4 6 12 10 11 7 6 54 133 300 140 160 160 158 65 77
90 228 208 11 0 0 0 0 0 0 6 1 932 961 981 974 1382 1377 1166 1019 1109 1183 1223 1313 1486 1283 1476 1439 1435 1197 952 962 479 29 6 11 14 12 12 83 333 309 154 147 155 146 93 13 4
24 140 32 12 0 0 0 0 0 0 0 7 802 714 1127 1038 1315 1229 861 1007 1029 1095 1068 1202 1003 1113 1125 1166 1170 1105 979 961 618 114 24 35 62 67 22 88 194 183 112 101 122 71 34 0 0
68 37 23 1 0 0 0 0 0 0 0 62 762 749 1121 986 1240 1050 1081 969 985 1032 1157 1078 885 847 863 982 1055 1007 878 670 615 112 5 0 7 43 119 85 115 160 231 148 71 28 0 0 0
70 102 20 28 2 0 7 0 0 1 15 435 687 918 1252 1114 1158 1059 1135 1017 1033 1110 1132 1022 917 850 777 804 880 751 400 452 280 26 0 0 0 1 6 6 58 103 119 131 76 42 19 0 0
44 38 6 3 0 25 12 0 0 350 772 1141 1419 1347 1400 1219 1074 1196 1123 1098 1133 1139 1112 1031 951 841 808 694 467 139 62 96 243 108 3 0 0 0 0 0 18 91 69 56 38 28 9 0 0
31 0 0 34 0 13 15 0 25 389 574 975 1290 1446 1490 1391 1276 1295 1312 1098 1135 1183 1131 1046 883 834 783 470 268 21 0 0 36 125 38 0 0 0 0 0 0 0 2 14 21 2 0 0 0
15 39 0 6 0 34 4 5 14 23 29 691 1478 1493 1463 1351 1505 1504 1390 1117 1230 1225 1190 1090 939 875 674 283 183 35 0 0 0 11 142 85 2 21 0 0 0 0 0 0 0 0 0 0 0
6 0 12 16 2 22 28 0 0 0 27 433 953 1398 1295 1270 1486 1538 1512 1253 1218 1211 1136 1148 1068 913 571 312 285 148 47 57 8 0 0 126 119 78 12 11 0 0 0 4 0 0 0 0 0
25 38 28 10 0 6 39 8 1 0 0 213 534 997 1209 1197 1206 1424 1385 1367 1297 1233 1126 1164 1171 1042 709 434 319 244 159 170 130 0 0 0 69 214 129 79 26 17 12 16 18 30 34 27 0
4 36 57 32 47 0 36 1 4 5 2 242 149 332 1005 1207 1029 1231 1353 1490 1342 1252 1190 1206 1224 1157 869 619 466 323 300 347 291 56 0 0 0 85 215 104 56 54 64 64 48 44 21 7 0
47 17 0 61 54 72 0 1 8 1 65 132 54 101 314 986 1089 1013 1170 1400 1280 1208 1156 1242 1237 1265 1057 683 516 349 460 408 406 219 88 0 0 90 171 177 119 115 122 116 88 64 13 0 0
17 0 0 10 62 11 0 3 0 1 11 74 50 24 31 418 884 847 1073 1181 1263 1235 1203 1276 1306 1327 1157 873 606 440 516 437 306 304 237 105 0 3 15 13 82 192 138 127 62 36 8 0 0
0 0 0 10 14 54 0 0 0 12 8 83 132 11 18 51 610 859 981 979 1156 1088 1217 1333 1468 1450 1309 1063 783 546 653 470 388 337 324 195 28 0 16 48 80 78 70 51 24 5 0 0 0
0 0 0 22 8 26 0 0 0 12 55 64 28 63 47 18 268 495 736 1079 1057 1119 1206 1256 1345 1223 1332 1101 774 766 724 571 484 401 356 312 251 167 65 23 34 24 11 4 7 5 10 3 0
0 0 10 23 5 19 0 0 0 12 43 7 43 30 31 51 26 84 230 721 997 1278 1180 1166 1246 1229 1299 1348 1049 853 781 663 588 550 456 438 371 381 210 157 71 49 36 19 21 15 16 28 29
0 0 0 5 23 22 0 0 0 1 0 0 0 0 15 16 37 73 258 535 969 1237 1394 1333 1175 1259 1328 1303 1146 977 994 837 799 705 668 693 558 474 376 348 199 119 117 105 87 88 73 91 75
0 0 0 1 11 0 7 0 0 0 0 0 0 0 0 0 4 31 3 575 971 1260 1383 1330 1268 1231 1295 1324 1312 1028 1057 976 848 811 757 695 600 574 367 303 226 208 223 202 133 126 155 113 111
0 0 0 2 0 0 0 0 0 0 0 0 0 0 0 0 0 0 0 436 1111 1347 1391 1458 1318 1256 1225 1256 1253 1023 1098 844 749 774 708 566 447 474 286 234 220 269 233 159 159 122 106 107 127
11 14 31 5 0 0 0 0 0 0 0 0 0 0 0 3 0 0 0 122 862 1136 1331 1329 1338 1357 1309 1296 1044 1015 866 651 675 585 594 644 494 233 195 139 104 84 61 49 52 68 84 95 64
51 4 12 0 0 0 0 0 0 0 0 0 0 0 0 0 0 0 0 1 508 979 1179 1164 1246 1384 1323 1202 959 908 716 567 458 213 165 207 257 161 182 112 27 19 21 34 17 18 42 49 54
5 0 0 0 0 0 0 0 0 0 0 0 0 0 6 1 0 0 0 0 540 897 874 1038 1155 1173 1128 1098 861 724 541 404 196 122 106 66 19 46 53 14 1 1 0 1 0 15 12 51 12
16 0 8 5 0 0 0 0 0 0 0 0 0 0 0 0 0 0 0 0 600 798 879 825 917 1071 945 1014 792 521 391 130 48 4 1 0 0 0 0 0 0 0 0 0 1 16 42 59 72
3 0 3 1 0 0 0 0 0 0 0 0 0 0 0 0 0 0 0 0 18 240 278 66 507 843 738 647 560 348 135 27 10 27 0 0 0 0 0 0 3 3 0 0 0 0 0 0 0
0 0 0 2 0 0 0 0 0 0 0 0 0 0 0 0 0 0 0 0 0 0 13 10 17 94 627 498 407 336 151 20 2 6 0 10 63 96 89 90 49 13 5 0 0 0 0 0 0
0 0 0 0 0 0 0 0 0 0 0 0 0 0 0 0 0 0 0 0 0 9 4 4 1 0 0 2 11 9 5 0 27 88 77 30 18 0 0 0 0 0 0 0 0 0 0 0 0

GFSSGP_con_mucape_105.txt.gz
CAPE
1 1 41 210 76 46 0 0 0 0 1 0 0 3 3 43 30 2 775 938 1142 1332 1555 1452 1856 1615 1065 678 212 268 434 937 1161 1210 993 900 687 455 75 12 4 6 8 17 26 84 170 241 138
160 25 198 87 70 0 0 0 0 0 0 0 136 319 330 316 839 1189 1143 1186 1290 1484 1418 1394 1756 1557 1089 371 238 285 327 819 1083 1030 949 664 319 29 7 5 4 4 2 3 42 191 278 122 11
172 50 164 79 0 0 0 0 0 0 0 102 172 555 413 486 1027 1167 1212 1293 1372 1414 1332 1389 1679 1511 1140 729 563 531 444 513 784 972 904 350 52 10 5 4 4 9 14 111 200 274 88 94 191
188 56 71 147 1 0 0 0 0 0 0 0 101 926 682 791 1276 1248 1374 1394 1382 1365 1319 1376 1478 1446 1186 870 723 540 244 145 200 565 621 413 9 10 8 7 13 90 185 377 252 201 0 228 123
106 114 86 54 24 0 0 0 0 0 0 6 662 811 808 1201 1151 1493 1329 1239 1191 1228 1231 1251 1419 1368 1258 1077 838 635 274 48 36 176 96 16 11 11 12 8 62 115 258 329 250 138 0 161 31
91 98 129 65 22 0 0 0 0 0 0 7 662 883 899 1095 1502 1474 1334 1188 1114 1057 946 992 1049 1180 1315 1130 894 650 346 118 46 159 59 11 11 9 10 42 185 213 213 241 235 134 9 18 21
42 62 0 31 22 0 0 0 0 0 0 3 600 880 889 1554 1632 1968 1294 1163 1072 1018 904 861 769 1002 1053 1023 793 823 567 170 85 87 44 22 18 79 313 411 411 246 260 269 226 127 0 16 21
71 46 0 0 3 14 0 0 0 0 0 13 800 712 996 1514 1655 1634 1243 1191 1150 1056 809 915 865 854 868 866 710 742 571 126 31 25 21 12 6 22 180 154 238 260 270 205 143 31 0 6 17
72 62 8 0 3 0 1 0 0 0 17 179 714 666 1115 1661 1637 1260 1007 953 990 936 1004 906 777 771 781 769 712 584 477 94 8 0 0 2 0 0 0 4 80 232 221 119 49 16 0 0 0
34 40 16 0 0 2 3 0 0 0 385 904 1124 1173 1391 1550 1394 1102 862 760 771 994 1069 874 704 646 724 726 643 420 377 95 0 0 0 0 0 0 0 0 33 108 122 134 86 33 0 0 0
15 34 2 5 0 51 28 0 1 126 114 661 965 1249 1401 1187 1348 974 704 629 642 960 1115 985 720 656 612 516 439 270 369 205 77 0 0 0 0 0 0 0 0 2 8 2 2 0 0 0 0
59 1 0 0 57 43 0 5 15 132 31 15 664 1287 1269 1319 1379 999 669 551 833 1158 1218 1088 789 726 577 410 311 56 161 201 125 45 0 0 0 0 0 0 0 0 0 0 0 0 0 0 0
5 0 0 0 16 54 14 0 18 14 1 33 828 1309 1233 1385 1294 1729 1188 992 957 1171 1231 1038 843 757 549 353 173 28 0 117 171 89 23 0 0 0 0 0 0 0 0 0 0 0 0 0 0
2 33 3 0 60 35 0 0 19 2 0 180 733 987 1143 1246 1307 1505 1523 1126 1090 1134 1326 1157 927 782 571 296 151 38 0 2 0 92 121 81 13 14 0 0 0 0 0 1 0 0 6 8 0
2 27 49 0 45 7 0 0 14 3 3 273 342 395 433 990 1368 1304 953 1090 1159 1168 1215 1173 964 808 557 300 221 159 16 106 35 0 24 172 140 101 72 40 42 17 14 15 28 46 44 40 26
15 64 0 0 57 0 0 0 0 5 2 208 216 220 213 311 870 1199 1035 1074 1062 1070 1136 1182 1065 951 619 455 361 279 183 198 140 5 0 1 0 178 207 135 94 74 78 69 59 67 62 21 8
12 0 0 21 45 48 4 9 6 51 2 138 71 108 146 196 331 680 974 957 1090 1094 944 1111 1074 1066 884 526 378 304 268 291 273 163 54 9 11 11 90 201 140 121 133 129 128 114 66 24 12
2 0 0 0 54 0 0 0 0 2 17 136 62 37 33 40 223 236 714 855 876 974 931 1069 1088 1044 945 552 486 348 363 501 459 340 271 202 91 20 81 106 123 103 143 161 131 73 27 15 7
0 0 0 26 24 17 0 0 4 0 12 41 105 7 1 14 50 205 335 878 673 674 935 1042 962 1123 1030 613 611 415 501 566 395 327 316 339 225 92 0 33 64 104 168 70 57 26 10 0 2
0 0 0 37 32 27 0 0 0 0 12 97 45 33 36 33 39 81 189 548 728 709 754 917 975 962 731 684 732 540 601 619 451 293 330 402 360 257 272 162 125 75 22 17 5 0 0 6 23
0 0 5 17 29 30 0 0 0 0 0 0 2 23 27 15 9 2 38 284 530 680 744 950 1033 990 1089 960 851 672 670 627 535 569 542 434 432 370 366 254 255 149 100 32 26 25 27 26 48
0 0 46 24 19 0 23 0 0 0 0 0 0 19 22 2 2 0 1 115 511 704 819 947 1048 1071 1071 954 951 689 613 599 687 681 537 592 677 661 555 412 326 374 213 185 190 107 55 53 41
1 2 42 22 37 0 0 0 0 0 0 0 4 9 6 2 0 0 0 17 429 725 1010 1060 1052 1039 1130 1043 977 852 815 720 721 671 855 754 711 660 630 608 400 259 232 259 267 145 44 92 90
2 0 12 20 15 0 0 0 0 0 0 0 0 0 2 2 10 2 0 3 314 744 976 1113 1042 1059 1078 1149 1200 1078 1013 801 892 869 860 757 606 448 392 440 352 264 229 259 194 105 102 59 56
17 0 0 3 1 0 0 0 0 0 0 0 0 0 0 0 0 0 0 0 103 637 929 1040 1123 1088 1152 1112 1171 1178 1052 964 807 726 473 512 431 317 281 143 147 81 85 100 57 53 18 7 13
30 0 0 0 0 0 0 0 0 0 0 0 0 0 0 0 0 0 0 0 53 472 872 926 1040 1096 1041 951 902 865 807 819 747 632 317 184 167 162 215 278 83 3 0 6 23 10 8 8 3
1 0 0 0 0 0 0 0 0 0 0 0 0 0 0 0 0 0 0 0 4 322 721 747 933 887 731 733 808 802 730 615 544 310 135 132 108 11 17 55 52 10 0 0 4 0 7 22 30
15 1 2 0 0 0 0 0 0 0 0 0 0 0 0 0 0 0 0 0 0 231 555 617 708 737 582 658 681 746 642 476 312 110 31 0 0 0 0 0 0 2 4 13 13 4 3 3 1
7 16 2 0 0 0 0 0 0 0 0 0 0 0 0 0 3 0 0 0 1 218 639 611 563 535 552 563 637 636 554 380 133 13 1 0 0 0 0 6 12 38 46 42 23 4 0 0 0
0 0 0 1 0 0 0 0 0 0 0 0 0 0 0 0 0 0 0 0 0 13 189 141 3 181 437 500 454 376 205 83 14 4 0 0 0 21 41 1 0 0 0 0 0 0 0 0 0

GFSSGP_con_mucape_108.txt.gz
CAPE
37 0 7 73 59 77 0 0 0 0 0 16 27 11 10 103 1 0 518 677 871 1200 1377 1356 1625 1045 885 356 397 1013 1196 1635 1722 1706 1411 893 780 498 167 9 9 11 70 35 88 239 200 133 10
32 28 157 70 38 0 0 0 0 0 0 0 17 186 177 10 660 937 957 969 1019 1268 1288 1273 1478 1056 734 314 349 997 1066 1301 1401 1405 1354 1056 580 132 8 8 9 18 133 209 261 285 116 141 87
0 21 9 100 45 0 0 0 0 0 0 0 0 66 339 220 807 992 1088 1143 1286 1250 1208 1261 1348 1128 807 541 499 864 1029 1119 1089 1116 1055 822 194 21 5 6 12 87 298 508 294 175 88 13 1
4 57 14 47 77 25 0 0 0 0 0 0 0 9 72 691 914 1183 1206 1272 1219 1196 1191 1378 1335 1166 890 709 686 701 893 897 931 1065 790 507 20 6 5 8 37 191 510 446 112 110 123 0 0
39 32 1 2 1 43 4 0 0 0 0 0 79 0 0 1185 1129 1407 1393 1227 1207 1157 1275 1153 1387 1241 973 882 683 685 793 659 936 825 512 103 10 8 10 9 110 361 609 281 82 114 95 28 0
93 79 21 0 0 32 28 0 0 0 0 46 603 76 52 998 1363 1527 1381 1179 1371 1026 1020 1013 999 982 886 671 568 499 525 585 676 569 107 20 10 9 8 18 246 541 357 195 70 75 63 21 0
10 93 11 0 0 5 2 1 1 0 0 0 475 418 829 1638 1422 1441 1290 1229 1092 996 820 737 657 707 642 648 446 279 260 279 223 190 92 17 15 46 42 207 424 538 475 401 183 51 41 31 3
27 36 31 0 0 0 1 18 1 0 0 119 896 493 1083 1771 1400 1382 1117 1137 942 788 700 615 575 731 436 358 382 156 60 64 75 29 12 5 8 99 416 244 382 534 489 385 270 84 34 37 16
46 61 20 5 0 0 13 2 11 0 0 5 909 718 964 1904 1452 828 939 1025 857 631 576 577 590 689 446 347 386 168 24 13 11 8 0 0 6 38 45 57 96 235 319 167 69 22 16 9 0
29 14 2 0 0 0 1 63 25 1 0 131 934 1210 1820 1945 1731 1054 683 829 849 639 637 601 544 573 499 425 418 118 1 0 0 0 0 0 0 0 0 0 76 179 125 93 46 0 0 0 0
14 0 0 0 0 6 5 88 57 21 19 5 790 1424 1858 1737 1614 1145 678 868 867 698 695 613 506 490 502 351 281 203 12 0 0 0 0 0 0 0 0 0 0 0 0 0 0 0 0 0 0
3 0 0 0 0 14 44 100 80 7 0 0 38 1434 1717 1928 1557 1197 1030 882 812 669 774 642 514 480 459 332 387 553 96 0 0 0 0 0 0 0 0 0 0 0 0 0 0 0 0 0 0
3 0 0 0 0 11 56 58 54 32 3 0 2 924 1108 1478 998 1118 1056 841 771 570 686 770 563 502 473 318 273 299 231 119 0 0 0 0 0 0 0 0 0 0 0 0 0 0 0 0 0
9 0 0 0 0 13 57 21 25 0 5 5 400 960 1005 1195 936 845 698 650 562 544 790 892 650 542 527 376 248 146 167 142 93 0 0 0 0 0 0 0 0 0 0 0 0 0 0 0 0
0 0 0 4 0 1 71 12 0 0 0 12 98 699 916 1211 1014 799 655 451 218 234 850 959 761 643 589 423 256 56 55 180 159 88 16 0 0 0 0 0 0 0 0 0 2 5 20 32 25
0 0 0 2 0 7 10 0 6 0 6 7 74 643 729 673 747 940 867 588 414 700 1033 1031 879 837 621 401 235 64 0 0 35 86 72 48 36 45 12 7 32 16 13 10 17 31 30 30 7
0 29 9 33 0 5 7 0 3 0 22 21 389 440 464 419 582 712 856 790 796 901 1098 1035 858 817 730 509 235 89 12 19 47 8 18 72 90 100 128 106 74 69 54 52 55 60 55 54 22
0 0 0 20 0 2 8 0 0 0 0 64 334 370 388 370 349 413 506 670 1011 1056 1101 1077 890 881 767 443 277 281 168 61 107 17 0 4 21 33 137 162 146 97 94 101 101 108 95 55 8
0 0 0 7 59 11 35 0 0 0 0 96 249 242 210 239 193 219 378 362 428 702 938 1120 917 846 785 500 396 361 290 176 207 161 148 122 63 10 5 20 122 136 108 112 164 127 86 12 0
0 3 1 9 31 49 11 0 0 0 0 113 111 140 96 106 130 173 285 426 428 379 434 442 634 811 851 724 562 397 348 304 414 436 325 300 286 159 104 84 40 40 54 107 142 77 31 5 0
12 5 4 24 108 62 6 1 0 0 0 8 76 70 60 61 75 91 105 374 524 458 496 468 229 547 595 480 442 363 317 382 582 546 331 214 257 376 251 268 198 165 146 99 59 16 11 17 39
1 4 30 117 33 0 0 11 0 0 0 0 115 27 22 27 1 57 76 153 410 500 440 335 171 185 420 471 447 163 234 409 499 391 246 158 178 447 430 323 266 188 184 114 56 67 54 45 48
7 0 3 10 17 42 0 0 0 0 1 0 1 1 0 0 0 8 65 103 175 386 440 381 324 269 128 370 183 49 153 437 395 444 404 343 318 407 448 409 395 294 203 184 146 144 139 105 53
0 0 12 8 8 0 0 0 0 0 0 0 0 48 14 6 1 0 0 7 107 155 181 114 294 181 463 384 364 185 204 258 188 253 409 573 611 581 424 280 274 119 170 258 275 164 183 122 80
0 0 0 0 0 0 0 0 0 0 0 0 0 0 2 3 11 6 3 0 0 72 350 341 387 361 398 346 312 278 320 278 389 312 431 452 367 325 319 323 329 147 68 75 118 167 99 54 41
0 0 0 0 0 0 0 0 0 0 0 0 0 1 2 4 16 3 0 3 1 9 342 514 651 579 478 435 478 520 517 520 563 557 430 414 428 303 146 50 19 16 20 24 31 29 35 24 16
0 2 0 0 0 0 0 0 0 0 0 0 0 0 3 0 3 7 2 0 0 9 331 535 574 644 582 560 601 663 682 689 601 438 243 173 108 60 148 158 43 1 0 0 0 0 6 11 17
2 0 6 0 0 0 0 0 0 0 0 0 0 0 0 0 1 0 0 0 0 8 345 441 556 595 414 424 501 554 588 514 467 318 129 52 50 0 0 0 0 0 0 0 0 4 15 25 24
10 10 2 0 0 0 0 0 0 0 0 0 0 0 0 0 0 0 0 6 0 1 195 388 467 481 380 324 465 514 527 507 404 231 53 0 0 0 0 0 0 0 3 0 1 1 0 3 11
12 0 0 0 0 0 0 0 0 0 0 0 0 0 0 0 0 0 0 0 0 0 111 335 377 381 336 324 368 436 499 465 313 197 30 0 0 0 0 0 2 0 0 0 0 0 0 0 0

GFSSGP_con_mucape_111.txt.gz
CAPE
1 0 0 3 0 2 0 0 0 0 0 0 28 46 31 21 30 0 404 600 776 1077 1314 1373 1532 1444 1290 1210 1524 1426 1380 1776 1660 1593 1303 1062 956 465 174 493 513 304 341 311 345 175 15 106 158
3 0 0 0 20 0 0 0 0 0 0 0 2 82 57 12 500 767 738 796 955 1218 1379 1207 1329 1328 1147 1202 1420 1770 1838 1921 1706 1532 1315 1499 805 202 179 238 436 426 582 406 330 210 138 5 22
0 0 0 0 0 0 0 0 0 0 0 0 0 214 264 250 819 800 1028 1108 1195 1321 1347 1107 1119 1186 987 1265 1645 1669 1874 1920 1489 1233 1156 1222 690 64 11 205 458 418 730 619 284 139 86 2 1
35 22 0 0 0 14 23 1 0 0 0 0 0 0 364 780 1037 1035 1168 1278 1191 1258 1326 1179 1136 1091 934 1229 1607 1615 1617 1422 1267 1053 947 755 382 14 13 218 286 640 604 418 326 46 1 0 0
41 41 0 0 0 2 29 26 0 0 0 0 2 0 39 980 1284 1442 1314 1381 1154 1137 1308 1046 1211 1095 978 1142 1521 1510 1457 1309 1097 1062 717 296 119 16 13 127 446 677 397 254 184 57 0 0 0
103 107 0 0 0 0 3 1 0 0 0 0 276 179 87 1279 1654 1679 1528 1072 1232 1215 1195 1022 899 903 936 1000 1303 1256 1279 1240 1101 850 502 137 55 26 13 233 635 651 210 237 247 55 0 0 0
3 64 0 0 0 0 0 25 53 5 0 0 50 453 558 1555 1719 1838 1481 1120 1638 1195 1112 979 666 563 575 616 816 961 990 966 833 640 335 108 35 41 36 432 700 606 290 236 274 127 24 0 0
21 50 0 35 22 0 0 0 32 30 1 0 561 149 430 1095 1808 1756 1241 1020 1089 1095 1017 795 565 359 342 287 304 378 443 411 323 116 13 6 7 10 184 238 423 517 404 160 158 142 67 0 0
39 0 0 0 3 0 0 0 2 11 13 0 9 459 693 1452 1620 1313 1030 913 1032 916 779 714 535 423 265 63 38 35 52 12 5 2 1 9 12 22 6 53 151 266 331 139 93 25 20 11 0
57 0 0 0 0 0 1 0 8 3 34 38 2 398 1196 1581 1593 1266 799 623 1125 772 688 703 541 320 275 116 42 14 7 5 8 5 7 24 76 60 9 12 55 148 125 58 24 0 0 0 0
26 0 0 0 0 8 39 40 16 78 31 4 6 105 700 1720 1210 1137 774 273 561 673 693 606 448 268 254 183 130 28 10 4 2 1 4 13 12 18 21 95 99 70 1 19 1 0 0 0 0
0 0 0 0 0 14 32 48 81 105 7 1 0 14 63 1221 1433 1027 665 414 448 632 732 650 559 283 301 380 90 14 7 1 2 2 2 5 0 10 12 12 9 2 0 0 0 0 0 0 0
0 0 0 1 11 7 33 37 23 63 51 0 0 9 36 99 806 721 149 393 524 745 767 741 705 511 255 204 172 46 5 3 3 3 3 3 0 3 2 1 0 0 0 0 0 0 0 0 0
0 0 0 1 15 31 18 15 24 31 31 1 0 0 23 30 203 403 257 107 116 620 999 820 711 659 319 156 371 14 1 2 2 4 2 0 0 0 0 0 0 0 0 0 0 0 0 0 0
3 0 5 0 1 9 38 45 0 0 2 18 0 0 2 17 266 369 348 345 273 716 1139 1001 860 605 406 313 277 247 156 0 0 0 0 0 0 0 0 0 0 0 0 0 0 0 0 0 0
4 0 0 0 0 2 46 0 1 1 1 18 10 0 0 5 208 340 660 635 553 756 1083 961 885 596 415 135 138 95 68 49 9 0 0 0 0 0 0 0 0 0 0 1 2 2 16 26 10
4 0 0 0 0 8 21 0 15 0 8 4 1 0 0 8 320 374 508 386 281 701 1115 1002 898 649 378 187 142 92 19 11 26 37 1 0 0 1 0 0 7 2 4 12 17 20 41 54 47
0 0 1 0 6 4 1 0 14 25 34 0 0 0 0 42 275 392 565 412 286 599 1141 1151 1000 682 427 234 194 100 22 0 6 31 37 34 50 49 60 35 39 52 52 51 60 73 87 79 43
0 0 0 0 0 17 10 0 1 2 10 0 5 0 1 18 78 266 650 543 498 981 1221 1086 979 825 424 334 287 129 62 4 0 0 0 17 39 68 85 116 112 104 101 112 109 118 109 79 20
0 0 0 1 2 18 11 7 11 2 0 0 0 0 7 10 39 214 560 509 346 580 1171 1056 891 747 537 380 340 259 199 28 37 78 16 0 0 5 20 24 54 126 124 98 91 156 127 40 5
0 0 0 1 10 24 28 40 45 5 0 4 0 1 14 14 15 103 398 454 231 274 586 1024 914 800 526 461 383 261 250 213 82 113 96 96 80 99 69 49 45 56 61 56 56 179 87 25 22
4 0 0 13 3 24 29 0 45 2 0 1 0 0 46 31 28 56 266 259 217 85 275 458 585 482 505 885 362 332 337 285 229 255 328 370 238 123 129 118 115 84 94 95 109 76 29 55 18
0 3 8 21 0 0 11 5 26 5 0 0 0 0 19 37 28 56 97 197 208 258 271 160 100 73 39 250 350 288 247 234 317 307 306 254 128 80 118 147 160 236 180 79 58 95 69 57 74
3 5 14 1 7 0 0 1 0 0 0 0 0 0 8 59 37 53 57 83 105 220 354 252 109 109 166 96 157 191 108 71 316 276 246 136 105 96 173 203 247 208 161 66 54 128 128 88 91
5 22 0 3 8 0 0 0 0 0 0 0 0 3 0 32 61 25 20 17 6 143 267 239 244 183 133 37 10 95 104 156 242 204 166 124 81 89 142 281 225 187 122 122 231 184 231 122 97
0 0 1 0 0 0 0 0 0 0 0 0 0 2 9 22 26 1 0 2 23 109 184 50 178 151 161 177 117 3 102 119 138 127 138 99 136 105 201 366 683 128 70 45 46 38 28 26 3
2 1 0 1 0 0 0 0 0 0 0 0 0 1 2 10 0 0 3 2 7 45 269 261 226 167 168 195 168 94 109 116 111 213 139 189 149 186 168 56 2 0 0 0 0 3 8 3 3
4 0 5 0 0 0 0 0 0 0 0 0 0 0 5 0 0 0 0 9 0 0 152 296 255 253 240 198 211 162 195 201 183 144 131 190 129 113 70 8 0 0 0 0 0 0 0 0 0
9 10 0 0 0 0 0 0 0 0 0 0 0 0 0 0 1 1 0 0 0 1 87 217 313 265 263 260 274 262 320 316 276 153 87 98 17 0 0 0 0 0 0 0 0 0 0 0 0
5 1 0 0 0 0 0 0 0 0 0 0 0 0 0 0 0 8 0 0 0 0 95 213 197 238 239 250 323 317 286 302 287 167 85 13 0 0 0 0 0 0 0 0 0 0 0 0 0

GFSSGP_con_mucape_114.txt.gz
CAPE
7 0 0 6 12 0 0 0 0 0 0 0 0 1 64 182 222 475 840 975 1089 933 1353 1579 1523 864 1528 1614 1667 2017 2012 1941 1931 1901 1650 1006 869 753 695 839 575 734 767 282 155 168 357 262 203
14 0 0 28 4 0 0 0 0 0 0 0 0 0 68 89 297 984 954 1010 1150 1027 1302 1273 1470 1468 1616 1653 1540 1850 1999 1904 1851 1864 1703 1265 1042 809 754 716 397 822 668 716 218 85 159 120 118
7 2 0 0 0 0 0 1 1 6 0 0 0 0 24 63 767 1021 1190 1205 1250 1130 1192 1224 1548 1566 1586 1752 1589 1662 2072 1947 1849 1566 1260 1239 1009 730 556 709 575 1027 867 692 436 7 7 9 9
30 34 5 0 0 0 0 0 31 1 0 0 0 0 19 563 1162 1263 1291 1351 1273 1170 1199 1282 1450 1504 1600 1821 1750 1852 2091 1981 1516 1266 1163 998 762 583 653 690 900 752 554 489 115 6 2 0 1
63 43 0 0 0 0 0 2 44 18 0 0 0 0 0 981 1308 1377 1243 1454 1324 1205 1308 1176 1437 1436 1747 1984 1890 1991 1942 1596 1285 1162 1153 827 564 509 597 710 778 645 592 238 6 0 0 0 0
25 11 0 0 0 0 0 0 104 66 7 0 0 0 0 899 1364 1378 1456 1487 1268 1198 1225 1078 1027 1140 1621 1927 1801 1691 1554 1461 1362 1168 906 574 393 398 388 798 651 503 434 174 5 0 0 0 0
0 0 0 0 0 0 0 0 86 65 16 4 0 0 0 1090 1320 1438 1489 1368 1248 1207 1250 1084 852 646 1104 1498 1443 1407 1344 1132 1023 791 472 235 125 166 277 776 554 463 505 304 136 0 0 0 0
36 0 0 0 0 0 17 1 0 16 42 68 15 1 0 617 1538 999 1334 1293 1364 1263 1142 952 474 150 1103 1358 1027 984 900 787 690 327 74 8 6 22 391 398 366 358 354 299 193 32 0 0 0
11 0 0 0 0 0 17 23 2 0 42 124 122 179 35 23 1290 1522 1113 1170 1067 1098 1152 1003 366 44 66 1089 771 712 670 385 77 19 1 5 3 50 193 121 187 165 189 242 233 83 0 0 0
3 0 0 0 0 1 31 67 73 59 6 35 114 32 41 47 845 1452 1265 608 928 827 1066 815 211 44 11 273 508 647 379 267 52 15 10 0 0 17 132 78 81 147 75 75 57 11 0 0 0
3 0 0 0 0 6 17 29 53 62 15 74 21 55 120 86 731 1398 1517 1116 826 454 1121 719 230 168 21 16 575 621 262 148 50 23 1 2 5 21 128 119 80 80 0 1 0 0 0 0 0
0 0 4 0 1 1 3 18 49 102 78 56 8 51 69 92 448 464 1199 1162 585 314 742 694 319 152 14 10 11 86 251 112 19 8 6 15 23 18 27 70 95 22 35 1 0 0 0 0 0
0 0 0 0 8 6 11 2 26 42 12 14 18 13 27 0 73 340 305 1038 55 123 492 588 388 111 40 4 1 4 7 9 3 3 14 19 21 22 84 97 144 58 29 3 0 0 0 0 0
11 2 11 27 13 12 32 17 31 3 21 115 81 1 5 7 42 77 185 394 215 164 406 697 539 77 225 115 3 0 1 2 4 4 18 35 17 9 8 10 35 11 0 0 0 0 0 0 0
25 31 26 7 0 9 26 47 25 0 0 16 17 10 0 0 41 6 62 241 71 214 572 775 626 200 270 246 167 6 0 0 4 3 9 22 17 8 1 0 0 0 0 0 0 0 0 1 11
4 0 8 0 10 1 59 9 2 1 0 0 10 28 0 30 20 0 5 1 130 69 534 1040 743 452 233 257 235 65 0 0 0 4 5 5 1 0 0 0 0 0 0 0 0 0 8 72 66
0 0 29 20 20 35 51 22 28 17 8 0 3 12 0 8 23 0 14 0 5 12 222 810 780 647 449 427 449 220 159 6 0 0 0 0 0 0 0 0 0 0 4 21 40 62 90 108 82
0 0 55 45 49 74 38 26 45 121 157 63 29 13 0 2 21 1 51 19 43 7 160 935 755 685 719 709 633 437 435 361 197 10 0 0 0 0 0 0 10 37 65 70 63 80 82 102 59
18 0 19 7 10 0 32 76 47 164 121 73 19 0 0 1 0 24 35 0 44 196 478 695 886 785 632 368 302 296 229 237 248 347 301 173 113 111 93 106 112 139 159 143 127 166 157 111 36
2 0 1 0 5 24 21 81 23 52 76 22 5 0 2 0 0 10 119 161 13 299 399 838 839 580 605 632 476 367 291 230 190 242 251 216 209 243 254 263 234 206 214 237 175 128 103 217 79
0 0 0 0 3 16 87 28 26 25 4 0 1 2 0 0 0 0 86 384 110 157 322 555 640 628 612 656 534 389 380 244 218 254 141 81 97 118 173 176 205 223 206 193 227 265 331 275 27
0 0 0 20 0 97 29 2 0 2 0 0 8 0 6 0 0 0 28 337 175 182 247 365 614 768 655 1012 544 445 364 334 213 357 315 113 30 46 81 53 58 132 177 166 151 173 215 42 11
0 0 0 0 0 18 8 33 0 3 0 0 0 1 0 0 0 0 9 381 354 164 47 308 468 618 746 711 350 323 582 693 610 510 342 220 119 124 105 90 103 62 102 42 41 48 59 10 91
3 0 1 0 0 84 20 11 0 6 0 0 0 0 0 0 0 0 9 452 265 43 39 82 208 381 349 401 311 315 390 297 305 356 355 292 289 246 111 117 102 86 72 126 22 76 39 57 110
9 0 0 0 0 0 8 0 7 0 0 0 0 0 0 1 3 5 9 200 435 135 66 114 63 38 37 78 141 96 233 134 145 274 241 323 285 225 134 95 101 102 60 148 139 180 173 99 154
17 0 7 0 0 0 0 0 0 0 0 0 0 0 0 10 1 20 71 77 249 323 259 105 84 46 37 46 82 55 56 46 51 103 132 124 106 138 111 97 145 136 119 192 228 286 269 281 161
0 0 0 0 0 0 0 0 0 0 0 0 0 0 0 14 19 27 23 46 214 231 193 165 59 40 40 63 62 28 58 20 90 71 109 94 96 132 134 103 195 231 235 247 209 79 31 41 4
2 0 25 11 0 0 0 0 0 0 0 0 0 1 0 0 12 15 29 12 95 127 156 77 161 143 150 88 40 17 2 36 19 43 107 85 93 98 133 191 220 133 67 6 0 2 10 4 3
0 0 0 0 0 0 0 0 0 0 0 0 0 0 4 28 10 15 12 2 6 41 66 44 168 135 107 98 145 85 29 2 4 9 65 118 76 74 164 171 55 26 4 0 0 0 0 0 0
0 0 0 11 0 0 0 0 0 0 0 0 0 0 0 0 0 0 4 5 5 38 60 86 110 139 148 148 166 96 39 39 70 62 97 139 123 95 82 40 6 0 0 0 0 0 0 0 0

GFSSGP_con_mucape_117.txt.gz
CAPE
0 0 0 9 7 0 0 0 0 0 0 0 0 1 6 141 197 645 825 1082 946 1228 1076 1252 1799 1890 1881 2312 2365 2323 2201 2160 1988 1600 1472 1025 822 630 882 923 874 830 360 165 421 390 358 336 285
5 0 0 0 0 0 0 0 0 0 0 0 0 0 0 5 330 1031 780 1003 1041 1208 1162 995 1583 1831 1924 2041 2445 2292 2185 2135 1989 1725 1409 1374 1147 1068 806 1203 1291 1064 774 570 406 391 398 291 124
0 0 0 0 0 0 0 0 0 0 1 0 0 0 0 0 183 734 1175 1135 1117 1263 1332 1202 1476 1583 1880 1894 2240 2299 2123 2046 1975 1707 1414 1290 1262 994 1004 870 823 681 677 423 192 213 203 141 9
3 5 0 0 0 0 0 0 0 0 6 0 0 0 0 0 84 514 1069 1122 1122 1281 1194 1258 1449 1361 1741 1691 1945 2258 2085 1904 1749 1450 1245 1033 1092 1070 871 960 816 631 733 344 9 8 8 5 2
1 7 0 0 0 0 0 0 0 0 4 9 0 0 0 0 1079 1172 1219 1224 1173 1248 1205 1232 1562 1572 1809 1786 1674 2016 2019 1783 1600 1372 1193 1144 1060 1018 1038 982 781 695 543 173 4 1 0 0 0
0 0 0 0 0 0 0 0 0 0 1 13 0 3 0 3 944 1336 1349 1302 1182 1184 1408 1284 1202 1335 1645 1786 1604 2014 1817 1587 1365 1182 1074 1029 800 921 1065 873 791 617 261 1 0 0 0 0 0
0 0 0 0 0 0 0 0 0 0 0 1 12 2 0 6 626 1459 1104 1438 1351 1293 1223 1253 1095 934 1493 1581 1673 1768 1620 1334 956 948 835 560 542 643 919 721 666 669 319 53 0 0 0 0 0
1 0 0 0 0 0 0 0 0 0 0 0 24 21 17 2 221 1265 1264 1502 1164 1336 1046 1186 963 640 810 1472 1268 1239 1128 826 640 512 172 39 87 281 633 309 453 469 305 118 1 0 0 0 0
6 0 0 0 0 0 0 0 0 0 0 0 5 19 61 129 77 571 1052 1332 1075 1150 973 1010 740 263 435 1121 1132 895 787 496 220 132 99 8 7 41 186 22 174 295 299 202 80 20 0 0 0
0 0 0 0 0 0 0 0 0 6 16 3 1 5 69 73 58 301 799 875 1178 1166 878 857 556 78 292 916 1055 931 760 425 201 142 23 1 1 91 264 42 67 180 202 202 123 28 0 0 0
0 0 0 0 4 5 0 0 3 10 2 19 38 0 37 81 135 151 771 908 219 623 850 684 535 31 185 733 1017 814 687 258 279 125 5 0 1 123 204 77 10 9 7 39 22 0 0 2 0
0 0 0 5 7 13 23 22 5 4 3 0 27 31 29 80 134 53 344 409 616 104 371 248 254 22 42 484 749 597 543 314 166 433 0 0 7 210 129 91 24 3 0 0 0 0 0 0 0
0 0 5 3 0 0 5 9 0 3 2 14 31 29 59 69 50 74 154 196 161 171 71 213 37 72 11 260 568 568 211 80 140 119 0 6 18 47 72 70 91 34 36 0 0 0 0 0 0
10 12 0 0 5 18 22 16 17 10 0 0 10 29 8 28 13 64 51 109 57 57 257 20 183 317 25 14 358 572 243 107 32 13 11 15 18 30 83 77 180 99 53 2 0 0 0 0 0
8 0 8 3 3 2 14 37 7 0 4 2 11 15 4 56 18 16 22 63 33 2 406 187 251 121 38 7 9 26 146 60 8 9 19 12 19 67 149 136 121 72 26 0 0 0 0 0 0
3 20 0 0 7 0 28 0 0 0 10 4 0 52 47 14 36 13 24 30 53 50 183 272 193 177 69 13 20 17 18 17 8 5 22 32 19 55 59 74 44 12 0 0 0 0 0 18 55
15 0 0 1 1 20 64 104 17 0 20 0 0 0 8 11 24 1 27 2 61 4 42 256 300 189 334 302 113 16 3 10 5 4 13 15 12 12 18 8 3 0 0 0 0 0 8 98 86
0 0 17 0 27 73 80 45 48 51 54 4 0 1 7 15 0 1 0 30 40 59 29 54 341 334 465 426 207 100 3 1 7 7 3 6 3 0 1 0 0 0 1 35 59 66 102 133 133
0 0 0 9 11 19 4 1 46 83 138 88 57 135 53 79 0 1 0 83 47 83 59 110 443 395 490 307 289 290 135 10 0 0 0 0 0 0 0 0 0 18 66 72 69 112 142 172 124
0 0 0 0 11 11 11 11 37 61 155 168 134 89 79 28 1 4 5 47 52 48 31 28 423 511 410 261 315 405 692 512 291 69 0 0 0 0 0 36 74 108 144 108 201 273 317 349 314
0 0 0 0 0 17 14 54 7 30 90 108 94 56 44 13 12 1 6 1 76 0 80 43 130 424 379 340 480 458 452 551 506 456 447 257 178 185 167 190 152 249 256 334 418 357 427 383 398
0 0 0 0 0 1 19 83 24 28 14 75 61 18 28 5 7 0 0 0 84 0 0 167 131 275 429 487 325 334 319 339 334 330 246 206 210 346 344 355 330 368 376 410 376 420 624 531 301
0 0 0 0 0 0 0 0 37 17 10 2 24 54 57 77 0 0 2 0 173 31 38 114 141 209 386 331 389 512 401 316 247 423 272 207 170 166 210 155 131 171 330 450 415 222 259 221 130
0 0 0 0 0 0 1 1 0 6 14 22 44 80 45 18 0 0 0 0 238 111 99 65 93 83 358 306 272 359 574 572 334 409 328 205 154 126 100 129 154 201 253 176 53 56 84 132 213
0 0 16 27 0 0 0 1 11 4 22 18 20 21 14 0 0 0 0 123 231 200 46 25 11 153 60 239 324 294 280 360 610 507 477 255 169 140 134 95 130 162 143 107 55 70 142 240 301
0 0 4 8 80 27 10 7 4 6 9 11 0 4 4 6 0 0 1 312 357 122 64 51 0 4 34 146 164 184 265 230 215 176 273 288 246 274 162 72 127 65 57 75 83 92 183 175 168
0 0 0 0 0 0 1 20 6 3 11 0 0 5 3 0 4 2 11 340 220 133 68 81 122 54 27 44 23 60 49 52 53 60 92 108 137 189 180 139 130 113 84 69 76 133 108 399 226
0 0 0 16 0 0 1 0 0 0 0 0 0 0 0 17 42 41 78 327 318 213 150 200 150 44 25 38 22 55 4 61 53 46 39 55 70 101 164 163 144 167 118 124 185 297 199 145 44
0 1 0 0 0 8 0 0 0 0 0 0 0 0 1 41 59 115 90 292 292 280 273 164 164 91 27 60 60 37 39 17 11 0 14 56 37 72 77 116 105 99 66 89 99 28 3 2 0
0 0 0 60 0 0 0 0 0 0 0 0 0 0 0 21 100 93 99 137 93 44 23 25 106 102 62 60 63 48 52 3 8 16 15 1 14 64 49 34 72 165 132 76 19 0 0 0 0